[[{"header":{"parameterUnit":"m.s-1","parameterCategory":1,"la1":30.6,"la2":29.2853,"lo1":-89.7004,"lo2":-87.6739,"dy":0.0162,"dx":0.0183,"nx":112,"ny":82,"refTime":"2024-11-27T06:00:00:Z","depth":0,"parameterNumber":2,"parameterNumberName":"U-component_of_WINDS"},"data":[0.0,0.0,0.0,0.0,0.0,0.0,0.0,0.0,0.0,0.0,0.0,0.0,0.0,0.0,0.0,0.0,0.0,0.0,0.0,0.0,0.0,0.0,0.0,0.0,0.0,0.0,0.0,0.0,0.0,0.0,0.0,0.0,0.0,0.0,0.0,0.0,0.0,0.0,0.0,0.0,0.0,0.0,0.0,0.0,0.0,0.0,0.0,0.0,0.0,0.0,0.0,0.0,0.0,0.0,0.0,0.0,0.0,0.0,0.0,0.0,0.0,0.0,0.0,0.0,0.0,0.0,0.0,0.0,0.0,0.0,0.0,0.0,0.0,0.0,0.0,0.0,0.0,0.0,0.0,0.0,0.0,0.0,0.0,0.0,0.0,0.0,0.0,0.0,0.0,0.0,0.0,7.1172,7.4922,7.6562,7.4922,7.4414,7.1836,6.6367,0.0,0.0,0.0,0.0,0.0,0.0,0.0,0.0,0.0,0.0,0.0,0.0,0.0,0.0,0.0,0.0,0.0,0.0,0.0,0.0,0.0,0.0,0.0,0.0,0.0,0.0,0.0,0.0,0.0,0.0,0.0,0.0,0.0,0.0,0.0,0.0,0.0,0.0,0.0,0.0,0.0,0.0,0.0,0.0,0.0,0.0,0.0,0.0,0.0,0.0,0.0,0.0,0.0,0.0,0.0,0.0,0.0,0.0,0.0,0.0,0.0,0.0,0.0,0.0,0.0,0.0,0.0,0.0,0.0,0.0,0.0,0.0,0.0,0.0,0.0,0.0,0.0,0.0,0.0,0.0,0.0,0.0,0.0,0.0,0.0,0.0,0.0,0.0,0.0,0.0,0.0,0.0,0.0,0.0,0.0,0.0,0.0,0.0,0.0,0.0,0.0,0.0,0.0,0.0,6.9023,7.4531,7.6367,7.6797,7.5781,7.3672,7.1094,6.8008,0.0,0.0,0.0,0.0,0.0,0.0,0.0,0.0,0.0,0.0,0.0,0.0,0.0,0.0,0.0,0.0,0.0,0.0,0.0,0.0,0.0,0.0,0.0,0.0,0.0,0.0,0.0,0.0,0.0,0.0,0.0,0.0,0.0,0.0,0.0,0.0,0.0,0.0,0.0,0.0,0.0,0.0,0.0,0.0,0.0,0.0,0.0,0.0,0.0,0.0,0.0,0.0,0.0,0.0,0.0,0.0,0.0,0.0,0.0,0.0,0.0,0.0,0.0,0.0,0.0,0.0,0.0,0.0,0.0,0.0,0.0,0.0,0.0,0.0,0.0,0.0,0.0,0.0,0.0,0.0,0.0,0.0,0.0,0.0,0.0,0.0,0.0,0.0,0.0,0.0,0.0,0.0,0.0,0.0,0.0,0.0,0.0,0.0,0.0,0.0,0.0,0.0,0.0,6.8242,7.0937,7.6055,7.6953,7.6836,7.5976,7.3945,7.1406,6.8398,6.5312,0.0,0.0,0.0,0.0,0.0,0.0,0.0,0.0,0.0,0.0,0.0,0.0,0.0,0.0,0.0,0.0,0.0,0.0,0.0,0.0,0.0,0.0,0.0,0.0,0.0,0.0,0.0,0.0,0.0,0.0,0.0,0.0,0.0,0.0,0.0,0.0,0.0,0.0,0.0,0.0,0.0,0.0,0.0,0.0,0.0,0.0,0.0,0.0,0.0,0.0,0.0,0.0,0.0,0.0,0.0,0.0,0.0,0.0,0.0,0.0,0.0,0.0,0.0,0.0,0.0,0.0,0.0,0.0,0.0,0.0,0.0,0.0,0.0,0.0,0.0,0.0,0.0,0.0,0.0,0.0,0.0,0.0,0.0,0.0,0.0,0.0,0.0,0.0,0.0,0.0,0.0,0.0,0.0,0.0,0.0,0.0,0.0,0.0,0.0,0.0,0.0,0.0,7.1523,7.3047,7.6797,7.7187,7.6914,7.625,7.4023,7.1406,6.8398,6.4375,0.0,0.0,0.0,0.0,0.0,0.0,0.0,0.0,0.0,0.0,0.0,0.0,0.0,0.0,0.0,0.0,0.0,0.0,0.0,0.0,0.0,0.0,0.0,0.0,0.0,0.0,0.0,0.0,0.0,0.0,0.0,0.0,0.0,0.0,0.0,0.0,0.0,0.0,0.0,0.0,0.0,0.0,0.0,0.0,0.0,0.0,0.0,0.0,0.0,0.0,0.0,0.0,0.0,0.0,0.0,0.0,0.0,0.0,0.0,0.0,0.0,0.0,0.0,0.0,0.0,0.0,0.0,0.0,0.0,0.0,0.0,0.0,0.0,0.0,0.0,0.0,0.0,0.0,0.0,0.0,0.0,0.0,0.0,0.0,0.0,0.0,0.0,0.0,0.0,0.0,0.0,0.0,0.0,0.0,0.0,0.0,0.0,0.0,0.0,0.0,0.0,0.0,7.2344,7.5078,7.6992,7.7187,7.7187,7.7109,7.3281,7.0117,6.832,6.2695,0.0,0.0,0.0,0.0,0.0,0.0,0.0,0.0,0.0,0.0,0.0,0.0,0.0,0.0,0.0,0.0,0.0,0.0,0.0,0.0,0.0,0.0,0.0,0.0,0.0,0.0,0.0,0.0,0.0,0.0,0.0,0.0,0.0,0.0,0.0,0.0,0.0,0.0,0.0,0.0,0.0,0.0,0.0,0.0,0.0,0.0,0.0,0.0,0.0,0.0,0.0,0.0,0.0,0.0,0.0,0.0,0.0,0.0,0.0,0.0,0.0,0.0,0.0,0.0,0.0,0.0,0.0,0.0,0.0,0.0,0.0,0.0,0.0,0.0,0.0,0.0,0.0,0.0,0.0,0.0,0.0,0.0,0.0,0.0,0.0,0.0,0.0,0.0,0.0,0.0,0.0,0.0,0.0,0.0,0.0,0.0,0.0,0.0,0.0,0.0,0.0,0.0,7.1953,7.4687,0.0,7.7187,7.7187,7.7187,7.4219,7.1133,6.8359,0.0,0.0,0.0,0.0,0.0,0.0,0.0,0.0,0.0,0.0,0.0,0.0,0.0,0.0,0.0,0.0,0.0,0.0,0.0,0.0,0.0,0.0,0.0,0.0,0.0,0.0,0.0,0.0,0.0,0.0,0.0,0.0,0.0,0.0,0.0,0.0,0.0,0.0,0.0,0.0,0.0,0.0,0.0,0.0,0.0,0.0,0.0,0.0,0.0,0.0,0.0,0.0,0.0,0.0,0.0,0.0,0.0,0.0,0.0,0.0,0.0,0.0,0.0,0.0,0.0,0.0,0.0,0.0,0.0,0.0,0.0,0.0,0.0,0.0,0.0,0.0,0.0,0.0,0.0,0.0,0.0,0.0,0.0,0.0,0.0,0.0,0.0,0.0,0.0,0.0,0.0,0.0,0.0,0.0,0.0,0.0,0.0,0.0,0.0,0.0,0.0,0.0,6.9297,7.2578,7.5312,0.0,7.7617,7.7494,7.716,7.4012,7.0703,6.75,0.0,0.0,0.0,0.0,0.0,0.0,0.0,0.0,0.0,0.0,0.0,0.0,0.0,0.0,0.0,0.0,0.0,0.0,0.0,0.0,0.0,0.0,0.0,0.0,0.0,0.0,0.0,0.0,0.0,0.0,0.0,0.0,0.0,0.0,0.0,0.0,0.0,0.0,0.0,0.0,0.0,0.0,0.0,0.0,0.0,0.0,0.0,0.0,0.0,0.0,0.0,0.0,0.0,0.0,0.0,0.0,0.0,0.0,0.0,0.0,0.0,0.0,0.0,0.0,0.0,0.0,0.0,0.0,0.0,0.0,0.0,0.0,0.0,0.0,0.0,0.0,0.0,0.0,0.0,0.0,0.0,0.0,0.0,0.0,0.0,0.0,0.0,0.0,0.0,0.0,0.0,0.0,0.0,0.0,0.0,0.0,0.0,0.0,0.0,0.0,0.0,0.0,7.0273,7.4492,7.7539,7.8437,7.8515,7.8109,7.7083,7.2341,6.8281,0.0,0.0,0.0,0.0,0.0,0.0,0.0,0.0,0.0,0.0,0.0,0.0,0.0,0.0,0.0,0.0,0.0,0.0,0.0,0.0,0.0,0.0,0.0,0.0,0.0,0.0,0.0,0.0,0.0,0.0,0.0,0.0,0.0,0.0,0.0,0.0,0.0,0.0,0.0,0.0,0.0,0.0,0.0,0.0,0.0,0.0,0.0,0.0,0.0,0.0,0.0,0.0,0.0,0.0,0.0,0.0,0.0,0.0,0.0,0.0,0.0,0.0,0.0,0.0,0.0,0.0,0.0,0.0,0.0,0.0,0.0,0.0,0.0,0.0,0.0,0.0,0.0,0.0,0.0,0.0,0.0,0.0,0.0,0.0,0.0,0.0,0.0,0.0,0.0,0.0,0.0,0.0,0.0,0.0,0.0,0.0,0.0,0.0,0.0,0.0,0.0,0.0,0.0,0.0,7.4821,7.8139,7.8999,7.8575,7.8103,7.779,7.3611,6.9427,6.5624,0.0,0.0,0.0,0.0,0.0,0.0,0.0,0.0,0.0,0.0,0.0,0.0,0.0,0.0,0.0,0.0,0.0,0.0,0.0,0.0,0.0,0.0,0.0,0.0,0.0,0.0,0.0,0.0,0.0,0.0,0.0,0.0,0.0,0.0,0.0,0.0,0.0,0.0,0.0,0.0,0.0,0.0,0.0,0.0,0.0,0.0,0.0,0.0,0.0,0.0,0.0,0.0,0.0,0.0,0.0,0.0,0.0,0.0,0.0,0.0,0.0,0.0,0.0,0.0,0.0,0.0,0.0,0.0,0.0,0.0,0.0,0.0,0.0,0.0,0.0,0.0,0.0,0.0,0.0,0.0,0.0,0.0,0.0,0.0,0.0,0.0,0.0,0.0,0.0,0.0,0.0,0.0,0.0,0.0,0.0,0.0,0.0,0.0,0.0,0.0,0.0,0.0,7.0528,7.518,7.8486,7.9262,7.8633,7.8014,7.7603,7.4001,7.0087,6.6083,0.0,0.0,0.0,0.0,0.0,0.0,0.0,0.0,0.0,0.0,0.0,0.0,0.0,0.0,0.0,0.0,0.0,0.0,0.0,0.0,0.0,0.0,0.0,0.0,0.0,0.0,0.0,0.0,0.0,0.0,0.0,0.0,0.0,0.0,0.0,0.0,0.0,0.0,0.0,0.0,0.0,0.0,0.0,0.0,0.0,0.0,0.0,0.0,0.0,0.0,0.0,0.0,0.0,0.0,0.0,0.0,0.0,0.0,0.0,0.0,0.0,0.0,0.0,0.0,0.0,0.0,0.0,0.0,0.0,0.0,0.0,0.0,0.0,0.0,0.0,0.0,0.0,0.0,0.0,0.0,0.0,0.0,0.0,0.0,0.0,0.0,0.0,0.0,0.0,0.0,0.0,0.0,0.0,0.0,0.0,0.0,0.0,0.0,0.0,0.0,0.0,0.0,7.1231,7.5592,7.8632,7.9309,7.8761,7.7941,7.6985,7.3871,7.042,6.6839,0.0,0.0,0.0,0.0,0.0,0.0,0.0,0.0,0.0,0.0,0.0,0.0,0.0,0.0,0.0,0.0,0.0,0.0,0.0,0.0,0.0,0.0,0.0,0.0,0.0,0.0,0.0,0.0,0.0,0.0,0.0,0.0,0.0,0.0,0.0,0.0,0.0,0.0,0.0,0.0,0.0,0.0,0.0,0.0,0.0,0.0,0.0,0.0,0.0,0.0,0.0,0.0,0.0,0.0,0.0,0.0,0.0,0.0,0.0,0.0,6.143,0.0,0.0,0.0,0.0,0.0,0.0,0.0,0.0,0.0,0.0,0.0,0.0,0.0,0.0,0.0,0.0,0.0,0.0,0.0,0.0,0.0,0.0,0.0,0.0,0.0,0.0,0.0,0.0,0.0,0.0,0.0,0.0,0.0,0.0,0.0,0.0,0.0,0.0,0.0,0.0,0.0,7.1004,7.583,7.8919,7.907,7.8943,7.8477,7.7561,7.4402,7.0987,6.7576,0.0,0.0,0.0,0.0,0.0,0.0,0.0,0.0,0.0,0.0,0.0,0.0,0.0,0.0,0.0,0.0,0.0,0.0,0.0,0.0,0.0,0.0,0.0,0.0,0.0,0.0,0.0,0.0,0.0,0.0,0.0,0.0,0.0,0.0,0.0,0.0,0.0,0.0,0.0,0.0,0.0,0.0,0.0,0.0,0.0,0.0,0.0,0.0,0.0,0.0,0.0,0.0,0.0,0.0,0.0,0.0,0.0,0.0,0.0,0.0,0.0,6.2552,0.0,0.0,0.0,0.0,0.0,0.0,0.0,0.0,0.0,0.0,0.0,0.0,0.0,0.0,0.0,0.0,0.0,0.0,0.0,0.0,0.0,0.0,0.0,0.0,0.0,0.0,0.0,0.0,0.0,0.0,0.0,0.0,0.0,0.0,0.0,0.0,0.0,0.0,0.0,0.0,7.1489,7.5419,7.8141,7.8912,7.8296,7.7678,7.7216,7.4819,7.2224,6.9624,6.4653,0.0,0.0,0.0,0.0,0.0,0.0,0.0,0.0,0.0,0.0,0.0,0.0,0.0,0.0,0.0,0.0,0.0,0.0,0.0,0.0,0.0,0.0,0.0,0.0,0.0,0.0,0.0,0.0,0.0,0.0,0.0,0.0,0.0,0.0,0.0,0.0,0.0,0.0,0.0,0.0,0.0,0.0,0.0,0.0,0.0,0.0,0.0,0.0,0.0,0.0,0.0,0.0,0.0,0.0,7.0128,7.0128,7.0128,7.0206,7.0206,6.7811,6.7038,6.7267,0.0,0.0,0.0,0.0,0.0,0.0,0.0,0.0,0.0,0.0,0.0,0.0,0.0,0.0,0.0,0.0,0.0,0.0,0.0,0.0,0.0,0.0,0.0,0.0,0.0,6.7926,6.7885,0.0,0.0,0.0,0.0,0.0,0.0,0.0,0.0,0.0,0.0,0.0,0.0,7.2065,7.5049,7.7254,7.841,7.7486,7.6714,7.6561,7.517,7.359,7.2015,6.737,6.3606,0.0,0.0,0.0,0.0,0.0,0.0,0.0,0.0,0.0,0.0,0.0,0.0,0.0,0.0,0.0,0.0,0.0,0.0,0.0,0.0,0.0,0.0,0.0,0.0,0.0,0.0,0.0,0.0,0.0,0.0,0.0,0.0,6.3792,6.4564,0.0,0.0,0.0,0.0,0.0,0.0,0.0,0.0,0.0,0.0,0.0,0.0,0.0,0.0,6.831,7.071,7.1872,7.1794,7.4234,7.5396,7.5396,7.5396,7.582,7.6438,7.4577,0.0,6.7422,6.6185,0.0,0.0,0.0,0.0,0.0,0.0,0.0,0.0,0.0,0.0,0.0,0.0,0.0,0.0,0.0,0.0,0.0,0.0,0.0,0.0,0.0,0.0,7.1447,7.1564,7.1833,7.164,0.0,6.6351,6.3029,6.166,0.0,0.0,0.0,0.0,0.0,0.0,0.0,0.0,7.2142,7.5511,7.7369,7.6789,7.7213,7.7251,7.6481,7.5546,7.4578,7.3654,7.0164,6.7301,6.5452,6.0755,0.0,0.0,0.0,0.0,0.0,0.0,0.0,0.0,0.0,0.0,0.0,0.0,0.0,0.0,0.0,0.0,0.0,0.0,0.0,0.0,0.0,0.0,0.0,0.0,0.0,0.0,0.0,0.0,0.0,6.4331,6.5067,6.4991,6.5067,6.4214,0.0,0.0,0.0,0.0,0.0,0.0,0.0,0.0,0.0,7.1058,7.1482,7.2102,7.3072,7.4658,7.5472,7.5509,7.7095,7.787,7.787,7.787,7.8062,7.8372,7.7634,7.5469,7.23,6.9476,6.7115,6.51,0.0,0.0,0.0,0.0,0.0,6.3866,6.5685,0.0,0.0,0.0,0.0,0.0,0.0,0.0,0.0,0.0,0.0,0.0,0.0,0.0,0.0,7.3764,7.4734,7.5238,7.4352,7.2421,6.9753,0.0,6.5168,6.385,6.0068,0.0,0.0,0.0,0.0,0.0,7.3571,7.574,7.7021,7.7137,7.7019,7.6827,7.6442,7.6052,7.5468,7.4614,7.2757,7.0671,6.8432,6.4865,6.1303,0.0,0.0,0.0,0.0,0.0,0.0,0.0,0.0,0.0,0.0,0.0,0.0,0.0,0.0,0.0,0.0,0.0,0.0,0.0,0.0,0.0,0.0,0.0,0.0,0.0,0.0,0.0,0.0,6.5993,6.6303,6.5724,6.6728,6.6071,0.0,0.0,0.0,0.0,0.0,0.0,6.9703,7.0946,7.2725,7.512,7.539,7.6203,7.7677,7.8567,7.8876,7.8681,7.9571,7.984,7.9645,7.9645,7.9645,7.9645,7.9413,7.8564,7.7058,7.2996,7.0171,6.8313,6.6847,6.615,6.6033,6.665,6.7423,6.8429,7.0558,7.0715,6.9787,6.8585,0.0,6.5297,6.1657,0.0,0.0,0.0,0.0,6.735,7.0482,0.0,7.3611,7.5079,7.6589,7.7445,7.6595,7.6595,7.524,0.0,6.9784,6.8858,6.4174,0.0,0.0,0.0,0.0,7.1757,7.4728,7.6049,7.6905,7.7329,7.6982,7.6634,7.6403,7.6403,7.613,7.5466,7.4652,7.3147,7.0754,6.8432,6.5097,0.0,0.0,0.0,0.0,0.0,0.0,0.0,0.0,0.0,0.0,0.0,0.0,0.0,0.0,0.0,0.0,0.0,0.0,0.0,0.0,0.0,0.0,0.0,0.0,0.0,0.0,0.0,0.0,0.0,0.0,6.7383,6.9552,0.0,0.0,0.0,0.0,6.7383,6.9629,7.1447,7.2375,7.4737,7.6905,7.868,7.9489,8.0338,8.1226,8.2124,8.2124,8.1304,8.2201,8.2163,8.1381,8.1381,8.1381,8.1343,8.0493,8.0108,7.9721,7.6276,7.3377,7.1023,7.0096,6.9281,6.8618,6.8657,6.9164,7.0019,7.0985,7.0715,7.0406,7.276,7.1289,6.8697,6.9205,6.7697,0.0,0.0,7.0328,7.1564,7.4188,7.4922,7.5194,7.613,7.7019,7.7445,7.6595,7.7059,7.6826,0.0,7.2297,7.0869,6.9748,0.0,6.9084,7.0675,7.1796,7.3109,7.4883,7.6589,7.733,7.6558,7.7174,7.729,7.6479,7.6403,7.6363,7.6324,7.5505,7.4266,7.2529,7.0754,6.7424,6.239,6.06,0.0,0.0,0.0,0.0,0.0,0.0,0.0,0.0,0.0,0.0,0.0,0.0,0.0,0.0,0.0,0.0,0.0,0.0,0.0,0.0,0.0,0.0,0.0,0.0,0.0,0.0,0.0,0.0,7.0711,7.2526,0.0,0.0,7.0363,7.1561,7.2332,7.427,7.6283,7.8213,7.9726,8.1044,8.2242,8.2548,8.2857,8.3167,8.3478,8.3478,8.3167,8.3478,8.317,8.2356,8.2356,8.2043,8.1497,8.1188,8.0725,8.0106,7.8869,7.6862,7.4622,7.4854,7.4428,7.3693,7.3693,7.4234,7.4932,7.4661,7.4001,7.334,7.3766,7.2683,7.1406,7.2258,7.1486,7.0711,7.2721,7.3493,7.4074,7.5546,7.5935,7.6012,7.6326,7.7484,7.814,7.6711,7.7946,7.8562,7.6012,7.4541,7.33,7.1912,7.1909,7.2101,7.2144,7.33,7.4615,7.5779,7.6478,7.675,7.6441,7.6673,7.675,7.6442,7.6403,7.6168,7.5584,7.5271,7.4343,7.2684,7.1447,6.9204,6.5757,6.3513,5.984,0.0,0.0,0.0,0.0,0.0,0.0,0.0,0.0,0.0,0.0,0.0,0.0,0.0,0.0,0.0,0.0,0.0,0.0,0.0,0.0,0.0,0.0,0.0,0.0,0.0,0.0,7.2299,7.2569,7.4847,7.5311,7.2452,7.3999,7.5495,7.6279,7.8279,8.014,8.1812,8.2767,8.3634,8.4484,8.4482,8.4638,8.4948,8.4948,8.4782,8.449,8.449,8.4011,8.3137,8.2867,8.2554,8.2242,8.1686,8.1309,8.1002,8.0755,7.9452,7.7714,7.8024,7.7793,7.7292,7.7292,7.7445,7.7561,7.6711,7.6012,7.5466,7.4928,7.4349,7.4001,7.4581,7.4349,7.4117,7.5236,7.5545,7.5661,7.6246,7.6403,7.6403,7.6403,7.7522,7.8256,7.7097,7.841,7.9299,7.7598,7.6552,7.5622,7.4502,7.4542,7.4657,7.4349,7.5003,7.574,7.6326,7.6673,7.6711,7.6442,7.6673,7.6711,7.6403,7.5897,7.543,7.5115,7.4304,7.33,7.2221,7.1059,6.9241,6.6727,6.4138,6.143,5.8604,0.0,0.0,0.0,0.0,0.0,0.0,0.0,0.0,0.0,0.0,0.0,0.0,0.0,0.0,0.0,0.0,0.0,0.0,0.0,0.0,0.0,0.0,0.0,6.885,7.1869,7.3688,7.2956,7.6551,7.7826,7.4536,7.7897,7.9955,7.907,8.1424,8.2866,8.2832,8.3669,8.4519,8.5328,8.5327,8.5749,8.6598,8.6598,8.6142,8.5227,8.5227,8.4762,8.3795,8.3024,8.3062,8.3683,8.2134,8.1933,8.2595,8.1854,8.103,8.0143,7.9374,7.9067,7.9028,7.9028,7.8488,7.7561,7.6711,7.6403,7.6403,7.6403,7.6403,7.6403,7.6403,7.6403,7.6403,7.6403,7.6403,7.6403,7.6403,7.6403,7.6403,7.6441,7.7098,7.7753,7.7753,7.8449,7.9067,7.9028,7.8333,7.7754,7.7753,7.7059,7.675,7.7561,7.6982,0.0,7.6403,7.7137,7.7367,7.6518,7.7214,7.7367,7.6518,7.4929,7.4267,7.4999,7.2683,7.1294,7.1294,6.9743,6.7731,6.5223,6.2627,6.2125,6.3756,0.0,0.0,0.0,0.0,0.0,0.0,0.0,0.0,0.0,0.0,0.0,0.0,0.0,0.0,0.0,0.0,0.0,0.0,0.0,0.0,0.0,0.0,7.2217,7.2449,7.4349,7.6554,7.8793,8.0604,8.1539,8.1188,8.2148,8.2982,8.3406,8.4125,8.4846,8.5492,8.5739,8.5955,8.6147,8.6129,8.6215,8.6445,8.6445,8.632,8.6068,8.6068,8.5594,8.4721,8.4528,8.3874,8.2948,8.3084,8.2591,8.171,8.2168,8.1849,8.1042,8.0861,8.0417,7.9876,7.9876,7.895,7.7561,7.6711,7.6403,7.6403,7.6403,7.6403,7.6403,7.6403,7.6403,7.6403,7.6403,7.6403,7.6403,7.6403,7.6403,7.6558,7.7176,7.8024,7.8641,7.8641,7.98,8.0456,7.9221,7.9297,7.9336,7.8759,7.8449,7.814,7.7754,0.0,0.0,7.6481,7.6595,7.6905,7.729,7.7561,7.7598,7.7367,7.6323,7.5006,0.0,7.2028,7.1294,7.1294,7.0867,7.0287,6.9592,6.7036,6.5374,0.0,0.0,0.0,0.0,0.0,0.0,0.0,0.0,0.0,0.0,0.0,0.0,0.0,0.0,0.0,0.0,0.0,0.0,0.0,0.0,0.0,0.0,7.1636,7.4988,7.6738,7.7845,7.9217,8.1222,8.2474,8.3474,8.4323,8.47,8.5265,8.6094,8.6235,8.6493,8.6968,8.665,8.6454,8.6454,8.6754,8.6884,8.6884,8.6884,8.6903,8.6867,8.6487,8.6044,8.5506,8.5161,8.4659,0.0,8.3847,8.3208,8.2327,8.2556,8.2124,0.0,0.0,0.0,0.0,0.0,7.9568,7.8641,7.7793,7.7251,7.6943,7.6943,7.6692,7.6366,7.6395,7.6383,7.6366,7.6395,7.6403,7.6473,7.6832,7.6923,7.7168,7.7989,7.8621,7.9105,7.9413,8.0261,8.0764,8.0185,0.0,0.0,8.0147,7.9453,7.895,7.8757,7.8449,7.8062,0.0,7.7484,7.7677,7.8178,7.8256,7.8256,7.8256,7.6786,0.0,0.0,0.0,7.1139,7.0754,7.1101,0.0,0.0,0.0,0.0,0.0,0.0,0.0,0.0,6.7473,6.6937,0.0,0.0,0.0,0.0,0.0,0.0,0.0,0.0,0.0,0.0,0.0,0.0,0.0,0.0,0.0,0.0,7.4346,7.7029,8.0755,8.1607,8.1799,8.1807,8.3054,8.4321,8.5287,8.6118,8.691,8.7573,8.7823,8.7845,8.7662,0.0,0.0,0.0,0.0,8.7704,8.7704,8.7704,8.7626,8.7472,8.6708,8.6248,8.6089,8.5359,8.5397,8.5901,8.4556,8.3859,8.3634,8.3094,8.2359,8.157,8.1506,8.1475,8.1359,8.0508,8.0162,0.0,0.0,0.0,0.0,7.7693,7.7112,7.6417,7.6401,7.6338,7.6304,7.6488,7.6546,7.6726,7.7564,7.7788,7.8049,7.8876,7.9099,7.9374,8.0185,8.034,8.0571,8.1343,8.1497,8.1497,8.1497,8.0263,7.9491,8.0108,7.9607,7.9105,7.9028,7.8989,7.9028,7.9144,0.0,0.0,7.9144,7.7012,7.5893,7.6363,7.3539,7.1526,7.0755,7.1758,7.2608,7.3303,7.4269,7.5817,7.7985,7.8873,7.9337,7.9223,7.1409,7.017,0.0,0.0,0.0,0.0,0.0,0.0,0.0,0.0,0.0,0.0,0.0,0.0,0.0,0.0,0.0,7.3268,7.7133,8.0376,8.1174,8.3015,8.4319,8.4387,8.4592,8.535,8.6893,8.716,8.7608,8.8488,8.8597,8.8594,8.8629,8.8428,0.0,8.8321,8.8415,8.8497,8.8497,8.8497,8.814,8.7429,0.0,0.0,8.6089,8.5938,8.5589,8.5166,8.5492,8.4889,8.3667,8.4279,8.4041,8.3182,8.1859,8.1329,8.1215,8.0364,8.0056,7.9901,7.9052,7.8666,7.8398,7.7741,7.7424,7.7144,7.6463,7.6226,0.0,7.7151,7.7363,7.7567,7.8496,7.8748,7.8947,7.9744,7.9944,8.0184,8.1073,8.1265,8.1304,8.1459,8.1497,8.1497,8.1497,8.1226,8.0841,8.0263,8.0069,7.9723,7.9067,7.8989,7.926,7.9914,8.0609,8.0725,8.0031,7.9489,7.8407,7.6518,7.5784,7.5359,7.5164,7.7287,7.8253,7.7751,7.9257,7.9913,7.9723,8.0609,8.1386,8.1972,7.891,7.7672,0.0,0.0,0.0,0.0,0.0,0.0,0.0,0.0,0.0,0.0,0.0,6.7117,0.0,0.0,7.4783,7.6482,7.9298,8.1681,8.2948,8.4523,8.5413,8.5073,8.5743,8.6692,8.7966,8.8507,8.9083,8.9925,8.9659,8.9453,8.9414,8.8992,8.8738,8.8738,8.9118,8.9286,8.9286,8.9286,8.8863,8.806,8.7596,8.694,8.6089,8.6089,8.5899,8.5512,8.5936,8.5399,8.4251,8.4291,8.4065,8.3603,8.2794,8.2264,8.1905,8.1442,8.1018,8.0597,8.0171,7.9759,7.9341,7.8952,7.8556,7.8147,7.7719,7.759,7.7653,7.8148,7.8283,7.8476,7.9323,7.958,7.9791,8.0605,8.0816,8.0956,8.142,8.1497,8.1497,8.1497,8.1497,8.1497,8.1497,8.1497,8.1343,8.0919,8.0841,8.0843,8.0888,8.0536,8.0728,8.2006,8.2161,8.2161,8.2161,8.1736,8.0769,7.9065,7.895,7.895,7.895,8.0575,8.1312,8.0926,8.2161,8.2585,8.2161,8.2972,8.3629,8.4058,8.3628,8.274,0.0,0.0,0.0,0.0,0.0,0.0,0.0,0.0,6.2873,6.6578,6.8259,6.9853,7.2387,7.4648,7.698,7.9695,8.1265,8.286,8.4869,8.5974,8.6386,8.5796,8.6864,8.7981,8.8868,8.9622,9.0362,9.1135,9.0659,9.0282,9.0167,8.9556,8.9175,8.9175,8.9823,9.0165,9.0165,9.0165,8.9669,8.8677,8.7983,8.7096,8.6089,8.6089,8.6089,8.6089,8.6089,8.5743,8.5089,8.4366,8.4097,8.4097,8.4097,8.3678,8.3017,8.2865,8.2248,8.1484,8.1544,8.1024,8.0262,8.0164,7.9644,7.9069,7.8934,7.8875,7.8882,7.9105,7.9163,7.9346,8.0112,8.0375,8.0596,8.1234,8.1417,8.1459,8.1459,8.1459,8.1501,8.1709,8.1596,8.1522,8.1729,8.1731,8.1731,8.1731,8.1731,8.2082,8.2938,8.2432,8.2545,8.3944,8.3596,8.3557,8.4252,8.3557,8.2743,8.204,8.2002,8.2002,8.2002,8.2819,8.3286,8.3286,8.4136,8.46,8.46,8.5254,8.5564,8.5564,8.6258,8.5796,6.1507,6.114,0.0,6.4478,6.404,6.4324,0.0,0.0,6.9275,7.1292,7.3525,7.4981,7.4626,7.7733,8.0537,8.0914,8.3567,8.564,8.5938,8.7365,8.8372,8.8305,8.8451,8.8868,8.9703,8.9866,9.0291,9.1129,9.1101,9.1065,9.1054,9.0975,9.09,9.09,9.1013,9.1052,9.1052,9.1052,9.0248,8.8716,8.86,8.7673,8.6089,8.6089,8.6089,8.6089,8.6089,8.6053,8.5974,8.5861,8.5822,8.5822,8.5822,8.5332,8.4541,8.3777,8.2932,8.2201,8.2209,8.1674,8.0866,8.0102,7.979,7.9553,7.88,7.8531,7.8731,7.9572,7.9785,7.9992,8.0937,8.1151,8.1195,8.1302,8.1307,8.1312,8.1312,8.1312,8.1566,8.241,8.1955,8.166,8.2501,8.2667,8.2667,8.2667,8.2667,8.2978,8.3828,8.3865,8.3865,8.4097,8.4638,8.5062,8.5177,8.4406,8.3905,8.3826,8.3826,8.3826,8.3826,8.4598,8.5022,8.5022,8.5871,8.6335,8.6335,8.6413,8.645,8.6452,8.6568,8.6065,6.404,0.0,0.0,0.0,6.6831,6.7848,7.0883,7.1437,7.1935,7.4124,7.6141,7.7724,7.8335,8.0304,8.2285,0.0,8.5205,8.6438,8.7481,8.8252,8.8716,8.8716,8.8716,8.9019,8.9819,9.0357,9.0821,9.1167,9.1208,9.1208,9.1208,9.1208,9.1208,9.1208,9.1208,9.1208,9.1208,9.1208,9.0592,8.94,8.94,8.8786,8.7596,8.7596,8.7327,8.6824,8.6322,8.6089,8.6089,8.6089,8.6089,8.6089,8.6089,8.5897,8.5512,8.467,8.3787,8.3066,8.3114,8.2552,8.1826,8.1524,8.1424,8.1348,8.1005,8.1198,8.1666,8.2044,8.2167,8.2251,8.2668,8.2754,8.2754,8.2754,8.2754,8.2754,8.2754,8.2754,8.288,8.3263,8.3033,8.294,8.3361,8.3451,8.3621,8.4168,8.3865,8.3866,8.4675,8.4406,8.429,8.4753,8.5564,8.6065,8.6065,8.5755,8.5564,8.5564,8.5564,8.5564,8.5564,8.5871,8.6065,8.6065,8.6413,8.6606,8.6606,8.6606,8.6606,8.6606,8.6606,8.6413,6.5308,0.0,0.0,6.7888,6.9499,7.1047,7.2177,7.3113,7.4335,7.6332,7.7902,7.9387,8.0835,8.1941,0.0,8.5438,8.6168,8.6901,8.8175,8.8562,8.8716,8.8716,8.8716,8.8945,8.9515,9.0359,9.0936,9.1167,9.1208,9.1208,9.1208,9.1208,9.1208,9.1208,9.1208,9.1208,9.1208,9.1208,9.0744,8.9893,8.9893,8.9477,8.8716,8.8716,8.8367,8.7711,8.6824,8.6476,8.6438,8.6205,8.6089,8.6089,8.6089,8.6089,8.6012,8.5435,8.4707,8.3951,8.4011,8.3453,8.2733,8.2828,8.2885,8.2885,8.2885,8.327,8.3733,8.3733,8.3733,8.3733,8.3733,8.3733,8.3733,8.3733,8.3733,8.3733,8.3733,8.3733,8.3816,8.4067,8.3957,8.3863,8.417,8.4221,8.4481,8.5177,8.4996,8.4965,8.556,8.514,8.5024,8.5602,8.6219,8.6606,8.6606,8.6606,8.6606,8.6606,8.6606,8.6606,8.6606,8.6606,8.6606,8.6606,8.6606,8.6606,8.6606,8.6606,8.6606,8.6606,8.6606,8.6606,0.0,0.0,6.7673,7.0171,7.2089,7.382,7.5482,7.6524,7.7372,7.8255,7.9134,8.0052,8.0939,8.2443,8.3866,8.4782,8.6286,8.7365,8.7442,8.8175,8.8716,8.8716,8.8716,8.8716,0.0,8.9477,9.028,9.1129,9.1208,9.1208,9.1208,9.1208,9.1208,9.1208,9.1208,9.1208,9.1208,9.1208,9.0744,8.9893,8.9893,8.9477,8.8716,8.8716,8.8677,8.86,8.7752,8.7365,8.7288,8.6438,8.6089,8.6089,8.6089,8.6089,8.6089,8.6051,8.5551,8.4858,8.486,8.429,8.3565,8.3567,8.3569,8.3569,8.3569,8.3609,8.3607,8.3607,8.3607,8.3607,8.3607,8.3607,8.3607,8.3607,8.3607,8.3607,8.3607,8.3607,8.3864,8.4789,8.4264,8.398,8.4905,8.5072,8.5101,8.5183,8.5889,8.6454,8.6559,8.6529,8.6529,8.6568,8.6566,8.6606,8.6606,8.6606,8.6606,8.6606,8.6606,8.6606,8.6606,8.6606,8.6606,8.6606,8.6606,8.6606,8.6606,8.6606,8.6606,8.6606,8.6606,8.6606,0.0,0.0,7.0294,7.2792,7.4318,7.559,7.7288,7.8325,7.8861,7.8559,7.9633,8.0591,8.0281,8.1593,8.321,8.4666,8.5822,8.694,8.8098,8.8021,8.7829,8.7829,8.7327,0.0,0.0,0.0,0.0,9.0319,9.0859,9.1208,9.1208,9.1208,9.1208,9.1208,9.1208,9.1208,9.1208,9.1208,9.1052,9.0744,9.0744,9.0629,9.0325,8.9746,8.9515,8.9438,8.8635,8.8254,8.8175,8.7327,8.7286,8.7711,8.6553,8.6824,8.7675,8.6515,8.6284,8.6478,8.5899,8.5168,8.4476,8.4476,8.4476,8.4476,8.4476,8.4824,8.5247,8.5247,8.5247,8.5247,8.5247,8.5247,8.5247,8.5247,8.5247,8.5247,8.5247,8.5247,8.5332,8.5669,8.548,8.5449,8.5895,8.5958,8.6002,8.6129,8.6379,8.6579,8.6603,8.6606,8.6606,8.6606,8.6606,8.6606,8.6606,8.6606,8.6606,8.6606,8.6606,8.6606,8.6606,8.6606,8.6875,8.7456,8.7456,8.7768,8.8313,8.8313,8.8313,8.8313,8.7728,8.7456,0.0,7.0403,7.2482,7.4983,7.6286,7.7248,7.8634,7.9171,7.9246,7.9017,7.9365,7.9746,7.9781,8.0439,8.1712,8.4055,8.4863,8.5826,8.7519,8.7288,8.694,8.694,8.6709,0.0,0.0,0.0,0.0,8.9893,9.0434,9.0859,9.1167,9.1208,9.1208,9.1208,9.1208,9.1208,9.1208,9.1208,9.1208,9.1208,9.1208,9.1208,9.1167,9.0629,9.0357,9.0319,8.9479,8.8981,8.8677,8.8098,8.8021,8.8175,8.7327,8.7711,8.8562,8.7442,8.7365,8.7711,8.6517,8.5743,8.532,8.532,8.532,8.532,8.532,8.5705,8.6089,8.6089,8.6089,8.6089,8.6089,8.6089,8.6089,8.6089,8.6089,8.6089,8.6089,8.6089,8.6089,8.6089,8.6089,8.6126,8.6275,8.6343,8.6425,8.6551,8.659,8.6606,8.6606,8.6606,8.6606,8.6606,8.6606,8.6606,8.6606,8.6606,8.6606,8.6606,8.6877,8.6914,8.6606,8.7188,8.7651,8.7918,8.8192,8.8621,8.9206,8.9206,8.9206,8.9206,8.8621,8.8192,7.1524,7.3094,7.4355,7.6824,7.7982,7.8788,7.9627,7.9133,7.8713,7.9435,7.8323,7.7634,0.0,0.0,7.9523,8.2868,8.3561,8.4251,8.5938,8.6205,8.6245,0.0,0.0,0.0,0.0,0.0,0.0,8.9893,0.0,9.0319,9.1169,9.1208,9.1208,9.1208,9.1208,9.1208,9.1208,9.1208,9.1208,9.1208,9.1208,9.1208,9.1208,9.1208,9.1208,9.1169,9.0319,8.9515,8.8831,8.8793,8.8291,8.7673,8.8406,8.8754,8.8831,8.8716,8.8716,8.8521,8.6824,8.6205,8.6168,8.6091,8.6089,8.6089,8.6089,8.6089,8.6089,8.6089,8.6089,8.6089,8.6089,8.6089,8.6089,8.6089,8.6089,8.6089,8.6089,8.6089,8.6089,8.6089,8.6094,8.6098,8.6098,8.6279,8.6414,8.6493,8.6562,8.6606,8.6606,8.6606,8.6606,8.6606,8.6606,8.6606,8.6606,8.6606,8.6606,8.6643,8.7456,8.7533,8.6761,8.8313,8.8816,8.8034,8.8853,8.9284,8.9322,8.9322,8.9322,8.9322,8.9284,8.8814,7.3548,7.5604,7.7555,7.8821,7.9321,7.9513,7.9742,7.9133,7.8213,7.7169,7.6128,7.5319,0.0,0.0,0.0,8.0437,8.2899,0.0,8.6824,8.7634,0.0,0.0,0.0,8.837,8.837,8.8752,0.0,0.0,9.0511,9.0975,9.1206,9.1208,9.1208,9.1208,9.1208,9.1208,9.1208,9.1208,9.1208,9.1208,9.1208,9.1208,9.1208,9.1208,9.1208,9.1206,9.0975,9.0746,9.0517,8.9861,8.9861,9.0131,8.9098,8.9445,9.0402,8.9175,8.9096,8.9436,8.8404,8.7596,8.6978,8.6322,8.6089,8.6089,8.6089,8.6089,8.6089,8.6089,8.6089,8.6089,8.6089,8.6089,8.6089,8.6089,8.6089,8.6089,8.6089,8.6089,8.6089,8.6089,8.6147,8.6155,8.6155,8.633,8.6481,8.6502,8.6562,8.6606,8.6606,8.6606,8.6606,8.6606,8.6606,8.6606,8.6606,8.6606,8.6877,8.7533,8.7763,8.8076,8.8508,8.8974,8.9398,8.9743,8.9975,9.0402,9.1058,9.1058,9.1058,9.1058,9.04,8.9975,7.5833,7.7709,7.9208,7.9665,7.9817,7.9627,7.8861,7.7748,7.6363,7.4672,7.3628,0.0,0.0,0.0,0.0,0.0,0.0,0.0,8.7096,8.8137,8.8716,0.0,8.9019,0.0,8.9248,8.9558,8.9979,0.0,9.0552,9.0782,9.1167,9.1208,9.1208,9.1208,9.1208,9.1208,9.1208,9.1208,9.1208,9.1208,9.1208,9.1208,9.1208,9.1208,9.1208,9.1208,0.0,9.0975,9.0629,9.0513,9.0511,9.0552,9.0017,9.0364,9.1092,9.0133,9.0092,9.0359,8.9517,8.8902,8.8284,8.7053,8.6668,8.6592,8.6207,8.6361,8.6668,8.6668,8.694,8.7248,8.7248,8.7248,8.7248,8.7248,8.694,8.6668,8.6668,8.6668,8.6784,8.7173,8.7253,8.73,8.7334,8.7108,8.6948,8.6985,8.7055,8.6988,8.6601,8.6588,8.6606,8.6606,8.6606,8.6606,8.6606,8.6954,8.7378,8.7879,8.8579,8.9047,8.9206,8.9901,9.0325,9.04,9.0787,9.1213,9.1714,9.1714,9.1714,9.1675,9.1213,9.0787,7.8057,7.9323,7.9935,7.9819,7.9704,7.9167,7.7363,7.5515,7.3741,7.2171,0.0,0.0,7.0706,7.2897,7.5513,7.8099,0.0,8.4674,8.7211,8.8406,8.9021,8.9021,8.9631,9.0126,9.0242,9.0936,9.1439,9.1515,9.0819,9.0705,9.1323,9.1477,9.1515,9.1515,9.1515,9.1477,9.1362,9.1362,9.1321,9.1208,9.1208,9.1208,9.1208,9.1208,9.1208,9.1208,0.0,0.0,9.0124,9.0898,9.0744,9.0165,9.0898,9.1208,9.1208,9.1208,9.1208,9.1092,9.0319,9.0086,8.9819,8.8132,8.7557,8.7442,8.6668,8.6978,8.7557,8.7557,8.8137,8.8716,8.8716,8.8716,8.8716,8.8716,8.8137,8.7557,8.7557,8.7557,8.779,8.8562,8.8716,8.8739,8.8771,8.8173,8.7703,8.7742,8.7871,8.7701,8.6929,8.6912,8.6916,8.6798,8.6877,8.6954,8.6954,8.7649,8.8113,8.8229,8.9586,9.0131,8.9553,9.0942,9.1327,9.0594,9.1327,9.1714,9.1714,9.1714,9.1714,9.1714,9.1714,9.1288,7.9246,8.0206,8.0706,7.9973,7.9246,7.8096,7.5705,7.3282,0.0,0.0,0.0,6.9047,6.9781,7.2549,7.5513,7.8099,0.0,0.0,0.0,0.0,9.0787,0.0,0.0,0.0,0.0,0.0,0.0,0.0,0.0,0.0,9.2287,9.2905,9.3251,9.3251,9.3251,9.2943,9.2287,9.2287,9.1902,9.1208,9.1208,9.1208,9.1208,9.1208,9.1208,9.1208,0.0,0.0,9.0975,9.1129,9.1129,9.0975,9.1129,9.1208,9.1208,9.1208,9.1208,9.1167,9.1015,9.0975,9.0708,8.9021,8.8483,8.8447,8.8291,8.8367,8.8483,8.8483,8.8562,8.8716,8.8716,8.8716,8.8716,8.8716,8.8562,8.8483,8.8483,8.8483,8.8523,8.8677,8.8716,8.8684,8.8735,8.8637,8.8571,8.8587,8.8724,8.8741,8.8588,8.8655,8.8466,8.7765,8.8312,8.874,8.874,8.8895,8.9242,8.9936,9.0246,9.0671,9.125,9.1559,9.1637,9.1482,9.1637,9.1714,9.1714,9.1714,9.1714,9.1714,9.1714,9.1637,8.0746,8.14,8.1516,8.0706,7.8823,7.6517,7.3976,0.0,0.0,0.0,0.0,6.7705,6.7705,0.0,0.0,0.0,0.0,0.0,0.0,0.0,0.0,0.0,0.0,0.0,0.0,0.0,0.0,0.0,0.0,0.0,9.3174,9.3482,9.3715,9.3715,9.3715,9.352,9.3138,9.2712,9.2482,9.2518,9.2095,9.1864,9.1864,9.1864,9.1631,9.1208,9.1208,0.0,9.1208,9.1208,9.1208,9.1208,9.1208,9.1208,9.1208,9.1208,9.1208,9.1208,9.1208,9.1208,9.1054,9.0248,8.9671,8.9248,8.8831,8.8983,8.9323,8.9323,8.9633,9.002,9.002,9.002,9.002,9.002,8.9633,8.9323,8.9323,8.9323,8.9479,8.9902,9.002,9.002,9.002,8.9665,8.9382,8.9382,8.9497,8.9401,8.8982,8.983,8.9972,8.8693,8.8934,8.9206,8.9206,8.9592,8.9977,9.0362,9.0826,9.1251,9.1675,9.1714,9.1714,9.1714,9.1714,9.1714,9.1714,9.1714,9.1714,9.1714,9.1714,9.1714,8.1823,8.2172,8.1864,8.1016,7.8398,7.5284,7.2556,6.9937,0.0,0.0,6.6402,6.6747,6.6476,0.0,7.2439,0.0,0.0,0.0,0.0,0.0,0.0,0.0,0.0,0.0,0.0,0.0,0.0,0.0,0.0,0.0,9.429,9.4251,9.4251,9.4251,9.4251,9.4174,9.3984,9.3369,9.3253,9.3676,9.3059,9.2751,9.2751,9.2751,9.2287,9.1477,9.1669,0.0,0.0,9.14,9.1362,9.1208,9.1208,9.1208,9.1208,9.1208,9.1208,9.1208,9.1208,9.1208,9.1208,9.1208,9.0744,9.0052,8.9442,8.9669,9.0165,9.0165,9.0665,9.1208,9.1208,9.1208,9.1208,9.1208,9.0667,9.0165,9.0165,9.0165,9.0396,9.1052,9.1208,9.1208,9.1208,9.0629,9.0165,9.0165,9.0282,9.0134,8.9509,9.0672,9.1062,8.9868,8.9738,8.9746,8.9746,9.0325,9.0671,9.0671,9.1329,9.1714,9.1714,9.1714,9.1714,9.1714,9.1869,9.1985,9.1985,9.1985,9.1985,9.1985,9.1791,9.1714,8.1823,8.1787,8.1014,8.0127,7.7934,7.513,7.1785,0.0,0.0,6.6093,6.5977,6.6437,6.7893,6.9741,0.0,0.0,0.0,0.0,0.0,0.0,0.0,0.0,0.0,0.0,0.0,0.0,0.0,0.0,0.0,0.0,0.0,9.6055,9.6055,9.6055,9.6055,9.5672,9.4874,9.4797,9.441,9.3715,9.3636,9.3599,9.3599,9.3599,9.3136,9.2402,0.0,0.0,0.0,9.2056,9.1902,9.1208,9.1208,9.1208,9.1208,9.1208,9.1208,9.1208,9.1208,9.1208,9.1208,9.1208,9.1169,9.1052,9.0977,9.1013,9.109,9.109,9.1129,9.1208,9.1208,9.1208,9.1208,9.1208,9.1129,9.109,9.109,9.109,9.109,9.1167,9.1208,9.1208,9.1208,9.1129,9.109,9.109,9.1129,9.1154,9.1083,9.1279,9.1402,9.137,9.1441,9.1484,9.1484,9.1522,9.1598,9.1598,9.1675,9.1714,9.1714,9.1714,9.1714,9.1714,9.2486,9.2873,9.2873,9.2873,9.2873,9.2873,9.206,9.1714,8.2479,8.2866,8.2289,8.0939,7.7896,7.4474,7.1552,0.0,6.6864,6.6054,6.59,6.6245,6.7399,6.8587,7.0626,0.0,0.0,0.0,8.3672,0.0,0.0,0.0,0.0,0.0,0.0,0.0,0.0,0.0,0.0,0.0,9.7055,9.6555,9.6285,9.6285,9.6285,9.6132,9.579,9.5256,9.5102,9.5249,9.4715,9.4487,9.4487,9.4487,9.4023,9.3213,0.0,0.0,0.0,9.1787,9.1515,9.1208,9.1208,9.1208,9.1208,9.1208,9.1208,9.1208,9.1208,9.1208,9.1208,9.1208,9.1208,9.1208,9.1208,9.1208,9.1208,9.1208,9.1208,9.1208,9.1208,9.1208,9.1208,9.1208,9.1208,9.1208,9.1208,9.1208,9.1208,9.1208,9.1208,9.1208,9.1208,9.1208,9.1208,9.1208,9.1238,9.1245,9.1298,9.1761,9.1991,9.1623,9.1626,9.1857,9.2443,9.2486,9.2486,9.2486,9.2486,9.2486,9.2486,9.2486,9.272,9.3187,9.3535,9.3729,9.3729,9.3729,9.3729,9.369,9.2874,9.2486,8.2095,8.2868,8.252,8.1054,7.7896,7.4357,0.0,0.0,6.7245,6.6401,6.6247,6.6593,6.767,6.8589,7.0162,0.0,0.0,7.7863,8.2095,8.3978,8.6357,0.0,0.0,0.0,0.0,0.0,0.0,0.0,0.0,0.0,0.0,9.7365,9.6824,9.6324,9.6516,9.6632,9.6632,9.5828,9.5828,9.6632,9.579,9.5369,9.5369,9.5369,9.491,9.4061,0.0,0.0,0.0,9.2479,9.2172,9.1902,9.1672,9.1592,9.1554,9.1285,9.1208,9.1208,9.1208,9.1208,9.1208,9.1208,9.1208,9.1208,9.1208,9.1208,9.1208,9.1208,9.1208,9.1208,9.1208,9.1208,9.1208,9.1208,9.1208,9.1208,9.1208,9.1208,9.1208,9.1208,9.1208,9.1208,9.1208,9.1208,9.1208,9.1208,9.1208,9.1232,9.1256,9.2039,9.2406,9.1935,9.2126,9.2492,9.2941,9.3222,9.3338,9.3338,9.3338,9.3338,9.3338,9.3338,9.3613,9.4197,9.4467,9.4582,9.4582,9.4582,9.4582,9.4543,9.3727,9.3222,8.0208,8.1131,8.09,8.0048,7.7896,7.5091,0.0,6.9587,6.8124,6.7285,6.7095,6.7632,6.936,7.0321,7.1704,7.428,0.0,0.0,8.2986,8.4324,8.6166,0.0,0.0,0.0,0.0,0.0,0.0,0.0,0.0,0.0,0.0,9.8791,9.8021,9.636,9.7055,9.7478,9.7478,9.667,9.667,9.7478,9.667,9.6283,9.6283,9.6283,9.5826,0.0,0.0,0.0,0.0,9.4602,9.4448,9.3599,9.2789,9.2482,9.2366,9.1515,9.1208,9.1208,9.1208,9.1208,9.1208,9.1208,9.1208,9.1208,9.1208,9.1208,9.1208,9.1208,9.1208,9.1208,9.1208,9.1208,9.1208,9.1208,9.1208,9.1208,9.1208,9.1208,9.1208,9.1208,9.1208,9.1208,9.1208,9.1208,9.1208,9.1208,9.1208,9.1208,9.1208,9.1941,9.2519,9.2571,9.343,9.3705,9.3053,9.3729,9.4197,9.4197,9.4197,9.4197,9.4197,9.4197,9.4197,9.4197,9.5046,9.5471,9.5471,9.5471,9.5471,9.5471,9.4584,9.3768,7.6434,7.7592,7.8132,7.6665,7.4861,7.2977,7.1285,6.9587,6.8316,6.8048,6.7513,6.7633,6.9396,6.9898,7.1668,7.6518,7.729,0.0,0.0,0.0,0.0,0.0,0.0,0.0,0.0,0.0,0.0,0.0,0.0,0.0,0.0,10.0212,9.9748,9.806,9.8252,9.8406,9.8406,9.8137,9.8137,9.8368,9.7519,9.7132,9.7093,9.6555,0.0,0.0,0.0,0.0,0.0,9.4256,9.3946,9.3674,9.3407,9.3328,9.3289,9.302,9.2556,9.2172,9.2712,9.2559,9.2172,9.2712,9.2559,9.2095,9.2095,9.1672,9.1208,9.1208,9.1208,9.1208,9.1208,9.1631,9.1941,9.1323,9.1669,9.1941,9.1323,9.1208,9.1208,9.1208,9.1208,9.14,9.1979,9.1592,9.14,9.2018,9.2095,9.2095,9.2095,9.333,9.4022,9.3534,9.4765,9.5355,9.471,9.4934,9.5085,9.5085,9.5085,9.5085,9.5085,9.5085,9.5355,9.5973,9.6243,9.6398,9.6398,9.6398,9.6089,9.5471,9.5239,9.4619,7.3397,7.5014,7.5976,7.4586,7.3472,7.2399,7.1168,6.9858,6.8893,6.8893,6.8473,6.8515,6.9898,7.0437,7.1939,7.5978,7.7019,0.0,0.0,0.0,0.0,0.0,0.0,0.0,0.0,0.0,0.0,0.0,0.0,0.0,0.0,0.0,10.0784,9.9788,9.9445,9.9293,9.9293,9.8945,9.8985,9.9296,9.8406,9.798,9.7942,9.7132,0.0,0.0,0.0,0.0,0.0,9.4905,9.4672,9.4636,9.433,9.4177,9.4138,9.383,9.3366,9.302,9.3523,9.3366,9.302,9.3523,9.3174,9.2443,9.2095,9.1631,9.1208,9.1208,9.1439,9.1592,9.1285,9.1864,9.2287,9.14,9.1864,9.2251,9.14,9.1708,9.2054,9.1746,9.1939,9.2326,9.2866,9.2518,9.2326,9.2866,9.2943,9.2943,9.2943,9.4138,9.4817,9.4375,9.5569,9.6213,9.5818,9.5902,9.5943,9.5971,9.5973,9.5973,9.5973,9.5973,9.6243,9.6783,9.6783,9.6783,9.6783,9.6783,9.6512,9.5973,9.5973,9.551,0.0,7.2976,7.4047,7.324,7.3047,7.2663,7.1168,7.0206,0.0,6.9743,6.9743,6.9973,7.0897,7.1708,7.2593,7.3855,0.0,0.0,0.0,0.0,0.0,0.0,0.0,0.0,0.0,0.0,0.0,0.0,0.0,0.0,0.0,0.0,10.1281,10.1281,10.0599,10.018,10.018,9.937,9.937,10.018,9.9293,9.887,9.8752,9.7904,0.0,0.0,0.0,0.0,0.0,9.6285,9.6285,9.6209,9.5408,9.5104,9.4987,9.4177,9.3867,9.379,9.3869,9.3828,9.3792,9.3715,9.3174,9.2402,9.1556,9.1285,9.1285,9.1285,9.1902,9.2402,9.1592,9.2018,9.2443,9.1592,9.2056,9.2443,9.1554,9.2597,9.3484,9.2712,9.3176,9.3715,9.3792,9.3751,9.3715,9.3792,9.3792,9.3792,9.3792,9.4561,9.5104,9.5104,9.5874,9.6392,9.6398,9.6568,9.6738,9.6772,9.6859,9.686,9.6783,9.686,9.686,9.6783,9.6783,9.6783,9.6783,9.6783,9.6783,9.6783,9.6783,9.6359,6.6785,0.0,6.9664,6.8821,6.8593,6.8861,0.0,6.9318,6.9085,7.0358,0.0,0.0,7.247,0.0,0.0,0.0,0.0,0.0,0.0,0.0,0.0,0.0,0.0,0.0,0.0,0.0,0.0,0.0,0.0,0.0,0.0,0.0,10.1281,10.1281,10.1092,10.1017,10.1017,10.0784,10.0784,10.1017,10.0216,9.9449,9.8752,9.7904,0.0,0.0,0.0,0.0,9.6285,9.6285,9.6285,9.6283,9.6055,9.598,9.5978,9.5749,9.5251,9.4794,9.5441,9.5251,9.4564,9.3907,9.3559,9.3251,9.2443,9.2172,9.2172,9.2172,9.2789,9.3366,9.3174,9.3753,9.4179,9.3328,9.3792,9.4179,9.3292,9.3405,9.3638,9.3443,9.3559,9.3907,9.4564,9.4138,9.3946,9.4602,9.4679,9.4679,9.4679,9.5446,9.598,9.598,9.6193,9.6354,9.6392,9.6568,9.6715,9.6732,9.7409,9.7516,9.6824,9.7441,9.7479,9.6822,9.6783,9.6783,9.6783,9.6783,9.6783,9.6783,9.6783,9.6707,6.4936,6.7396,6.9433,6.8977,6.9132,6.9672,7.0631,6.9589,0.0,0.0,0.0,0.0,0.0,0.0,0.0,0.0,0.0,0.0,0.0,0.0,0.0,0.0,0.0,0.0,0.0,0.0,0.0,0.0,0.0,0.0,0.0,10.1281,10.1281,10.1281,10.1281,10.1281,10.1281,10.1281,10.1281,10.1281,10.0904,10.0404,9.9904,9.8673,0.0,0.0,0.0,0.0,9.6285,9.6285,9.6285,9.6285,9.6285,9.6285,9.6285,9.6285,9.6019,9.5675,9.6132,9.598,9.5446,9.4561,9.4294,9.4138,9.3292,9.333,9.3561,9.3174,9.3638,9.4215,9.379,9.4333,9.4794,9.3907,9.4371,9.4758,9.3907,9.4328,9.4751,9.4369,9.4636,9.5059,9.5521,9.5213,9.5059,9.5521,9.5598,9.5598,9.5598,9.6019,9.6439,9.6824,9.6863,9.704,9.7443,9.7273,9.7196,9.724,9.7364,9.7596,9.794,9.8058,9.7864,9.7402,9.7015,9.6783,9.6783,9.6783,9.6783,9.6783,9.6783,9.6783,6.4856,6.8242,7.1245,7.0361,7.1092,7.194,7.1671,0.0,0.0,0.0,0.0,0.0,0.0,0.0,0.0,0.0,0.0,0.0,0.0,0.0,0.0,0.0,0.0,0.0,0.0,0.0,0.0,0.0,0.0,0.0,0.0,10.1281,10.1281,10.1281,10.1281,10.1281,10.1281,10.1281,10.1281,10.1281,10.1281,10.1205,10.1094,9.9637,9.8868,0.0,0.0,0.0,9.6285,9.6285,9.6285,9.6285,9.6285,9.6285,9.6285,9.6285,9.6285,9.6285,9.6285,9.6285,9.617,9.5292,9.4989,9.4871,9.4102,9.441,9.4874,9.4253,9.4638,9.5025,9.429,9.4638,9.5023,9.4253,9.4677,9.4987,9.4253,9.5249,9.6093,9.5331,9.579,9.6285,9.6285,9.6285,9.6285,9.6285,9.6399,9.6478,9.6478,9.6593,9.6939,9.7634,9.7711,9.8019,9.8752,9.8247,9.7984,9.8237,9.7501,9.7817,9.9425,9.858,9.8076,9.8076,9.724,9.6783,9.6783,9.6783,9.6783,9.6783,9.6783,9.6783,6.72,7.0893,7.2935,6.7939,6.89,7.0744,6.9318,0.0,0.0,0.0,0.0,0.0,0.0,0.0,0.0,0.0,0.0,0.0,0.0,0.0,0.0,0.0,0.0,0.0,0.0,0.0,0.0,0.0,0.0,0.0,0.0,0.0,10.1281,10.1281,10.1281,10.1281,10.1281,10.1281,10.1281,10.1281,10.1281,10.0902,10.0296,9.9988,9.9101,0.0,0.0,9.6939,9.6285,9.6285,9.6285,9.6285,9.6285,9.6285,9.6285,9.6285,9.6285,9.6285,9.6285,9.6285,9.617,9.5292,9.4989,9.4989,9.4833,9.4874,9.5141,9.5711,9.6016,9.6055,9.5939,9.6016,9.6055,9.5939,9.6016,9.6055,9.5939,9.6093,9.6247,9.6132,9.6209,9.6285,9.6285,9.6285,9.6285,9.6285,9.6863,9.7324,9.7324,9.7942,9.8444,9.8598,9.8598,9.8637,9.8791,9.8689,9.8977,9.9816,9.9205,9.9259,10.0315,9.8761,9.7947,9.7947,9.7171,9.6783,9.6783,9.6783,9.6783,9.6783,9.6783,9.6783,6.6048,6.9781,7.2593,6.94,7.1825,7.4672,7.3476,0.0,0.0,0.0,0.0,0.0,0.0,0.0,0.0,0.0,0.0,0.0,0.0,0.0,0.0,0.0,0.0,0.0,0.0,0.0,0.0,0.0,0.0,0.0,0.0,0.0,10.1281,10.1281,10.1281,10.1281,10.1281,10.1281,10.1281,10.1281,10.1281,10.1092,10.0712,10.0296,9.9642,9.887,0.0,9.7983,9.7634,9.7634,9.7365,9.7016,9.748,9.7093,9.6285,9.6285,9.6285,9.6285,9.6285,9.6285,9.6247,9.5828,9.5713,9.5713,9.5713,9.5713,9.579,9.617,9.6285,9.6285,9.6285,9.6285,9.6285,9.6285,9.6285,9.6285,9.6285,9.6285,9.6285,9.6285,9.6285,9.6285,9.6285,9.667,9.6939,9.6939,9.7673,9.8211,9.8211,9.856,9.8985,9.9449,9.9486,9.9678,10.0094,9.9752,9.949,9.9501,10.0106,10.0492,10.0413,9.9214,9.8555,9.8555,9.7747,9.7112,9.6649,9.7112,9.7112,9.6649,9.6649,9.6649,6.5626,6.8784,7.1863,7.1822,0.0,7.7557,0.0,0.0,0.0,0.0,0.0,0.0,0.0,0.0,0.0,0.0,0.0,0.0,0.0,0.0,0.0,0.0,0.0,0.0,0.0,0.0,0.0,0.0,0.0,0.0,0.0,0.0,10.1281,10.1281,10.1281,10.1281,10.1281,10.1281,10.1281,10.1281,10.1281,10.1281,10.1284,10.0714,10.0296,10.0106,9.9372,9.8985,9.8793,9.8793,9.8291,9.7557,9.8214,9.7596,9.6285,9.6285,9.6285,9.6285,9.6285,9.6285,9.6285,9.6285,9.6285,9.6285,9.6285,9.6285,9.6285,9.6285,9.6439,9.6593,9.6593,9.6593,9.6632,9.6824,9.6903,9.6903,9.6903,9.6903,9.6826,9.6632,9.6593,9.6593,9.6593,9.7093,9.7557,9.7788,9.856,9.9101,9.9101,9.9252,9.9637,10.0293,10.0409,10.0599,10.1205,10.0712,10.0091,9.9505,10.0589,10.0988,10.0583,9.9776,9.9274,9.9043,9.8447,9.7686,9.6799,9.7455,9.7455,9.6799,9.6799,9.6683,6.8704,7.0167,7.1552,7.3857,0.0,0.0,0.0,0.0,0.0,0.0,0.0,0.0,0.0,0.0,0.0,0.0,0.0,0.0,0.0,0.0,0.0,0.0,0.0,0.0,0.0,0.0,0.0,0.0,0.0,0.0,0.0,0.0,0.0,10.1281,10.1281,10.1281,10.1281,10.1281,10.1281,10.1281,10.1281,10.1281,10.1281,10.1205,10.0789,10.0106,9.9988,9.9565,9.8793,9.8793,9.8291,9.7519,9.7557,9.7055,9.6285,9.6285,9.6285,9.6285,9.6285,9.6285,9.6285,9.6285,9.6285,9.6285,9.6285,9.6285,9.6285,9.6285,9.6824,9.7401,9.7401,9.7401,9.7632,9.8444,9.8637,9.8637,9.8637,9.8637,9.8368,9.7557,9.7401,9.7401,9.7401,9.7442,9.7788,9.8598,9.9449,9.9988,9.9988,10.0712,10.1089,10.1205,10.1205,10.1205,10.1281,10.1205,10.1209,10.1099,10.05,10.0591,10.1407,10.06,9.975,9.8939,9.8991,9.8576,9.7725,9.7763,9.7763,9.7725,9.7725,9.7262,6.7091,6.9477,7.2208,7.4203,0.0,0.0,0.0,0.0,0.0,0.0,0.0,0.0,0.0,0.0,0.0,0.0,0.0,0.0,0.0,0.0,0.0,0.0,0.0,0.0,0.0,0.0,0.0,0.0,0.0,0.0,0.0,0.0,0.0,10.1281,10.1281,10.1281,10.1281,10.1281,10.1281,10.1281,10.1281,10.1281,10.1281,10.1281,10.1092,10.0786,10.0786,10.0712,10.0404,10.0404,9.9865,9.9024,9.7904,9.798,9.8485,9.6863,9.6632,9.6978,9.6478,9.6285,9.6285,9.6285,9.6285,9.6285,9.6285,9.6285,9.6399,9.6901,9.7286,9.7516,9.7516,9.7904,9.8406,9.8714,9.8793,9.8793,9.8793,9.8793,9.8714,9.8368,9.8291,9.8291,9.8291,9.8755,9.9216,9.9565,10.0291,10.0786,10.0786,10.1092,10.1281,10.1281,10.1281,10.1281,10.1281,10.1281,10.1281,10.1281,10.1017,10.0996,10.1419,10.0618,9.9966,9.9655,9.9693,9.9288,9.8402,9.898,9.8941,9.8402,9.8402,9.8248,6.6744,6.9207,7.2246,0.0,0.0,0.0,0.0,0.0,0.0,0.0,0.0,0.0,0.0,0.0,0.0,0.0,0.0,0.0,0.0,0.0,0.0,0.0,0.0,0.0,0.0,0.0,0.0,0.0,0.0,0.0,0.0,0.0,0.0,0.0,10.1281,10.1281,10.1281,10.1281,10.1281,10.1281,10.1281,10.1281,10.1281,10.1281,10.1281,10.1281,10.1281,10.1281,10.1281,10.1281,10.0789,9.9913,9.8175,9.8214,9.9062,9.7326,9.6863,9.7093,9.6786,9.667,9.667,9.667,9.667,9.6747,9.7019,9.6901,9.6863,9.7673,9.8098,9.8327,9.8327,9.8755,9.9255,9.9522,9.9596,9.9596,9.9596,9.9596,9.9519,9.9255,9.9216,9.9216,9.9216,9.9719,10.018,10.0406,10.0902,10.1281,10.1281,10.1281,10.1281,10.1281,10.1281,10.1281,10.1281,10.1281,10.1281,10.1281,10.1281,10.1281,10.1281,10.0789,10.0411,10.0106,10.0293,10.0101,9.9216,9.9796,9.9796,9.9216,9.9216,9.9062,6.8624,6.9627,0.0,0.0,0.0,0.0,0.0,0.0,0.0,0.0,0.0,0.0,0.0,0.0,0.0,0.0,0.0,0.0,0.0,0.0,0.0,0.0,0.0,0.0,0.0,0.0,0.0,0.0,0.0,0.0,0.0,0.0,0.0,0.0,10.1281,10.1281,10.1281,10.1281,10.1281,10.1281,10.1281,10.1281,10.1281,10.1281,10.1281,10.1281,10.1281,10.1281,10.1281,10.1281,10.0789,9.995,9.8211,9.7519,9.7516,9.7519,9.7016,9.6439,9.725,9.7519,9.7519,9.7519,9.7519,9.767,9.8521,9.8211,9.7673,9.856,9.9447,10.0106,10.0106,10.0106,10.0296,10.1092,10.1281,10.1281,10.1281,10.1281,10.1094,10.0296,10.0106,10.0106,10.0106,10.0106,10.0409,10.1207,10.1281,10.1281,10.1281,10.1281,10.1281,10.1281,10.1281,10.1281,10.1281,10.1281,10.1281,10.1281,10.1281,10.1281,10.1281,10.1281,10.0902,10.0103,10.0902,10.0902,10.0106,10.0106,10.0106,10.0106,10.0106,9.9642,6.7013,6.9169,0.0,0.0,0.0,0.0,0.0,0.0,0.0,0.0,0.0,0.0,0.0,0.0,0.0,0.0,0.0,0.0,0.0,0.0,0.0,0.0,0.0,0.0,0.0,0.0,0.0,0.0,0.0,0.0,0.0,0.0,0.0,0.0,10.1281,10.1281,10.1281,10.1281,10.1281,10.1281,10.1281,10.1281,10.1281,10.1281,10.1281,10.1281,10.1281,10.1281,10.1281,10.1281,10.1209,10.0786,9.9752,9.9673,9.9976,9.817,9.8137,9.8832,9.7827,9.7904,9.8406,9.8406,9.8406,9.8444,9.8714,9.8637,9.8598,9.9488,9.9911,10.0219,10.0789,10.0902,10.1017,10.1205,10.1281,10.1281,10.1281,10.1281,10.1205,10.1017,10.0902,10.0902,10.0902,10.0902,10.1017,10.1284,10.1281,10.1281,10.1281,10.1281,10.1281,10.1281,10.1281,10.1281,10.1281,10.1281,10.1281,10.1281,10.1281,10.1281,10.1281,10.1281,10.1207,10.0902,10.1207,10.1207,10.0902,10.0902,10.0902,10.0902,10.0902,10.0786,6.9398,0.0,0.0,0.0,0.0,0.0,0.0,0.0,0.0,0.0,0.0,0.0,0.0,0.0,0.0,0.0,0.0,0.0,0.0,0.0,0.0,0.0,0.0,0.0,0.0,0.0,0.0,0.0,0.0,0.0,0.0,0.0,0.0,0.0,10.1281,10.1281,10.1281,10.1281,10.1281,10.1281,10.1281,10.1281,10.1281,10.1281,10.1281,10.1281,10.1281,10.1281,10.1281,10.1281,10.1281,10.1205,10.0409,10.0409,10.0594,9.9098,9.8985,9.9486,9.8791,9.887,9.9332,9.9332,9.9332,9.937,9.9714,9.956,9.9486,10.0291,10.0599,10.0712,10.1207,10.1281,10.1281,10.1281,10.1281,10.1281,10.1281,10.1281,10.1281,10.1281,10.1281,10.1281,10.1281,10.1281,10.1281,10.1281,10.1281,10.1281,10.1281,10.1281,10.1281,10.1281,10.1281,10.1281,10.1281,10.1281,10.1281,10.1281,10.1281,10.1281,10.1281,10.1281,10.1281,10.1281,10.1281,10.1281,10.1281,10.1281,10.1281,10.1281,10.1281,10.1281,0.0,0.0,0.0,0.0,0.0,0.0,0.0,0.0,0.0,0.0,0.0,0.0,0.0,0.0,0.0,0.0,0.0,0.0,0.0,0.0,0.0,0.0,0.0,0.0,0.0,0.0,0.0,0.0,0.0,0.0,0.0,0.0,0.0,0.0,10.1281,10.1281,10.1281,10.1281,10.1281,0.0,10.1281,10.1281,10.1281,10.1281,10.1281,10.1281,10.1281,10.1281,10.1281,10.1281,10.1281,10.1205,10.0483,10.0219,10.0219,10.0103,9.9642,9.9137,9.9834,10.0103,10.0219,10.0219,10.0219,10.0293,10.1094,10.0789,10.0409,10.1092,10.1281,10.1281,10.1281,10.1281,10.1281,10.1281,10.1281,10.1281,10.1281,10.1281,10.1281,10.1281,10.1281,10.1281,10.1281,10.1281,10.1281,10.1281,10.1281,10.1281,10.1281,10.1281,10.1281,10.1281,10.1281,10.1281,10.1281,10.1281,10.1281,10.1281,10.1281,10.1281,10.1281,10.1281,10.1281,10.1281,10.1281,10.1281,10.1281,10.1281,10.1281,10.1281,10.1281,10.1281,0.0,7.4556,0.0,0.0,0.0,0.0,0.0,0.0,0.0,0.0,0.0,0.0,0.0,0.0,0.0,0.0,0.0,0.0,0.0,0.0,0.0,0.0,0.0,0.0,0.0,0.0,0.0,0.0,0.0,0.0,0.0,0.0,0.0,10.1281,10.1281,10.1281,10.1281,10.1281,10.1281,0.0,10.1281,10.1281,10.1281,10.1281,10.1281,10.1281,10.1281,10.1281,10.1281,10.1281,10.1281,10.1281,10.1092,10.1015,10.1017,10.0293,10.0409,10.0709,10.0296,10.0483,10.1015,10.1015,10.1015,10.1094,10.1205,10.1207,10.1094,10.1284,10.1281,10.1281,10.1281,10.1281,10.1281,10.1281,10.1281,10.1281,10.1281,10.1281,10.1281,10.1281,10.1281,10.1281,10.1281,10.1281,10.1281,10.1281,10.1281,10.1281,10.1281,10.1281,10.1281,10.1281,10.1281,10.1281,10.1281,10.1281,10.1281,10.1281,10.1281,10.1281,10.1281,10.1281,10.1281,10.1281,10.1281,10.1281,10.1281,10.1281,10.1281,10.1281,10.1281,10.1281,0.0,0.0,0.0,0.0,0.0,0.0,0.0,0.0,0.0,0.0,0.0,0.0,0.0,0.0,0.0,0.0,0.0,0.0,0.0,0.0,0.0,0.0,0.0,0.0,0.0,0.0,0.0,0.0,0.0,0.0,0.0,10.0481,10.0712,10.0712,10.1092,10.1281,10.1281,10.1281,10.1281,10.1281,10.1281,10.1281,10.1281,10.0902,10.0712,10.0712,10.0712,10.0712,10.0791,10.1092,10.1281,10.1281,10.1281,10.1281,10.1205,10.0789,10.0902,10.1205,10.0789,10.0902,10.1281,10.1281,10.1281,10.1281,10.1281,10.1281,10.1281,10.1281,10.1281,10.1281,10.1281,10.1281,10.1281,10.1281,10.1281,10.1281,10.1281,10.1281,10.1281,10.1281,10.1281,10.1281,10.1281,10.1281,10.1281,10.1281,10.1281,10.1281,10.1281,10.1281,10.1281,10.1281,10.1281,10.1281,10.1281,10.1281,10.1281,10.1281,10.1281,10.1281,10.1281,10.1281,10.1281,10.1281,10.1281,10.1281,10.1281,10.1281,10.1281,10.1281,10.1281,10.1281,7.4361,0.0,8.3555,0.0,0.0,0.0,0.0,0.0,0.0,0.0,0.0,0.0,0.0,0.0,0.0,0.0,0.0,0.0,0.0,0.0,0.0,0.0,0.0,0.0,0.0,0.0,0.0,0.0,0.0,0.0,9.8868,9.9486,9.9873,9.9873,10.0712,10.1092,10.1092,10.1205,10.1281,10.1281,10.1281,10.1205,10.1094,10.0214,9.9986,10.0296,9.9988,9.995,10.0183,10.0789,10.1092,10.1092,10.1205,10.1281,10.1281,10.1281,10.1281,10.1281,10.1281,10.1281,10.1281,10.1281,10.1281,10.1281,10.1281,10.1281,10.1281,10.1281,10.1281,10.1281,10.1281,10.1281,10.1281,10.1281,10.1281,10.1281,10.1281,10.1281,10.1281,10.1281,10.1281,10.1281,10.1281,10.1281,10.1281,10.1281,10.1281,10.1281,10.1281,10.1281,10.1281,10.1281,10.1281,10.1281,10.1281,10.1281,10.1281,10.1281,10.1281,10.1281,10.1281,10.1281,10.1281,10.1281,10.1281,10.1281,10.1281,10.1281,10.1281,10.1281,10.1281,10.1281,0.0,0.0,8.371,0.0,9.1785,0.0,0.0,0.0,0.0,0.0,0.0,0.0,0.0,0.0,0.0,0.0,0.0,0.0,0.0,0.0,0.0,0.0,0.0,0.0,0.0,0.0,0.0,0.0,0.0,0.0,9.8868,9.8906,9.8985,9.8985,9.9793,10.0296,10.0296,10.0981,10.1281,10.1281,10.1281,10.0902,10.0216,9.937,9.9788,10.1094,9.9599,9.9411,10.0106,10.0219,10.0296,10.0293,10.1017,10.1281,10.1281,10.1281,10.1281,10.1281,10.1281,10.1281,10.1281,10.1281,10.1281,10.1281,10.1281,10.1281,10.1281,10.1281,10.1281,10.1281,10.1281,10.1281,10.1281,10.1281,10.1281,10.1281,10.1281,10.1281,10.1281,10.1281,10.1281,10.1281,10.1281,10.1281,10.1281,10.1281,10.1281,10.1281,10.1281,10.1281,10.1281,10.1281,10.1281,10.1281,10.1281,10.1281,10.1281,10.1281,10.1281,10.1281,10.1281,10.1281,10.1281,10.1281,10.1281,10.1281,10.1281,10.1281,10.1281,10.1281,10.1281,10.1281,7.2554,7.8094,8.3632,0.0,9.1129,9.2095,0.0,0.0,0.0,0.0,0.0,0.0,0.0,0.0,0.0,0.0,0.0,0.0,0.0,0.0,0.0,0.0,0.0,0.0,0.0,0.0,0.0,0.0,0.0,9.8291,9.7442,9.7827,9.8057,9.8057,9.8908,9.9603,10.0106,9.9983,9.9904,9.9904,10.0404,10.0214,9.937,9.8985,9.8942,9.9132,9.8404,9.8291,9.8714,9.9719,10.0106,10.018,10.1017,10.1281,10.1281,10.1281,10.1281,10.1281,10.1281,10.1281,10.1281,10.1281,10.1281,10.1281,10.1281,10.1281,10.1281,10.1281,10.1281,10.1281,10.1281,10.1281,10.1281,10.1281,10.1281,10.1281,10.1281,10.1281,10.1281,10.1281,10.1281,10.1281,10.1281,10.1281,10.1281,10.1281,10.1281,10.1281,10.1281,10.1281,10.1281,10.1281,10.1281,10.1281,10.1281,10.1281,10.1281,10.1281,10.1281,10.1281,10.1281,10.1281,10.1281,10.1281,10.1281,10.1281,10.1281,10.1281,10.1281,10.1281,10.1281,10.1281,0.0,0.0,8.1321,8.6626,8.9284,9.0864,0.0,0.0,0.0,0.0,0.0,0.0,0.0,0.0,0.0,0.0,0.0,0.0,0.0,0.0,0.0,0.0,0.0,0.0,0.0,0.0,0.0,0.0,0.0,9.7132,9.6322,9.6863,9.7209,9.7209,9.8019,9.8791,9.9447,9.9024,9.8793,9.8793,9.9449,9.9293,9.8483,9.8483,9.8019,9.7209,9.7209,9.7324,9.7632,9.9139,9.9757,9.9873,10.0902,10.1281,10.1281,10.1281,10.1281,10.1281,10.1281,10.1281,10.1281,10.1281,10.1281,10.1281,10.1281,10.1281,10.1281,10.1281,10.1281,10.1281,10.1281,10.1281,10.1281,10.1281,10.1281,10.1281,10.1281,10.1281,10.1281,10.1281,10.1281,10.1281,10.1281,10.1281,10.1281,10.1281,10.1281,10.1281,10.1281,10.1281,10.1281,10.1281,10.1281,10.1281,10.1281,10.1281,10.1281,10.1281,10.1281,10.1281,10.1281,10.1281,10.1281,10.1281,10.1281,10.1281,10.1281,10.1281,10.1281,10.1281,10.1281,10.1281,0.0,7.201,0.0,8.1246,8.579,0.0,0.0,0.0,0.0,0.0,0.0,0.0,0.0,0.0,0.0,0.0,0.0,0.0,0.0,0.0,0.0,0.0,0.0,0.0,0.0,0.0,0.0,0.0,0.0,9.7132,9.6322,9.6322,9.6362,9.6362,9.7132,9.7596,9.7634,9.8406,9.8793,9.8793,9.8868,9.8406,9.7557,9.7557,9.7132,9.6362,9.6362,9.6786,9.7557,9.8483,9.887,9.9024,10.0709,10.1281,10.1281,10.1281,10.1281,10.1281,10.1281,10.1281,10.1281,10.1281,10.1281,10.1281,10.1281,10.1281,10.1281,10.1281,10.1281,10.1281,10.1281,10.1281,10.1281,10.1281,10.1281,10.1281,10.1281,10.1281,10.1281,10.1281,10.1281,10.1281,10.1281,10.1281,10.1281,10.1281,10.1281,10.1281,10.1281,10.1281,10.1281,10.1281,10.1281,10.1281,10.1281,10.1281,10.1281,10.1281,10.1281,10.1281,10.1281,10.1281,10.1281,10.1281,10.1281,10.1281,10.1281,10.1281,10.1281,10.1281,10.1281,10.1281,0.0,0.0,0.0,7.8404,8.2251,8.5174,8.7438,0.0,0.0,0.0,0.0,0.0,0.0,0.0,0.0,0.0,0.0,0.0,0.0,0.0,0.0,0.0,0.0,0.0,0.0,0.0,0.0,0.0,0.0,0.0,9.6324,9.6285,9.6285,9.6285,9.6593,9.6747,9.6747,9.7557,9.7711,9.7211,9.7711,9.7519,9.6747,9.7247,9.7055,9.6285,9.6285,9.6476,9.6786,9.7632,9.798,9.8134,9.9868,10.0483,10.0599,10.1092,10.1281,10.1281,10.1281,10.1281,10.1281,10.1281,10.1281,10.1281,10.1281,10.1281,10.1281,10.1281,10.1281,10.1281,10.1281,10.1281,10.1281,10.1281,10.1281,10.1281,10.1281,10.1281,10.1281,10.1281,10.1281,10.1281,10.1281,10.1281,10.1281,10.1281,10.1281,10.1281,10.1281,10.1281,10.1281,10.1281,10.1281,10.1281,10.1281,10.1281,10.1281,10.1281,10.1281,10.1281,10.1281,10.1281,10.1281,10.1281,10.1281,10.1281,10.1281,10.1281,10.1281,10.1281,10.1281,10.1281,6.4749,0.0,0.0,0.0,0.0,8.1285,8.5555,0.0,0.0,0.0,0.0,0.0,0.0,0.0,0.0,0.0,0.0,0.0,0.0,0.0,0.0,0.0,0.0,0.0,0.0,0.0,0.0,0.0,0.0,0.0,9.6285,9.6285,9.6285,9.6285,9.6285,9.6285,9.6285,9.6824,9.6824,9.6324,9.6824,9.6824,9.6324,9.6863,9.6939,9.667,9.6439,9.6285,9.6362,9.7173,9.7516,9.7634,9.9101,9.9834,10.018,10.0712,10.1094,10.1281,10.1281,10.1281,10.1281,10.1281,10.1281,10.1281,10.1281,10.1281,10.1281,10.1281,10.1281,10.1281,10.1281,10.1281,10.1281,10.1281,10.1281,10.1281,10.1281,10.1281,10.1281,10.1281,10.1281,10.1281,10.1281,10.1281,10.1281,10.1281,10.1281,10.1281,10.1281,10.1281,10.1281,10.1281,10.1281,10.1281,10.1281,10.1281,10.1281,10.1281,10.1281,10.1281,10.1281,10.1281,10.1281,10.1281,10.1281,10.1281,10.1281,10.1281,10.1281,10.1281,10.1281,10.1281,0.0,0.0,0.0,0.0,0.0,0.0,8.5326,0.0,0.0,0.0,0.0,0.0,0.0,0.0,0.0,0.0,0.0,0.0,0.0,0.0,0.0,0.0,0.0,0.0,0.0,0.0,0.0,0.0,0.0,9.6285,9.6285,9.6285,9.6285,9.6285,9.6285,9.6285,9.6285,9.6285,9.6285,9.6285,9.6285,9.6285,9.6285,9.6285,9.6747,9.7401,9.6632,9.6285,9.6362,9.7132,9.7442,9.7555,9.8444,9.9332,10.0106,10.0103,10.0599,10.1281,10.1281,10.1281,10.1281,10.1281,10.1281,10.1281,10.1281,10.1281,10.1281,10.1281,10.1281,10.1281,10.1281,10.1281,10.1281,10.1281,10.1281,10.1281,10.1281,10.1281,10.1281,10.1281,10.1281,10.1281,10.1281,10.1281,10.1281,10.1281,10.1281,10.1281,10.1281,10.1281,10.1281,10.1281,10.1281,10.1281,10.1281,10.1281,10.1281,10.1281,10.1281,10.1281,10.1281,10.1281,10.1281,10.1281,10.1281,10.1281,10.1281,10.1281,10.1281,10.1281,10.1281,10.1281,6.1093,0.0,0.0,0.0,0.0,0.0,0.0,0.0,0.0,0.0,0.0,0.0,0.0,0.0,0.0,0.0,0.0,0.0,0.0,0.0,0.0,0.0,0.0,0.0,0.0,0.0,0.0,0.0,9.6285,9.6285,9.6285,9.6285,9.6285,9.6285,9.6285,9.6285,9.6285,9.6285,9.6285,9.6285,9.6285,9.6285,9.6285,9.6285,9.6439,9.6632,9.6399,9.6285,9.6324,9.6555,9.6629,9.6786,9.8214,9.8947,9.9293,10.0517,10.1092,10.1281,10.1281,10.1281,10.1281,10.1281,10.1281,10.1281,10.1281,10.1281,10.1281,10.1281,10.1281,10.1281,10.1281,10.1281,10.1281,10.1281,10.1281,10.1281,10.1281,10.1281,10.1281,10.1281,10.1281,10.1281,10.1281,10.1281,10.1281,10.1281,10.1281,10.1281,10.1281,10.1281,10.1281,10.1281,10.1281,10.1281,10.1281,10.1281,10.1281,10.1281,10.1281,10.1281,10.1281,10.1281,10.1281,10.1281,10.1281,10.1281,10.1281,10.1281,10.1281,10.1281,10.1281,10.1281,0.0,0.0,0.0,0.0,0.0,0.0,0.0,7.6901,0.0,0.0,0.0,0.0,0.0,0.0,0.0,0.0,0.0,0.0,0.0,0.0,0.0,0.0,0.0,0.0,0.0,0.0,0.0,9.6285,9.6285,9.6285,9.6285,9.6285,9.6285,9.6285,9.6285,9.6285,9.6285,9.6285,9.6285,9.6285,9.6285,9.6285,9.6285,9.6285,9.6478,9.6786,9.6439,9.6478,9.6786,9.6439,9.6285,9.6439,9.775,9.8483,9.8945,10.0289,10.1017,10.1281,10.1281,10.1281,10.1281,10.1281,10.1281,10.1281,10.1281,10.1281,10.1281,10.1281,10.1281,10.1281,10.1281,10.1281,10.1281,10.1281,10.1281,10.1281,10.1281,10.1281,10.1281,10.1281,10.1281,10.1281,10.1281,10.1281,10.1281,10.1281,10.1281,10.1281,10.1281,10.1281,10.1281,10.1281,10.1281,10.1281,10.1281,10.1281,10.1281,10.1281,10.1281,10.1281,10.1281,10.1281,10.1281,10.1281,10.1281,10.1281,10.1281,10.1281,10.1281,10.1281,10.1281,10.1281,6.2364,0.0,0.0,0.0,0.0,0.0,7.5405,7.6365,7.74,0.0,0.0,0.0,0.0,0.0,0.0,0.0,0.0,0.0,0.0,0.0,0.0,0.0,0.0,0.0,9.6285,9.6285,9.6285,9.6285,9.6285,9.6285,9.6285,9.6285,9.6285,9.6285,9.6285,9.6285,9.6285,9.6285,9.6285,9.6285,9.6285,9.6285,9.6285,9.6285,9.6706,9.7324,9.6593,9.6709,9.7324,9.6593,9.636,9.6514,9.7324,9.8175,9.9062,9.9911,10.0712,10.1281,10.1281,10.1281,10.1281,10.1281,10.1281,10.1281,10.1281,10.1281,10.1281,10.1281,10.1281,10.1281,10.1281,10.1281,10.1281,10.1281,10.1281,10.1281,10.1281,10.1281,10.1281,10.1281,10.1281,10.1281,10.1281,10.1281,10.1281,10.1281,10.1281,10.1281,10.1281,10.1281,10.1281,10.1281,10.1281,10.1281,10.1281,10.1281,10.1281,10.1281,10.1281,10.1281,10.1281,10.1281,10.1281,10.1281,10.1281,10.1281,10.1281,10.1281,10.1281,10.1281,10.1281,10.1281,6.4128,6.4631,0.0,0.0,0.0,0.0,0.0,7.1209,7.4095,0.0,0.0,0.0,0.0,0.0,0.0,0.0,0.0,0.0,0.0,0.0,0.0,0.0,0.0,0.0,9.6285,9.6285,9.6285,9.6285,9.6285,9.6285,9.6285,9.6285,9.6285,9.6285,9.6285,9.6285,9.6285,9.6285,9.6285,9.6285,9.6285,9.6285,9.6285,9.6285,9.6401,9.6516,9.6362,9.6401,9.6514,9.6362,9.667,9.7365,9.8214,9.9062,9.995,10.0789,10.1207,10.1281,10.1281,10.1281,10.1281,10.1281,10.1281,10.1281,10.1281,10.1281,10.1281,10.1281,10.1281,10.1281,10.1281,10.1281,10.1281,10.1281,10.1281,10.1281,10.1281,10.1281,10.1281,10.1281,10.1281,10.1281,10.1281,10.1281,10.1281,10.1281,10.1281,10.1281,10.1281,10.1281,10.1281,10.1281,10.1281,10.1281,10.1281,10.1281,10.1281,10.1281,10.1281,10.1281,10.1281,10.1281,10.1281,10.1281,10.1281,10.1281,10.1281,10.1281,10.1281,10.1281,10.1281,10.1281,6.4934,6.5243,0.0,6.6396,0.0,0.0,0.0,0.0,0.0,0.0,0.0,0.0,0.0,0.0,0.0,0.0,0.0,0.0,0.0,0.0,0.0,0.0,0.0,0.0,9.6247,9.5903,9.5828,9.6285,9.6285,9.6285,9.6285,9.6285,9.6285,9.6285,9.6285,9.6285,9.6285,9.6285,9.6285,9.6285,9.6285,9.6285,9.6285,9.6285,9.6285,9.6285,9.6285,9.6516,9.6863,9.6478,9.7288,9.8793,9.8793,9.9062,9.9601,10.0784,10.1281,10.1281,10.1281,10.1281,10.1281,10.1281,10.1281,10.1281,10.1281,10.1281,10.1281,10.1281,10.1281,10.1281,10.1281,10.1281,10.1281,10.1281,10.1281,10.1281,10.1281,10.1281,10.1281,10.1281,10.1281,10.1281,10.1281,10.1281,10.1281,10.1281,10.1281,10.1281,10.1281,10.1281,10.1281,10.1281,10.1281,10.1281,10.1281,10.1281,10.1281,10.1281,10.1281,10.1281,10.1281,10.1281,10.1281,10.1281,10.1281,10.1281,10.1281,10.1281,10.1281,10.1281,10.1281,10.1281,0.0,0.0,0.0,0.0,0.0,6.8595,0.0,0.0,0.0,0.0,0.0,0.0,0.0,0.0,0.0,0.0,0.0,0.0,0.0,0.0,0.0,0.0,0.0,0.0,0.0,9.4792,9.4677,9.5708,9.5514,9.5478,9.5785,9.5978,9.6057,9.6057,9.6209,9.6285,9.6285,9.6285,9.6285,9.6285,9.6285,9.6285,9.6285,9.6285,9.6285,9.6285,9.6285,9.6747,9.744,9.6786,9.7827,9.9796,9.9062,9.8983,9.9442,10.0784,10.1281,10.1281,10.1281,10.1281,10.1281,10.1281,10.1281,10.1281,10.1281,10.1281,10.1281,10.1281,10.1281,10.1281,10.1281,10.1281,10.1281,10.1281,10.1281,10.1281,10.1281,10.1281,10.1281,10.1281,10.1281,10.1281,10.1281,10.1281,10.1281,10.1281,10.1281,10.1281,10.1281,10.1281,10.1281,10.1281,10.1281,10.1281,10.1281,10.1281,10.1281,10.1281,10.1281,10.1281,10.1281,10.1281,10.1281,10.1281,10.1281,10.1281,10.1281,10.1281,10.1281,10.1281,10.1281,10.1281,0.0,0.0,0.0,0.0,7.3324,0.0,0.0,0.0,0.0,0.0,0.0,0.0,0.0,0.0,0.0,0.0,0.0,0.0,0.0,0.0,0.0,0.0,0.0,0.0,0.0,9.2133,9.2285,9.3867,9.2631,9.2439,9.3907,9.4717,9.5143,9.5143,9.5903,9.6285,9.6285,9.6285,9.6285,9.6285,9.6285,9.6285,9.6285,9.6285,9.6285,9.6285,9.6285,9.6747,9.7478,9.7403,9.7983,9.8947,9.8829,9.9712,10.1012,10.1205,10.1281,10.1281,10.1281,10.1281,10.1281,10.1281,10.1281,10.1281,10.1281,10.1281,10.1281,10.1281,10.1281,10.1281,10.1281,10.1281,10.1281,10.1281,10.1281,10.1281,10.1281,10.1281,10.1281,10.1281,10.1281,10.1281,10.1281,10.1281,10.1281,10.1281,10.1281,10.1281,10.1281,10.1281,10.1281,10.1281,10.1281,10.1281,10.1281,10.1281,10.1281,10.1281,10.1281,10.1281,10.1281,10.1281,10.1281,10.1281,10.1281,10.1281,10.1281,10.1281,10.1281,10.1281,10.1281,10.1281,0.0,0.0,0.0,0.0,0.0,0.0,0.0,0.0,6.8901,0.0,0.0,0.0,0.0,0.0,0.0,0.0,0.0,0.0,0.0,0.0,0.0,0.0,0.0,0.0,0.0,0.0,0.0,0.0,9.1129,9.1206,9.2905,9.4256,9.4989,9.4989,9.5865,9.6285,9.6285,9.6285,9.6285,9.6285,9.6285,9.6285,9.6285,9.6285,9.6285,9.6285,9.6285,9.7055,9.8214,9.7711,9.8596,10.0209,9.9755,9.9986,10.0714,10.1092,10.1281,10.1281,10.1281,10.1281,10.1281,10.1281,10.1281,10.1281,10.1281,10.1281,10.1281,10.1281,10.1281,10.1281,10.1281,10.1281,10.1281,10.1281,10.1281,10.1281,10.1281,10.1281,10.1281,10.1281,10.1281,10.1281,10.1281,10.1281,10.1281,10.1281,10.1281,10.1281,10.1281,10.1281,10.1281,10.1281,10.1281,10.1281,10.1281,10.1281,10.1281,10.1281,10.1281,10.1281,10.1281,10.1281,10.1281,10.1281,10.1281,10.1281,10.1281,10.1281,10.1281,10.1281,10.1281,10.1281,7.5097,0.0,0.0,0.0,0.0,0.0,0.0,0.0,0.0,0.0,0.0,0.0,0.0,0.0,0.0,0.0,0.0,0.0,0.0,0.0,0.0,0.0,0.0,0.0,0.0,0.0,0.0,0.0,0.0,8.9246,9.1669,9.3407,9.441,9.4643,9.5711,9.6285,9.6285,9.6285,9.6285,9.6285,9.6285,9.6285,9.6285,9.6285,9.6439,9.6632,9.6399,9.725,9.8755,9.8137,9.9094,10.0902,10.0599,10.0409,10.0483,10.1092,10.1281,10.1281,10.1281,10.1281,10.1281,10.1281,10.1281,10.1281,10.1281,10.1281,10.1281,10.1281,10.1281,10.1281,10.1281,10.1281,10.1281,10.1281,10.1281,10.1281,10.1281,10.1281,10.1281,10.1281,10.1281,10.1281,10.1281,10.1281,10.1281,10.1281,10.1281,10.1281,10.1281,10.1281,10.1281,10.1281,10.1281,10.1281,10.1281,10.1281,10.1281,10.1281,10.1281,10.1281,10.1281,10.1281,10.1281,10.1281,10.1281,10.1281,10.1281,10.1281,10.1281,10.1281,10.1281,10.1281,0.0,0.0,0.0,0.0,0.0,0.0,0.0,0.0,7.1014,0.0,0.0,0.0,0.0,0.0,0.0,0.0,0.0,0.0,0.0,0.0,0.0,0.0,0.0,0.0,0.0,0.0,0.0,0.0,0.0,0.0,8.9742,9.1631,9.2943,9.3715,9.5403,9.6285,9.6285,9.6285,9.6285,9.6285,9.6285,9.6285,9.6285,9.6285,9.6709,9.7401,9.6632,9.725,9.8793,9.8752,9.9293,10.0219,10.1017,10.1284,10.1284,10.1281,10.1281,10.1281,10.1281,10.1281,10.1281,10.1281,10.1281,10.1281,10.1281,10.1281,10.1281,10.1281,10.1281,10.1281,10.1281,10.1281,10.1281,10.1281,10.1281,10.1281,10.1281,10.1281,10.1281,10.1281,10.1281,10.1281,10.1281,10.1281,10.1281,10.1281,10.1281,10.1281,10.1281,10.1281,10.1281,10.1281,10.1281,10.1281,10.1281,10.1281,10.1281,10.1281,10.1281,10.1281,10.1281,10.1281,10.1281,10.1281,10.1281,10.1281,10.1281,10.1281,10.1281,10.1281,10.1281,10.1281,0.0,0.0,8.3004,7.7581,0.0,0.0,0.0,0.0,0.0,0.0,0.0,0.0,0.0,0.0,0.0,0.0,0.0,0.0,0.0,0.0,0.0,0.0,0.0,0.0,0.0,0.0,0.0,0.0,8.4634,0.0,0.0,9.0943,9.2635,9.2905,9.4561,9.5713,9.6283,9.6285,9.6285,9.6285,9.6285,9.6285,9.6285,9.6285,9.6439,9.6706,9.6439,9.6901,9.798,9.856,9.9293,10.018,10.1017,10.1281,10.1281,10.1281,10.1281,10.1281,10.1281,10.1281,10.1281,10.1281,10.1281,10.1281,10.1281,10.1281,10.1281,10.1281,10.1281,10.1281,10.1281,10.1281,10.1281,10.1281,10.1281,10.1281,10.1281,10.1281,10.1281,10.1281,10.1281,10.1281,10.1281,10.1281,10.1281,10.1281,10.1281,10.1281,10.1281,10.1281,10.1281,10.1281,10.1281,10.1281,10.1281,10.1281,10.1281,10.1281,10.1281,10.1281,10.1281,10.1281,10.1281,10.1281,10.1281,10.1281,10.1281,10.1281,10.1281,10.1281,10.1281,10.1281,8.188,8.3401,0.0,0.0,7.84,0.0,0.0,0.0,0.0,0.0,0.0,0.0,0.0,0.0,0.0,0.0,0.0,0.0,0.0,0.0,0.0,0.0,0.0,0.0,0.0,0.0,8.0479,8.337,8.3285,0.0,0.0,0.0,9.1979,9.2905,9.4294,9.5408,9.6283,9.6285,9.6439,9.6709,9.6439,9.6439,9.6709,9.6439,9.6476,9.6747,9.6747,9.7209,9.8019,9.8906,9.9603,10.018,10.1017,10.1281,10.1281,10.1281,10.1281,10.1281,10.1281,10.1281,10.1281,10.1281,10.1281,10.1281,10.1281,10.1281,10.1281,10.1281,10.1281,10.1281,10.1281,10.1281,10.1281,10.1281,10.1281,10.1281,10.1281,10.1281,10.1281,10.1281,10.1281,10.1281,10.1281,10.1281,10.1281,10.1281,10.1281,10.1281,10.1281,10.1281,10.1281,10.1281,10.1281,10.1281,10.1281,10.1281,10.1281,10.1281,10.1281,10.1281,10.1281,10.1281,10.1281,10.1281,10.1281,10.1281,10.1281,10.1281,10.1281,10.1281,10.1281,10.1281]},{"header":{"parameterUnit":"m.s-1","parameterCategory":1,"la1":30.6,"la2":29.2853,"lo1":-89.7004,"lo2":-87.6739,"dy":0.0162,"dx":0.0183,"nx":112,"ny":82,"refTime":"2024-11-27T06:00:00:Z","depth":0,"parameterNumber":3,"parameterNumberName":"V-component_of_WINDS"},"data":[0.0,0.0,0.0,0.0,0.0,0.0,0.0,0.0,0.0,0.0,0.0,0.0,0.0,0.0,0.0,0.0,0.0,0.0,0.0,0.0,0.0,0.0,0.0,0.0,0.0,0.0,0.0,0.0,0.0,0.0,0.0,0.0,0.0,0.0,0.0,0.0,0.0,0.0,0.0,0.0,0.0,0.0,0.0,0.0,0.0,0.0,0.0,0.0,0.0,0.0,0.0,0.0,0.0,0.0,0.0,0.0,0.0,0.0,0.0,0.0,0.0,0.0,0.0,0.0,0.0,0.0,0.0,0.0,0.0,0.0,0.0,0.0,0.0,0.0,0.0,0.0,0.0,0.0,0.0,0.0,0.0,0.0,0.0,0.0,0.0,0.0,0.0,0.0,0.0,0.0,0.0,0.0,0.0,0.0,0.0,0.0,0.0,0.0,0.0,0.0,0.0,0.0,0.0,0.0,0.0,0.0,0.0,0.0,0.0,0.0,0.0,0.0,0.0,0.0,0.0,0.0,0.0,0.0,0.0,0.0,0.0,0.0,0.0,0.0,0.0,0.0,0.0,0.0,0.0,0.0,0.0,0.0,0.0,0.0,0.0,0.0,0.0,0.0,0.0,0.0,0.0,0.0,0.0,0.0,0.0,0.0,0.0,0.0,0.0,0.0,0.0,0.0,0.0,0.0,0.0,0.0,0.0,0.0,0.0,0.0,0.0,0.0,0.0,0.0,0.0,0.0,0.0,0.0,0.0,0.0,0.0,0.0,0.0,0.0,0.0,0.0,0.0,0.0,0.0,0.0,0.0,0.0,0.0,0.0,0.0,0.0,0.0,0.0,0.0,0.0,0.0,0.0,0.0,0.0,0.0,0.0,0.0,0.0,0.0,0.0,0.0,0.0,0.0,0.0,0.0,0.0,0.0,0.0,0.0,0.0,0.0,0.0,0.0,0.0,0.0,0.0,0.0,0.0,0.0,0.0,0.0,0.0,0.0,0.0,0.0,0.0,0.0,0.0,0.0,0.0,0.0,0.0,0.0,0.0,0.0,0.0,0.0,0.0,0.0,0.0,0.0,0.0,0.0,0.0,0.0,0.0,0.0,0.0,0.0,0.0,0.0,0.0,0.0,0.0,0.0,0.0,0.0,0.0,0.0,0.0,0.0,0.0,0.0,0.0,0.0,0.0,0.0,0.0,0.0,0.0,0.0,0.0,0.0,0.0,0.0,0.0,0.0,0.0,0.0,0.0,0.0,0.0,0.0,0.0,0.0,0.0,0.0,0.0,0.0,0.0,0.0,0.0,0.0,0.0,0.0,0.0,0.0,0.0,0.0,0.0,0.0,0.0,0.0,0.0,0.0,0.0,0.0,0.0,0.0,0.0,0.0,0.0,0.0,0.0,0.0,0.0,0.0,0.0,0.0,0.0,0.0,0.0,0.0,0.0,0.0,0.0,0.0,0.0,0.0,0.0,0.0,0.0,0.0,0.0,0.0,0.0,0.0,0.0,0.0,0.0,0.0,0.0,0.0,0.0,0.0,0.0,0.0,0.0,0.0,0.0,0.0,0.0,0.0,0.0,0.0,0.0,0.0,0.0,0.0,0.0,0.0,0.0,0.0,0.0,0.0,0.0,0.0,0.0,0.0,0.0,0.0,0.0,0.0,0.0,0.0,0.0,0.0,0.0,0.0,0.0,0.0,0.0,0.0,0.0,0.0,0.0,0.0,0.0,0.0,0.0,0.0,0.0,0.0,0.0,0.0,0.0,0.0,0.0,0.0,0.0,0.0,0.0,0.0,0.0,0.0,0.0,0.0,0.0,0.0,0.0,0.0,0.0,0.0,0.0,0.0,0.0,0.0,0.0,0.0,0.0,0.0,0.0,0.0,0.0,0.0,0.0,0.0,0.0,0.0,0.0,0.0,0.0,0.0,0.0,0.0,0.0,0.0,0.0,0.0,0.0,0.0,0.0,0.0,0.0,0.0,0.0,0.0,0.0,0.0,0.0,0.0,0.0,0.0,0.0,0.0,0.0,0.0,0.0,0.0,0.0,0.0,0.0,0.0,0.0,0.0,0.0,0.0,0.0,0.0,0.0,0.0,0.0,0.0,0.0,0.0,0.0,0.0,0.0,0.0,0.0,0.0,0.0,0.0,0.0,0.0,0.0,0.0,0.0,0.0,0.0,0.0,0.0,0.0,0.0,0.0,0.0,0.0,0.0,0.0,0.0,0.0,0.0,0.0,0.0,0.0,0.0,0.0,0.0,0.0,0.0,0.0,0.0,0.0,0.0,0.0,0.0,0.0,0.0,0.0,0.0,0.0,0.0,0.0,0.0,0.0,0.0,0.0,0.0,0.0,0.0,0.0,0.0,0.0,0.0,0.0,0.0,0.0,0.0,0.0,0.0,0.0,0.0,0.0,0.0,0.0,0.0,0.0,0.0,0.0,0.0,0.0,0.0,0.0,0.0,0.0,0.0,0.0,0.0,0.0,0.0,0.0,0.0,0.0,0.0,0.0,0.0,0.0,0.0,0.0,0.0,0.0,0.0,0.0,0.0,0.0,0.0,0.0,0.0,0.0,0.0,0.0,0.0,0.0,0.0,0.0,0.0,0.0,0.0,0.0,0.0,0.0,0.0,0.0,0.0,0.0,0.0,0.0,0.0,0.0,0.0,0.0,0.0,0.0,0.0,0.0,0.0,0.0,0.0,0.0,0.0,0.0,0.0,0.0,0.0,0.0,0.0,0.0,0.0,0.0,0.0,0.0,0.0,0.0,0.0,0.0,0.0,0.0,0.0,0.0,0.0,0.0,0.0,0.0,0.0,0.0,0.0,0.0,0.0,0.0,0.0,0.0,0.0,0.0,0.0,0.0,0.0,0.0,0.0,0.0,0.0,0.0,0.0,0.0,0.0,0.0,0.0,0.0,0.0,0.0,0.0,0.0,0.0,0.0,0.0,0.0,0.0,0.0,0.0,0.0,0.0,0.0,0.0,0.0,0.0,0.0,0.0,0.0,0.0,0.0,0.0,0.0,0.0,0.0,0.0,0.0,0.0,0.0,0.0,0.0,0.0,0.0,0.0,0.0,0.0,0.0,0.0,0.0,0.0,0.0,0.0,0.0,0.0,0.0,0.0,0.0,0.0,0.0,0.0,0.0,0.0,0.0,0.0,0.0,0.0,0.0,0.0,0.0,0.0,0.0,0.0,0.0,0.0,0.0,0.0,0.0,0.0,0.0,0.0,0.0,0.0,0.0,0.0,0.0,0.0,0.0,0.0,0.0,0.0,0.0,0.0,0.0,0.0,0.0,0.0,0.0,0.0,0.0,0.0,0.0,0.0,0.0,0.0,0.0,0.0,0.0,0.0,0.0,0.0,0.0,0.0,0.0,0.0,0.0,0.0,0.0,0.0919,0.32,0.1312,0.0,0.0,0.0,0.0,0.0,0.0,0.0,0.0,0.0,0.0,0.0,0.0,0.0,0.0,0.0,0.0,0.0,0.0,0.0,0.0,0.0,0.0,0.0,0.0,0.0,0.0,0.0,0.0,0.0,0.0,0.0,0.0,0.0,0.0,0.0,0.0,0.0,0.0,0.0,0.0,0.0,0.0,0.0,0.0,0.0,0.0,0.0,0.0,0.0,0.0,0.0,0.0,0.0,0.0,0.0,0.0,0.0,0.0,0.0,0.0,0.0,0.0,0.0,0.0,0.0,0.0,0.0,0.0,0.0,0.0,0.0,0.0,0.0,0.0,0.0,0.0,0.0,0.0,0.0,0.0,0.0,0.0,0.0,0.0,0.0,0.0,0.0,0.0,0.0,0.0,0.0,0.0,0.0,0.0,0.0,0.0,0.0,0.0,0.0,0.0,0.0,0.0,0.0,0.0,0.0125,0.0091,0.0063,0.0064,0.0064,0.293,1.0041,0.4167,0.0084,0.0,0.0,0.0,0.0,0.0,0.0,0.0,0.0,0.0,0.0,0.0,0.0,0.0,0.0,0.0,0.0,0.0,0.0,0.0,0.0,0.0,0.0,0.0,0.0,0.0,0.0,0.0,0.0,0.0,0.0,0.0,0.0,0.0,0.0,0.0,0.0,0.0,0.0,0.0,0.0,0.0,0.0,0.0,0.0,0.0,0.0,0.0,0.0,0.0,0.0,0.0,0.0,0.0,0.0,0.0,0.0,0.0,0.0,0.0,0.0,0.0,0.0,0.0,0.0,0.0,0.0,0.0,0.0,0.0,0.0,0.0,0.0,0.0,0.0,0.0,0.0,0.0,0.0,0.0,0.0,0.0,0.0,0.0,0.0,0.0,0.0,0.0,0.0,0.0,0.0,0.0,0.0,0.0,0.0,0.0,0.0,0.0,0.0,0.0,0.0,0.0,0.0,0.0,0.0,0.5714,0.402,0.4021,0.3892,0.4659,0.6784,0.7017,0.5036,0.0295,0.0,0.0,0.0,0.0,0.0,0.0,0.0,0.0,0.0,0.0,0.0,0.0,0.0,0.0,0.0,0.0,0.0,0.0,0.0,0.0,0.0,0.0,0.0,0.0,0.0,0.0,0.0,0.0,0.0,0.0,0.0,0.0,0.0,0.0,0.0,0.0,0.0,0.0,0.0,0.0,0.0,0.0,0.0,0.0,0.0,0.0,0.0,0.0,0.0,0.0,0.0,0.0,0.0,0.0,0.0,0.0,0.0,0.0,0.0,0.0,0.0,0.0,0.0,0.0,0.0,0.0,0.0,0.0,0.0,0.0,0.0,0.0,0.0,0.0,0.0,0.0,0.0,0.0,0.0,0.0,0.0,0.0,0.0,0.0,0.0,0.0,0.0,0.0,0.0,0.0,0.0,0.0,0.0,0.0,0.0,0.0,0.0,0.0,0.0,0.0,0.0,0.0,1.0914,0.921,0.7741,0.7839,0.7842,0.7748,0.7536,0.8871,0.8043,0.4114,0.0,0.0,0.0,0.0,0.0,0.0,0.0,0.0,0.0,0.0,0.0,0.0,0.0,0.0,0.0,0.0,0.0,0.0,0.0,0.0,0.0,0.0,0.0,0.0,0.0,0.0,0.0,0.0,0.0,0.0,0.0,0.0,0.0,0.0,0.0,0.0,0.0,0.0,0.0,0.0,0.0,0.0,0.0,0.0,0.0,0.0,0.0,0.0,0.0,0.0,0.0,0.0,0.0,0.0,0.0,0.0,0.0,0.0,0.0,0.0,0.0,0.0,0.0,0.0,0.0,0.0,0.0,0.0,0.0,0.0,0.0,0.0,0.0,0.0,0.0,0.0,0.0,0.0,0.0,0.0,0.0,0.0,0.0,0.0,0.0,0.0,0.0,0.0,0.0,0.0,0.0,0.0,0.0,0.0,0.0,0.0,0.0,0.0,0.0,0.0,0.0,0.0,1.0169,1.0855,1.0832,1.1069,1.1321,1.1258,1.0766,0.99,0.9476,0.97,0.0,0.0,0.0,0.0,0.0,0.0,0.0,0.0,0.0,0.0,0.0,0.0,0.0,0.0,0.0,0.0,0.0,0.0,0.0,0.0,0.0,0.0,0.0,0.0,0.0,0.0,0.0,0.0,0.0,0.0,0.0,0.0,0.0,0.0,0.0,0.0,0.0,0.0,0.0,0.0,0.0,0.0,0.0,0.0,0.0,0.0,0.0,0.0,0.0,0.0,0.0,0.0,0.0,0.0,0.0,0.0,0.0,0.0,0.0,0.0,0.8616,0.0,0.0,0.0,0.0,0.0,0.0,0.0,0.0,0.0,0.0,0.0,0.0,0.0,0.0,0.0,0.0,0.0,0.0,0.0,0.0,0.0,0.0,0.0,0.0,0.0,0.0,0.0,0.0,0.0,0.0,0.0,0.0,0.0,0.0,0.0,0.0,0.0,0.0,0.0,0.0,0.0,1.0374,1.0847,1.1037,1.1091,1.115,1.1095,1.0879,1.0343,0.9937,0.9789,0.0,0.0,0.0,0.0,0.0,0.0,0.0,0.0,0.0,0.0,0.0,0.0,0.0,0.0,0.0,0.0,0.0,0.0,0.0,0.0,0.0,0.0,0.0,0.0,0.0,0.0,0.0,0.0,0.0,0.0,0.0,0.0,0.0,0.0,0.0,0.0,0.0,0.0,0.0,0.0,0.0,0.0,0.0,0.0,0.0,0.0,0.0,0.0,0.0,0.0,0.0,0.0,0.0,0.0,0.0,0.0,0.0,0.0,0.0,0.0,0.0,0.8774,0.0,0.0,0.0,0.0,0.0,0.0,0.0,0.0,0.0,0.0,0.0,0.0,0.0,0.0,0.0,0.0,0.0,0.0,0.0,0.0,0.0,0.0,0.0,0.0,0.0,0.0,0.0,0.0,0.0,0.0,0.0,0.0,0.0,0.0,0.0,0.0,0.0,0.0,0.0,0.0,1.0296,1.0683,1.096,1.109,1.0982,1.0885,1.0809,1.0463,1.012,0.9814,0.9257,0.0,0.0,0.0,0.0,0.0,0.0,0.0,0.0,0.0,0.0,0.0,0.0,0.0,0.0,0.0,0.0,0.0,0.0,0.0,0.0,0.0,0.0,0.0,0.0,0.0,0.0,0.0,0.0,0.0,0.0,0.0,0.0,0.0,0.0,0.0,0.0,0.0,0.0,0.0,0.0,0.0,0.0,0.0,0.0,0.0,0.0,0.0,0.0,0.0,0.0,0.0,0.0,0.0,0.0,0.9875,0.9875,0.9875,0.9886,0.9886,0.9521,0.9412,0.9463,0.0,0.0,0.0,0.0,0.0,0.0,0.0,0.0,0.0,0.0,0.0,0.0,0.0,0.0,0.0,0.0,0.0,0.0,0.0,0.0,0.0,0.0,0.0,0.0,0.0,0.9546,0.9559,0.0,0.0,0.0,0.0,0.0,0.0,0.0,0.0,0.0,0.0,0.0,0.0,1.0128,1.0506,1.0814,1.1009,1.0847,1.0728,1.0696,1.0491,1.022,0.9921,0.9571,0.9125,0.0,0.0,0.0,0.0,0.0,0.0,0.0,0.0,0.0,0.0,0.0,0.0,0.0,0.0,0.0,0.0,0.0,0.0,0.0,0.0,0.0,0.0,0.0,0.0,0.0,0.0,0.0,0.0,0.0,0.0,0.0,0.0,0.893,0.9047,0.0,0.0,0.0,0.0,0.0,0.0,0.0,0.0,0.0,0.0,0.0,0.0,0.0,0.0,0.9619,0.9947,1.0101,1.009,1.0412,1.0565,1.0565,1.0565,1.0635,1.0732,1.0502,0.0,0.9485,0.9302,0.0,0.0,0.0,0.0,0.0,0.0,0.0,0.0,0.0,0.0,0.0,0.0,0.0,0.0,0.0,0.0,0.0,0.0,0.0,0.0,0.0,0.0,1.0031,1.0048,1.0095,1.0068,0.0,0.9242,0.8744,0.8666,0.0,0.0,0.0,0.0,0.0,0.0,0.0,0.0,1.0139,1.0591,1.0841,1.076,1.083,1.0835,1.0706,1.0617,1.0492,1.0331,0.99,0.9505,0.919,0.8648,0.0,0.0,0.0,0.0,0.0,0.0,0.0,0.0,0.0,0.0,0.0,0.0,0.0,0.0,0.0,0.0,0.0,0.0,0.0,0.0,0.0,0.0,0.0,0.0,0.0,0.0,0.0,0.0,0.0,0.9023,0.9117,0.9098,0.9117,0.9016,0.0,0.0,0.0,0.0,0.0,0.0,0.0,0.0,0.0,0.9996,1.0066,1.0143,1.0259,1.0482,1.0586,1.0602,1.0824,1.0922,1.0922,1.0922,1.096,1.1004,1.0922,1.0606,1.0141,0.9745,0.9423,0.9167,0.0,0.0,0.0,0.0,0.0,0.8967,0.9213,0.0,0.0,0.0,0.0,0.0,0.0,0.0,0.0,0.0,0.0,0.0,0.0,0.0,0.0,1.0387,1.0503,1.0564,1.0418,1.0118,0.9735,0.0,0.924,0.908,0.8484,0.0,0.0,0.0,0.0,0.0,1.036,1.0645,1.0792,1.0809,1.0803,1.0765,1.0701,1.0667,1.0617,1.0517,1.0256,0.9942,0.9598,0.9152,0.8675,0.0,0.0,0.0,0.0,0.0,0.0,0.0,0.0,0.0,0.0,0.0,0.0,0.0,0.0,0.0,0.0,0.0,0.0,0.0,0.0,0.0,0.0,0.0,0.0,0.0,0.0,0.0,0.0,0.9266,0.9309,0.9219,0.9369,0.9276,0.0,0.0,0.0,0.0,0.0,0.0,0.9815,0.9951,1.0201,1.0568,1.0606,1.072,1.0895,1.102,1.1063,1.1047,1.1172,1.1221,1.1204,1.1204,1.1204,1.1204,1.1172,1.1041,1.0808,1.0239,0.9852,0.9601,0.9367,0.9269,0.9262,0.9367,0.9476,0.9617,0.9906,0.9909,0.9779,0.9629,0.0,0.9168,0.8682,0.0,0.0,0.0,0.0,0.9437,0.9886,0.0,1.0356,1.0573,1.0775,1.0863,1.0733,1.0733,1.0553,0.0,0.9798,0.9649,0.9019,0.0,0.0,0.0,0.0,1.0075,1.0544,1.0688,1.0776,1.0846,1.0787,1.0738,1.0695,1.0695,1.0678,1.0627,1.0523,1.029,0.9914,0.9598,0.9185,0.0,0.0,0.0,0.0,0.0,0.0,0.0,0.0,0.0,0.0,0.0,0.0,0.0,0.0,0.0,0.0,0.0,0.0,0.0,0.0,0.0,0.0,0.0,0.0,0.0,0.0,0.0,0.0,0.0,0.0,0.9479,0.9765,0.0,0.0,0.0,0.0,0.9479,0.9776,1.0031,1.0172,1.0483,1.0776,1.1058,1.1194,1.1324,1.1461,1.153,1.153,1.1472,1.1541,1.1536,1.1483,1.1483,1.1483,1.1477,1.1346,1.1281,1.1226,1.0762,1.0333,0.9962,0.9822,0.9727,0.9672,0.9678,0.972,0.9811,0.9957,0.9909,0.9866,1.0236,1.0039,0.9674,0.9707,0.9495,0.0,0.0,0.9855,1.0048,1.0457,1.0571,1.0599,1.0678,1.0803,1.0863,1.0733,1.0798,1.0776,0.0,1.0161,0.994,0.9773,0.0,0.9728,0.9913,1.008,1.0275,1.0566,1.0775,1.0836,1.0717,1.0825,1.0841,1.0717,1.0695,1.07,1.0695,1.0633,1.0468,1.0193,0.9914,0.9467,0.8803,0.8626,0.0,0.0,0.0,0.0,0.0,0.0,0.0,0.0,0.0,0.0,0.0,0.0,0.0,0.0,0.0,0.0,0.0,0.0,0.0,0.0,0.0,0.0,0.0,0.0,0.0,0.0,0.0,0.0,0.9938,1.0213,0.0,0.0,0.9889,1.0067,1.0196,1.0438,1.071,1.1014,1.1194,1.1356,1.1535,1.1601,1.1645,1.1688,1.172,1.172,1.1688,1.172,1.1666,1.1563,1.1563,1.1542,1.1499,1.1455,1.1379,1.1292,1.1117,1.0802,1.0456,1.0489,1.0439,1.0336,1.0336,1.0412,1.05,1.0462,1.039,1.0317,1.0377,1.0225,1.0045,1.0155,1.0037,0.9938,1.023,1.0349,1.0431,1.0617,1.0661,1.0672,1.0684,1.0868,1.0971,1.0749,1.0944,1.1052,1.0672,1.0476,1.0322,1.0097,1.0116,1.0153,1.0129,1.0322,1.0507,1.065,1.0727,1.0754,1.0711,1.0744,1.0754,1.0701,1.0695,1.0684,1.0633,1.061,1.0479,1.0215,1.0031,0.9716,0.926,0.8953,0.8418,0.0,0.0,0.0,0.0,0.0,0.0,0.0,0.0,0.0,0.0,0.0,0.0,0.0,0.0,0.0,0.0,0.0,0.0,0.0,0.0,0.0,0.0,0.0,0.0,0.0,0.0,1.0151,1.0189,1.054,1.0605,1.0182,1.04,1.0705,1.1017,1.1099,1.133,1.1782,1.1724,1.1731,1.1862,1.1873,1.1883,1.1927,1.1927,1.1986,1.2098,1.2098,1.2134,1.217,1.213,1.2108,1.2085,1.1833,1.171,1.1654,1.145,1.1177,1.0911,1.0955,1.0911,1.083,1.083,1.0863,1.0879,1.0749,1.0672,1.0627,1.053,1.0439,1.039,1.0471,1.0439,1.0406,1.0584,1.0628,1.0644,1.0694,1.0695,1.0695,1.0695,1.0873,1.0987,1.0814,1.1009,1.1145,1.0895,1.0759,1.0639,1.0471,1.0466,1.0492,1.0439,1.0551,1.0645,1.0684,1.0744,1.0749,1.0701,1.0744,1.0749,1.0695,1.0646,1.0601,1.0599,1.0474,1.0322,1.014,0.9987,0.9731,0.9378,0.8996,0.8616,0.8236,0.0,0.0,0.0,0.0,0.0,0.0,0.0,0.0,0.0,0.0,0.0,0.0,0.0,0.0,0.0,0.0,0.0,0.0,0.0,0.0,0.0,0.0,0.0,0.9705,1.012,1.0366,1.0243,1.0769,1.0959,1.0507,1.1013,1.1526,1.1905,1.1738,1.1865,1.2368,1.2038,1.189,1.2028,1.2039,1.2123,1.2255,1.2255,1.2406,1.2725,1.2725,1.2928,1.3295,1.3173,1.3179,1.3254,1.2539,1.2302,1.2367,1.1766,1.1456,1.1308,1.1166,1.1112,1.1107,1.1107,1.102,1.0879,1.0749,1.0695,1.0695,1.0695,1.0695,1.0695,1.0695,1.0695,1.0695,1.0695,1.0695,1.0695,1.0695,1.0695,1.0695,1.0711,1.0803,1.0917,1.0917,1.1014,1.1112,1.1107,1.0998,1.0906,1.0917,1.0798,1.0754,1.0879,1.0787,0.0,1.0695,1.0809,1.0852,1.0722,1.082,1.0852,1.0722,1.052,1.0458,1.0582,1.0225,1.0,1.0,0.9811,0.9528,0.913,0.8802,0.8722,0.8907,0.0,0.0,0.0,0.0,0.0,0.0,0.0,0.0,0.0,0.0,0.0,0.0,0.0,0.0,0.0,0.0,0.0,0.0,0.0,0.0,0.0,0.0,1.017,1.0202,1.0439,1.0748,1.1096,1.1676,1.2027,1.1998,1.2449,1.268,1.2488,1.2432,1.2361,1.2265,1.2467,1.2607,1.2647,1.3028,1.3246,1.3293,1.3293,1.3334,1.3427,1.3427,1.3425,1.3442,1.3412,1.3296,1.3149,1.3043,1.2908,1.2725,1.2314,1.2073,1.192,1.1533,1.1324,1.1248,1.1248,1.1096,1.0879,1.0749,1.0695,1.0695,1.0695,1.0695,1.0695,1.0695,1.0695,1.0695,1.0695,1.0695,1.0695,1.0695,1.0695,1.0717,1.0814,1.0955,1.1052,1.1052,1.1226,1.133,1.1134,1.1156,1.1161,1.1058,1.1014,1.0971,1.0906,0.0,0.0,1.0706,1.0733,1.0776,1.0841,1.0879,1.0895,1.0852,1.0705,1.0531,0.0,1.0113,1.0,1.0,0.995,0.9868,0.9761,0.9421,0.9179,0.0,0.0,0.0,0.0,0.0,0.0,0.0,0.0,0.0,0.0,0.0,0.0,0.0,0.0,0.0,0.0,0.0,0.0,0.0,0.0,0.0,0.0,1.0367,1.0935,1.1383,1.1374,1.1442,1.1765,1.2383,1.2825,1.2955,1.3072,1.3254,1.3516,1.3116,1.2975,1.3228,1.324,1.3234,1.3234,1.3595,1.3773,1.3773,1.3773,1.3898,1.4123,1.4025,1.4073,1.4213,1.4144,1.4072,0.0,1.3714,1.3505,1.3327,1.2879,1.2606,0.0,0.0,0.0,0.0,0.0,1.1194,1.1052,1.0911,1.0835,1.0782,1.0782,1.0885,1.0956,1.0758,1.0841,1.0956,1.0758,1.0695,1.0758,1.1012,1.0928,1.0867,1.1199,1.1192,1.1118,1.1172,1.1313,1.1384,1.1292,0.0,0.0,1.1286,1.1166,1.1096,1.1069,1.1014,1.096,0.0,1.0868,1.0895,1.0976,1.0987,1.0987,1.0987,1.0781,0.0,0.0,0.0,0.9978,0.9914,0.9973,0.0,0.0,0.0,0.0,0.0,0.0,0.0,0.0,0.968,0.9836,0.0,0.0,0.0,0.0,0.0,0.0,0.0,0.0,0.0,0.0,0.0,0.0,0.0,0.0,0.0,0.0,1.1267,1.1813,1.2768,1.2629,1.2407,1.2352,1.298,1.3473,1.3615,1.3363,1.3607,1.4642,1.3836,1.3692,1.4584,0.0,0.0,0.0,0.0,1.4087,1.4087,1.4087,1.432,1.4773,1.4607,1.4747,1.5204,1.5075,1.5082,1.5147,1.4446,1.4116,1.4042,1.3475,1.3125,1.2862,1.1988,1.1655,1.1638,1.1516,1.1456,0.0,0.0,0.0,0.0,1.106,1.1256,1.1421,1.0992,1.1153,1.1382,1.0931,1.08,1.0922,1.1408,1.1225,1.1056,1.1612,1.1436,1.1166,1.1292,1.1313,1.1357,1.1477,1.1499,1.1499,1.1499,1.1302,1.1183,1.1281,1.1199,1.1118,1.1107,1.1101,1.1107,1.1123,0.0,0.0,1.1123,1.0855,1.0677,1.07,1.0305,1.0032,0.9905,1.0065,1.0194,1.0302,1.0448,1.0655,1.0949,1.1085,1.115,1.1123,1.0026,0.9862,0.0,0.0,0.0,0.0,0.0,0.0,0.0,0.0,0.0,0.0,0.0,0.0,0.0,0.0,0.0,1.1594,1.2163,1.2663,1.2868,1.3473,1.3732,1.3307,1.3753,1.4199,1.4444,1.4744,1.4906,1.4857,1.4677,1.4453,1.4236,1.45,0.0,1.4669,1.5056,1.5269,1.5269,1.5269,1.5269,1.5256,0.0,0.0,1.5204,1.5165,1.5116,1.5041,1.499,1.4813,1.4541,1.421,1.3734,1.3175,1.2782,1.2631,1.2602,1.2481,1.2434,1.241,1.2278,1.2218,1.2165,1.2063,1.2068,1.2089,1.1897,1.1892,0.0,1.153,1.1433,1.1387,1.1239,1.1133,1.1117,1.134,1.1324,1.1303,1.1428,1.1466,1.1472,1.1494,1.1499,1.1499,1.1499,1.1461,1.1395,1.1302,1.1275,1.1215,1.1112,1.1101,1.1139,1.1253,1.1363,1.1379,1.127,1.1194,1.103,1.0722,1.0609,1.0549,1.0532,1.0862,1.1009,1.0927,1.1161,1.1264,1.1215,1.1363,1.1449,1.1486,1.1101,1.0927,0.0,0.0,0.0,0.0,0.0,0.0,0.0,0.0,0.0,0.0,0.0,1.0218,0.0,0.0,1.2012,1.252,1.297,1.3405,1.3881,1.4405,1.4533,1.3962,1.4457,1.4933,1.5128,1.5208,1.532,1.549,1.5192,1.5007,1.5,1.5154,1.5248,1.5248,1.5576,1.5744,1.5744,1.5744,1.5669,1.5503,1.5433,1.533,1.5204,1.5204,1.5158,1.5102,1.5177,1.507,1.4832,1.4602,1.4303,1.399,1.3855,1.3467,1.2995,1.2922,1.2855,1.2765,1.2451,1.2309,1.2201,1.1899,1.1905,1.1995,1.1691,1.1758,1.1865,1.1462,1.135,1.1378,1.1523,1.1384,1.1292,1.1665,1.1572,1.1423,1.1488,1.1499,1.1499,1.1499,1.1499,1.1499,1.1499,1.1499,1.1477,1.1406,1.1395,1.1384,1.1346,1.1319,1.1357,1.1525,1.1547,1.1547,1.1547,1.1487,1.1351,1.1123,1.1096,1.1096,1.1096,1.1324,1.1416,1.1351,1.1547,1.1618,1.1547,1.1672,1.1765,1.1802,1.1776,1.164,0.0,0.0,0.0,0.0,0.0,0.0,0.0,0.0,0.9283,1.0127,1.0506,1.0927,1.1657,1.2115,1.2623,1.3437,1.3759,1.4168,1.4929,1.5184,1.5099,1.461,1.5085,1.5501,1.5645,1.5412,1.5489,1.6057,1.5604,1.5488,1.5924,1.5791,1.5699,1.5699,1.5851,1.5937,1.5937,1.5937,1.5824,1.5599,1.5489,1.5345,1.5204,1.5204,1.5204,1.5204,1.5204,1.5143,1.5027,1.4852,1.4805,1.4805,1.4805,1.4249,1.3462,1.3426,1.3326,1.3156,1.2779,1.2561,1.2376,1.1981,1.2025,1.217,1.1753,1.1887,1.2097,1.1668,1.1544,1.1637,1.2062,1.1889,1.1731,1.222,1.2054,1.1766,1.1766,1.1766,1.1749,1.1677,1.1638,1.1605,1.1532,1.1521,1.1521,1.1521,1.1521,1.1547,1.1633,1.1585,1.1624,1.1774,1.1725,1.172,1.1829,1.172,1.1617,1.1564,1.1559,1.1559,1.1559,1.1639,1.1682,1.1682,1.1813,1.1878,1.1878,1.1994,1.2037,1.2037,1.2147,1.207,1.0414,1.024,0.0,1.1116,1.113,1.1089,0.0,0.0,1.1331,1.1331,1.1964,1.2495,1.2488,1.3324,1.4076,1.4188,1.4665,1.5053,1.5165,1.5393,1.5533,1.5459,1.5534,1.5645,1.5855,1.5833,1.5895,1.6094,1.6025,1.6006,1.6068,1.6067,1.6041,1.6041,1.6074,1.608,1.608,1.608,1.5913,1.5606,1.5585,1.5447,1.5204,1.5204,1.5204,1.5204,1.5204,1.5186,1.5184,1.5152,1.5145,1.5145,1.5145,1.4998,1.4764,1.4596,1.4437,1.4309,1.4265,1.4149,1.4009,1.3843,1.3811,1.3804,1.3574,1.3527,1.3517,1.3227,1.3139,1.3083,1.2864,1.2762,1.2735,1.2809,1.2775,1.2742,1.2742,1.2742,1.2634,1.2282,1.2157,1.2011,1.1652,1.1595,1.1595,1.1595,1.1595,1.1627,1.1758,1.1775,1.1775,1.1807,1.1883,1.1955,1.1983,1.1851,1.1769,1.1769,1.1769,1.1769,1.1769,1.1889,1.1961,1.1961,1.2092,1.2158,1.2158,1.2169,1.2186,1.2174,1.219,1.212,1.113,0.0,0.0,0.0,1.1493,1.1573,1.1663,1.1664,1.1766,1.2176,1.2667,1.3148,1.3515,1.4047,1.4509,0.0,1.5048,1.5253,1.5413,1.5536,1.5606,1.5606,1.5606,1.5684,1.5875,1.5971,1.604,1.6101,1.6095,1.6095,1.6095,1.6095,1.6095,1.6095,1.6095,1.6095,1.6095,1.6095,1.5987,1.5776,1.5776,1.5655,1.5433,1.5433,1.5386,1.5309,1.5233,1.5204,1.5204,1.5204,1.5204,1.5204,1.5204,1.517,1.5102,1.493,1.4762,1.4577,1.4305,1.4115,1.3957,1.3631,1.3523,1.3499,1.3419,1.3451,1.3495,1.3362,1.3336,1.3303,1.3174,1.313,1.313,1.313,1.313,1.313,1.313,1.313,1.3081,1.2908,1.2861,1.2696,1.2261,1.2181,1.2101,1.1864,1.1775,1.1763,1.19,1.1851,1.1835,1.1911,1.2037,1.212,1.212,1.2076,1.2037,1.2037,1.2037,1.2037,1.2037,1.2092,1.212,1.212,1.2169,1.2196,1.2196,1.2196,1.2196,1.2196,1.2196,1.2169,1.136,0.0,0.0,1.157,1.1884,1.2098,1.1977,1.2061,1.2335,1.2945,1.3266,1.3619,1.4185,1.4437,0.0,1.5077,1.5206,1.5323,1.5523,1.5579,1.5606,1.5606,1.5606,1.5658,1.5797,1.5958,1.606,1.6101,1.6095,1.6095,1.6095,1.6095,1.6095,1.6095,1.6095,1.6095,1.6095,1.6095,1.6026,1.5901,1.5901,1.579,1.5606,1.5606,1.5557,1.5454,1.5309,1.526,1.5253,1.5224,1.5204,1.5204,1.5204,1.5204,1.5191,1.5089,1.4948,1.4732,1.4389,1.4176,1.3984,1.3652,1.3545,1.3545,1.3545,1.3608,1.3684,1.3684,1.3684,1.3684,1.3684,1.3684,1.3684,1.3684,1.3684,1.3684,1.3684,1.3684,1.3662,1.3574,1.3521,1.3365,1.292,1.2845,1.2696,1.2255,1.2146,1.2083,1.206,1.1966,1.1949,1.2043,1.2141,1.2196,1.2196,1.2196,1.2196,1.2196,1.2196,1.2196,1.2196,1.2196,1.2196,1.2196,1.2196,1.2196,1.2196,1.2196,1.2196,1.2196,1.2196,1.2196,0.0,0.0,1.1895,1.2353,1.2721,1.3027,1.3278,1.3439,1.3578,1.3744,1.3931,1.4127,1.4272,1.4514,1.4764,1.4973,1.5215,1.5393,1.5406,1.5523,1.5606,1.5606,1.5606,1.5606,0.0,1.579,1.5957,1.6094,1.6095,1.6095,1.6095,1.6095,1.6095,1.6095,1.6095,1.6095,1.6095,1.6095,1.6026,1.5901,1.5901,1.579,1.5606,1.5606,1.5599,1.5585,1.5448,1.5393,1.5379,1.5253,1.5204,1.5204,1.5204,1.5204,1.5204,1.5197,1.5109,1.4987,1.4975,1.4839,1.4676,1.4665,1.4653,1.4653,1.4653,1.4649,1.466,1.466,1.466,1.466,1.466,1.466,1.466,1.466,1.466,1.466,1.466,1.466,1.4552,1.4236,1.4065,1.3865,1.3531,1.3474,1.3288,1.2754,1.2788,1.2704,1.2249,1.2185,1.2185,1.219,1.2202,1.2196,1.2196,1.2196,1.2196,1.2196,1.2196,1.2196,1.2196,1.2196,1.2196,1.2196,1.2196,1.2196,1.2196,1.2196,1.2196,1.2196,1.2196,1.2196,0.0,0.0,1.2099,1.2784,1.3125,1.3339,1.3606,1.38,1.3905,1.3819,1.403,1.4222,1.4178,1.4387,1.4661,1.4953,1.5145,1.533,1.5509,1.5496,1.5462,1.5462,1.5386,0.0,0.0,0.0,0.0,1.5964,1.6046,1.6095,1.6095,1.6095,1.6095,1.6095,1.6095,1.6095,1.6095,1.6095,1.608,1.6026,1.6026,1.6006,1.5927,1.5837,1.5797,1.5783,1.5616,1.5524,1.5523,1.5386,1.5391,1.5454,1.5274,1.5309,1.5435,1.5267,1.5226,1.5248,1.5158,1.5029,1.4907,1.4907,1.4907,1.4907,1.4907,1.4957,1.5031,1.5031,1.5031,1.5031,1.5031,1.5031,1.5031,1.5031,1.5031,1.5031,1.5031,1.5031,1.4998,1.4889,1.4832,1.4551,1.3773,1.3626,1.3345,1.25,1.2404,1.2385,1.2219,1.2196,1.2196,1.2196,1.2196,1.2196,1.2196,1.2196,1.2196,1.2196,1.2196,1.2196,1.2196,1.2196,1.2246,1.2328,1.2328,1.2347,1.2399,1.2399,1.2399,1.2399,1.2354,1.2328,0.0,1.2157,1.2516,1.3179,1.3441,1.361,1.3843,1.3949,1.3973,1.3922,1.3972,1.4061,1.409,1.4183,1.4385,1.4821,1.4964,1.5121,1.542,1.5379,1.533,1.533,1.5289,0.0,0.0,0.0,0.0,1.5901,1.5984,1.6046,1.6101,1.6095,1.6095,1.6095,1.6095,1.6095,1.6095,1.6095,1.6095,1.6095,1.6095,1.6095,1.6101,1.6006,1.5971,1.5964,1.5778,1.5677,1.5599,1.5509,1.5496,1.5523,1.5386,1.5454,1.5579,1.5406,1.5393,1.5454,1.5255,1.5143,1.5068,1.5068,1.5068,1.5068,1.5068,1.5136,1.5204,1.5204,1.5204,1.5204,1.5204,1.5204,1.5204,1.5204,1.5204,1.5204,1.5204,1.5204,1.5204,1.5204,1.5204,1.4993,1.4353,1.3941,1.3423,1.2585,1.2314,1.2196,1.2196,1.2196,1.2196,1.2196,1.2196,1.2196,1.2196,1.2196,1.2196,1.2196,1.2234,1.2251,1.2196,1.2266,1.2343,1.2405,1.2419,1.2455,1.25,1.25,1.25,1.25,1.2455,1.2419,1.2089,1.2642,1.3142,1.3535,1.3717,1.387,1.4063,1.3942,1.3846,1.4029,1.381,1.3667,0.0,0.0,1.3977,1.4577,1.4699,1.4832,1.5165,1.5224,1.522,0.0,0.0,0.0,0.0,0.0,0.0,1.5901,0.0,1.5964,1.6088,1.6095,1.6095,1.6095,1.6095,1.6095,1.6095,1.6095,1.6095,1.6095,1.6095,1.6095,1.6095,1.6095,1.6095,1.6088,1.5964,1.5797,1.5626,1.5619,1.5543,1.5447,1.5563,1.5612,1.5626,1.5606,1.5606,1.5584,1.5309,1.5224,1.5206,1.5192,1.5204,1.5204,1.5204,1.5204,1.5204,1.5204,1.5204,1.5204,1.5204,1.5204,1.5204,1.5204,1.5204,1.5204,1.5204,1.5204,1.5204,1.5204,1.5181,1.5157,1.5157,1.4329,1.3493,1.2975,1.2503,1.2196,1.2196,1.2196,1.2196,1.2196,1.2196,1.2196,1.2196,1.2196,1.2196,1.2213,1.2328,1.2338,1.2218,1.2399,1.247,1.2421,1.2487,1.2511,1.2516,1.2516,1.2516,1.2516,1.2511,1.2482,1.2772,1.3257,1.3664,1.3909,1.3998,1.4032,1.4083,1.3942,1.3758,1.3607,1.3434,1.3302,0.0,0.0,0.0,1.4194,1.4629,0.0,1.5309,1.544,0.0,0.0,0.0,1.5545,1.5545,1.5624,0.0,0.0,1.5998,1.6067,1.6108,1.6095,1.6095,1.6095,1.6095,1.6095,1.6095,1.6095,1.6095,1.6095,1.6095,1.6095,1.6095,1.6095,1.6095,1.6108,1.6067,1.6014,1.5961,1.5858,1.5858,1.5905,1.5685,1.5746,1.594,1.5699,1.5698,1.5795,1.5576,1.5433,1.5337,1.5233,1.5204,1.5204,1.5204,1.5204,1.5204,1.5204,1.5204,1.5204,1.5204,1.5204,1.5204,1.5204,1.5204,1.5204,1.5204,1.5204,1.5204,1.5204,1.4875,1.4599,1.4599,1.377,1.3057,1.2916,1.2503,1.2196,1.2196,1.2196,1.2196,1.2196,1.2196,1.2196,1.2196,1.2196,1.2234,1.2338,1.2383,1.2403,1.2414,1.2467,1.2539,1.2613,1.2645,1.2693,1.2797,1.2797,1.2797,1.2797,1.2705,1.2645,1.3307,1.3691,1.3966,1.407,1.4108,1.4063,1.3905,1.3698,1.3454,1.3146,1.2993,0.0,0.0,0.0,0.0,0.0,0.0,0.0,1.5345,1.5516,1.5606,0.0,1.5684,0.0,1.5737,1.5779,1.5866,0.0,1.5992,1.6033,1.6101,1.6095,1.6095,1.6095,1.6095,1.6095,1.6095,1.6095,1.6095,1.6095,1.6095,1.6095,1.6095,1.6095,1.6095,1.6095,0.0,1.6067,1.6006,1.5985,1.5998,1.5992,1.5872,1.5934,1.6075,1.5893,1.5898,1.5958,1.5784,1.5676,1.5579,1.5362,1.5294,1.5281,1.5213,1.524,1.5294,1.5294,1.533,1.5384,1.5384,1.5384,1.5384,1.5384,1.533,1.5294,1.5294,1.5294,1.5315,1.5359,1.5128,1.4854,1.4651,1.4101,1.3613,1.3376,1.2913,1.2564,1.2508,1.2326,1.2196,1.2196,1.2196,1.2196,1.2196,1.2245,1.2317,1.24,1.2474,1.2515,1.25,1.261,1.2682,1.2705,1.2759,1.2819,1.2902,1.2902,1.2902,1.2897,1.2819,1.2759,1.3742,1.3987,1.4117,1.4097,1.4076,1.397,1.363,1.3315,1.3023,1.2705,0.0,0.0,1.2467,1.2864,1.3326,1.3727,0.0,1.4907,1.5365,1.5563,1.5672,1.5672,1.5817,1.593,1.595,1.606,1.6136,1.615,1.6052,1.6019,1.6116,1.6143,1.615,1.615,1.615,1.6143,1.6122,1.6122,1.6128,1.6095,1.6095,1.6095,1.6095,1.6095,1.6095,1.6095,0.0,0.0,1.5942,1.6053,1.6026,1.5937,1.6053,1.6095,1.6095,1.6095,1.6095,1.6075,1.5964,1.5935,1.5875,1.554,1.5426,1.5406,1.5294,1.5337,1.5426,1.5426,1.5516,1.5606,1.5606,1.5606,1.5606,1.5606,1.5516,1.5426,1.5426,1.5426,1.5455,1.5579,1.5606,1.5472,1.5054,1.4842,1.4578,1.4093,1.3525,1.3083,1.2967,1.2541,1.2239,1.2235,1.2234,1.2245,1.2245,1.2355,1.242,1.2437,1.2603,1.2655,1.2561,1.2781,1.2848,1.2732,1.2848,1.2902,1.2902,1.2902,1.2902,1.2902,1.2902,1.2842,1.3973,1.4154,1.4242,1.4124,1.3973,1.3748,1.3359,1.2932,0.0,0.0,0.0,1.2204,1.2314,1.2813,1.3326,1.3727,0.0,0.0,0.0,0.0,1.6008,0.0,0.0,0.0,0.0,0.0,0.0,0.0,0.0,0.0,1.6273,1.6369,1.643,1.643,1.643,1.6375,1.6273,1.6273,1.6205,1.6095,1.6095,1.6095,1.6095,1.6095,1.6095,1.6095,0.0,0.0,1.6067,1.6094,1.6094,1.6067,1.6094,1.6095,1.6095,1.6095,1.6095,1.6101,1.6061,1.6067,1.6007,1.5672,1.5577,1.5558,1.5543,1.5557,1.5577,1.5577,1.5579,1.5606,1.5606,1.5606,1.5606,1.5606,1.5579,1.5577,1.5577,1.5577,1.5572,1.5599,1.5606,1.5563,1.5497,1.5144,1.4834,1.4737,1.3891,1.3262,1.3227,1.2768,1.2433,1.2371,1.2411,1.2447,1.2447,1.2469,1.253,1.264,1.2683,1.2743,1.2837,1.2881,1.2891,1.287,1.2891,1.2902,1.2902,1.2902,1.2902,1.2902,1.2902,1.2891,1.4238,1.4353,1.4373,1.4242,1.3899,1.3481,1.3044,0.0,0.0,0.0,0.0,1.1938,1.1938,0.0,0.0,0.0,0.0,0.0,0.0,0.0,0.0,0.0,0.0,0.0,0.0,0.0,0.0,0.0,0.0,0.0,1.6416,1.647,1.6498,1.6498,1.6498,1.6477,1.6397,1.6335,1.6294,1.6313,1.6239,1.6198,1.6198,1.6198,1.617,1.6095,1.6095,0.0,1.6095,1.6095,1.6095,1.6095,1.6095,1.6095,1.6095,1.6095,1.6095,1.6095,1.6095,1.6095,1.6068,1.5913,1.5811,1.5737,1.5626,1.5665,1.5763,1.5763,1.5805,1.586,1.586,1.586,1.586,1.586,1.5805,1.5763,1.5763,1.5763,1.5778,1.5852,1.586,1.586,1.586,1.5621,1.5421,1.5421,1.4738,1.411,1.3758,1.3375,1.2945,1.2502,1.2474,1.25,1.25,1.2566,1.2633,1.27,1.2765,1.2825,1.2897,1.2902,1.2902,1.2902,1.2902,1.2902,1.2902,1.2902,1.2902,1.2902,1.2902,1.2902,1.4428,1.4478,1.4423,1.4285,1.3835,1.3275,1.2773,1.2332,0.0,0.0,1.168,1.1751,1.1712,0.0,1.2763,0.0,0.0,0.0,0.0,0.0,0.0,0.0,0.0,0.0,0.0,0.0,0.0,0.0,0.0,0.0,1.6613,1.6606,1.6606,1.6606,1.6606,1.6592,1.6546,1.6437,1.6417,1.6491,1.6396,1.6341,1.6341,1.6341,1.6273,1.6143,1.6177,0.0,0.0,1.6129,1.6122,1.6095,1.6095,1.6095,1.6095,1.6095,1.6095,1.6095,1.6095,1.6095,1.6095,1.6095,1.6026,1.5904,1.5759,1.5824,1.5937,1.5937,1.6025,1.6095,1.6095,1.6095,1.6095,1.6095,1.6013,1.5937,1.5937,1.5937,1.5977,1.608,1.6095,1.6095,1.6095,1.6006,1.5937,1.5937,1.5488,1.4957,1.4427,1.407,1.3584,1.2843,1.2649,1.2588,1.2588,1.2682,1.2743,1.2743,1.2835,1.2902,1.2902,1.2902,1.2902,1.2902,1.2924,1.294,1.294,1.294,1.294,1.294,1.2913,1.2902,1.4428,1.441,1.4296,1.4151,1.3764,1.3247,1.2648,0.0,0.0,1.1635,1.1615,1.1705,1.2,1.2317,0.0,0.0,0.0,0.0,0.0,0.0,0.0,0.0,0.0,0.0,0.0,0.0,0.0,0.0,0.0,0.0,0.0,1.6951,1.6951,1.6951,1.6951,1.687,1.6675,1.6662,1.6607,1.6498,1.6497,1.6478,1.6478,1.6478,1.6409,1.6293,0.0,0.0,0.0,1.6232,1.6205,1.6095,1.6095,1.6095,1.6095,1.6095,1.6095,1.6095,1.6095,1.6095,1.6095,1.6095,1.6088,1.608,1.6054,1.6074,1.6087,1.6087,1.6094,1.6095,1.6095,1.6095,1.6095,1.6095,1.6094,1.6087,1.6087,1.6087,1.6087,1.6101,1.6095,1.6095,1.6095,1.6094,1.6087,1.6087,1.5633,1.5254,1.5204,1.4738,1.4208,1.3643,1.3156,1.2857,1.2857,1.2863,1.2886,1.2886,1.2897,1.2902,1.2902,1.2902,1.2902,1.2902,1.3024,1.3078,1.3078,1.3078,1.3078,1.3078,1.2964,1.2902,1.4532,1.4588,1.4487,1.4272,1.3757,1.3142,1.2617,0.0,1.1762,1.1629,1.1602,1.1671,1.1875,1.2113,1.2473,0.0,0.0,0.0,1.4742,0.0,0.0,0.0,0.0,0.0,0.0,0.0,0.0,0.0,0.0,0.0,1.7127,1.7039,1.6991,1.6991,1.6991,1.6964,1.6877,1.6756,1.6729,1.6795,1.6674,1.6621,1.6621,1.6621,1.6552,1.6423,0.0,0.0,0.0,1.6185,1.615,1.6095,1.6095,1.6095,1.6095,1.6095,1.6095,1.6095,1.6095,1.6095,1.6095,1.6095,1.6095,1.6095,1.6095,1.6095,1.6095,1.6095,1.6095,1.6095,1.6095,1.6095,1.6095,1.6095,1.6095,1.6095,1.6095,1.6095,1.6095,1.6095,1.6095,1.6095,1.6095,1.6095,1.6095,1.6095,1.5921,1.5653,1.5342,1.5176,1.4737,1.3795,1.3515,1.328,1.3044,1.3024,1.3024,1.3024,1.3024,1.3024,1.3024,1.3024,1.3044,1.3084,1.3133,1.316,1.316,1.316,1.316,1.3154,1.3066,1.3024,1.4464,1.4577,1.4527,1.4292,1.3757,1.3132,0.0,0.0,1.1848,1.169,1.1662,1.1723,1.1913,1.2104,1.2401,0.0,0.0,1.3718,1.4464,1.4808,1.5263,0.0,0.0,0.0,0.0,0.0,0.0,0.0,0.0,0.0,0.0,1.7168,1.7086,1.6998,1.7032,1.7052,1.7052,1.6884,1.6884,1.7052,1.6877,1.6789,1.6789,1.6789,1.6695,1.6559,0.0,0.0,0.0,1.6307,1.6252,1.6205,1.6164,1.6163,1.6156,1.6109,1.6095,1.6095,1.6095,1.6095,1.6095,1.6095,1.6095,1.6095,1.6095,1.6095,1.6095,1.6095,1.6095,1.6095,1.6095,1.6095,1.6095,1.6095,1.6095,1.6095,1.6095,1.6095,1.6095,1.6095,1.6095,1.6095,1.6095,1.6095,1.6095,1.6095,1.6095,1.5958,1.5591,1.5647,1.5347,1.4343,1.4128,1.3797,1.3152,1.3115,1.3131,1.3131,1.3131,1.3131,1.3131,1.3131,1.3143,1.3199,1.3237,1.3266,1.3266,1.3266,1.3266,1.3261,1.3172,1.3115,1.4143,1.4306,1.4265,1.4148,1.3757,1.3241,0.0,1.229,1.2041,1.1845,1.1802,1.1906,1.223,1.24,1.2654,1.3118,0.0,0.0,1.4586,1.4869,1.5218,0.0,0.0,0.0,0.0,0.0,0.0,0.0,0.0,0.0,0.0,1.7406,1.727,1.7018,1.7127,1.7202,1.7202,1.7059,1.7059,1.7202,1.7059,1.7004,1.7004,1.7004,1.6897,0.0,0.0,0.0,0.0,1.6641,1.6614,1.6478,1.6348,1.6294,1.6274,1.615,1.6095,1.6095,1.6095,1.6095,1.6095,1.6095,1.6095,1.6095,1.6095,1.6095,1.6095,1.6095,1.6095,1.6095,1.6095,1.6095,1.6095,1.6095,1.6095,1.6095,1.6095,1.6095,1.6095,1.6095,1.6095,1.6095,1.6095,1.6095,1.6095,1.6095,1.6095,1.6095,1.6095,1.6212,1.608,1.5543,1.5138,1.4396,1.3194,1.316,1.3199,1.3199,1.3199,1.3199,1.3199,1.3199,1.3199,1.3199,1.3331,1.3391,1.3391,1.3391,1.3391,1.3391,1.3253,1.3165,1.3499,1.3682,1.3766,1.354,1.32,1.2858,1.2559,1.229,1.2075,1.2018,1.1904,1.1897,1.2246,1.2325,1.2637,1.3471,1.3596,0.0,0.0,0.0,0.0,0.0,0.0,0.0,0.0,0.0,0.0,0.0,0.0,0.0,0.0,1.767,1.7602,1.7277,1.7311,1.7338,1.7338,1.729,1.729,1.7331,1.7195,1.7141,1.7134,1.7039,0.0,0.0,0.0,0.0,0.0,1.658,1.6539,1.6504,1.6444,1.6443,1.6436,1.6389,1.632,1.6252,1.6335,1.6308,1.6252,1.6335,1.6308,1.6239,1.6239,1.6164,1.6095,1.6095,1.6095,1.6095,1.6095,1.617,1.6212,1.6116,1.6177,1.6212,1.6116,1.6095,1.6095,1.6095,1.6095,1.6129,1.6218,1.6163,1.6129,1.6225,1.6239,1.6239,1.6239,1.643,1.6328,1.5705,1.5686,1.5223,1.4022,1.3567,1.3337,1.3337,1.3337,1.3337,1.3337,1.3337,1.3375,1.3475,1.3513,1.3534,1.3534,1.3534,1.3491,1.3391,1.3359,1.3285,1.2952,1.3227,1.3397,1.3183,1.2976,1.2766,1.2549,1.2328,1.2177,1.2177,1.2083,1.2071,1.2325,1.242,1.2675,1.3386,1.3559,0.0,0.0,0.0,0.0,0.0,0.0,0.0,0.0,0.0,0.0,0.0,0.0,0.0,0.0,0.0,1.7799,1.7595,1.7521,1.748,1.748,1.7433,1.7426,1.7467,1.7338,1.7277,1.727,1.7141,0.0,0.0,0.0,0.0,0.0,1.6721,1.6693,1.6674,1.6606,1.6579,1.6573,1.6518,1.645,1.6389,1.6464,1.645,1.6389,1.6464,1.6416,1.6287,1.6239,1.617,1.6095,1.6095,1.6136,1.6163,1.6109,1.6198,1.6273,1.6129,1.6198,1.6253,1.6129,1.6183,1.6245,1.619,1.6224,1.6279,1.6362,1.6313,1.6279,1.6362,1.6375,1.6375,1.6375,1.6573,1.6546,1.6124,1.6087,1.579,1.5042,1.4239,1.3684,1.3488,1.3475,1.3475,1.3475,1.3475,1.3513,1.3602,1.3602,1.3602,1.3602,1.3602,1.3564,1.3475,1.3475,1.3397,0.0,1.2868,1.3088,1.2945,1.2911,1.2843,1.2549,1.2379,0.0,1.2307,1.2307,1.2348,1.2511,1.2634,1.279,1.3054,0.0,0.0,0.0,0.0,0.0,0.0,0.0,0.0,0.0,0.0,0.0,0.0,0.0,0.0,0.0,0.0,1.7901,1.7901,1.7724,1.7622,1.7622,1.7494,1.7494,1.7622,1.748,1.7406,1.7399,1.7263,0.0,0.0,0.0,0.0,0.0,1.6991,1.6991,1.6978,1.6796,1.6716,1.6709,1.6579,1.6538,1.6524,1.6525,1.6531,1.6512,1.6498,1.6416,1.6293,1.6144,1.6109,1.6109,1.6109,1.6205,1.6293,1.6163,1.6225,1.6287,1.6163,1.6232,1.6287,1.6156,1.6314,1.6457,1.6335,1.6403,1.6498,1.6512,1.6518,1.6498,1.6512,1.6512,1.6512,1.6512,1.6647,1.6716,1.6716,1.6393,1.6144,1.6104,1.5052,1.4188,1.3681,1.3626,1.3613,1.3602,1.3613,1.3613,1.3602,1.3602,1.3602,1.3602,1.3602,1.3602,1.3602,1.3602,1.3529,1.1757,0.0,1.2303,1.2135,1.2076,1.2132,0.0,1.2242,1.2211,1.2416,0.0,0.0,1.2809,0.0,0.0,0.0,0.0,0.0,0.0,0.0,0.0,0.0,0.0,0.0,0.0,0.0,0.0,0.0,0.0,0.0,0.0,0.0,1.7901,1.7901,1.7854,1.7826,1.7826,1.7799,1.7799,1.7826,1.7643,1.7494,1.7399,1.7263,0.0,0.0,0.0,0.0,1.6991,1.6991,1.6991,1.7004,1.6951,1.6924,1.6937,1.6883,1.6782,1.6675,1.6829,1.6782,1.6634,1.6532,1.6484,1.643,1.6287,1.6252,1.6252,1.6252,1.6348,1.645,1.6416,1.6505,1.6567,1.6443,1.6512,1.6567,1.6424,1.6457,1.6485,1.6463,1.6484,1.6532,1.6634,1.6573,1.6539,1.6641,1.6655,1.6655,1.6655,1.6803,1.6924,1.6924,1.684,1.6597,1.6144,1.5052,1.4346,1.4228,1.392,1.3719,1.3594,1.3694,1.37,1.3607,1.3602,1.3602,1.3602,1.3602,1.3602,1.3602,1.3602,1.3578,1.145,1.1893,1.2262,1.2153,1.217,1.2256,1.2444,1.228,0.0,0.0,0.0,0.0,0.0,0.0,0.0,0.0,0.0,0.0,0.0,0.0,0.0,0.0,0.0,0.0,0.0,0.0,0.0,0.0,0.0,0.0,0.0,1.7901,1.7901,1.7901,1.7901,1.7901,1.7901,1.7901,1.7901,1.7901,1.7792,1.7704,1.7616,1.7399,0.0,0.0,0.0,0.0,1.6991,1.6991,1.6991,1.6991,1.6991,1.6991,1.6991,1.6991,1.6931,1.6857,1.6964,1.6924,1.6803,1.6647,1.6587,1.6573,1.6424,1.643,1.6471,1.6416,1.6485,1.6586,1.6524,1.6594,1.6675,1.6532,1.66,1.6655,1.6532,1.6619,1.6694,1.6613,1.6674,1.6748,1.6829,1.6775,1.6748,1.6829,1.6843,1.6843,1.6843,1.6931,1.7018,1.7086,1.7093,1.6988,1.6716,1.5842,1.5082,1.4533,1.4226,1.3988,1.3792,1.3795,1.3768,1.3689,1.3635,1.3602,1.3602,1.3602,1.3602,1.3602,1.3602,1.3602,1.1454,1.2043,1.2562,1.2397,1.2526,1.2665,1.2617,0.0,0.0,0.0,0.0,0.0,0.0,0.0,0.0,0.0,0.0,0.0,0.0,0.0,0.0,0.0,0.0,0.0,0.0,0.0,0.0,0.0,0.0,0.0,0.0,1.7901,1.7901,1.7901,1.7901,1.7901,1.7901,1.7901,1.7901,1.7901,1.7901,1.7888,1.784,1.7555,1.7419,0.0,0.0,0.0,1.6991,1.6991,1.6991,1.6991,1.6991,1.6991,1.6991,1.6991,1.6991,1.6991,1.6991,1.6991,1.6971,1.6776,1.6696,1.6688,1.6553,1.6607,1.6675,1.6593,1.6661,1.6715,1.6613,1.6661,1.6728,1.6593,1.6667,1.6709,1.6593,1.6795,1.6957,1.6783,1.6877,1.6991,1.6991,1.6991,1.6991,1.6991,1.7025,1.7025,1.7025,1.7046,1.7107,1.7216,1.7229,1.7283,1.7399,1.6882,1.6095,1.4997,1.464,1.4373,1.4167,1.4005,1.3947,1.3947,1.372,1.3602,1.3602,1.3602,1.3602,1.3602,1.3602,1.3602,1.1878,1.253,1.2871,1.196,1.2139,1.2474,1.2242,0.0,0.0,0.0,0.0,0.0,0.0,0.0,0.0,0.0,0.0,0.0,0.0,0.0,0.0,0.0,0.0,0.0,0.0,0.0,0.0,0.0,0.0,0.0,0.0,0.0,1.7901,1.7901,1.7901,1.7901,1.7901,1.7901,1.7901,1.7901,1.7901,1.7806,1.7643,1.7588,1.7446,0.0,0.0,1.7107,1.6991,1.6991,1.6991,1.6991,1.6991,1.6991,1.6991,1.6991,1.6991,1.6991,1.6991,1.6991,1.6971,1.6776,1.6696,1.6696,1.6682,1.6675,1.6736,1.6876,1.6944,1.6951,1.693,1.6944,1.6951,1.693,1.6944,1.6951,1.693,1.6957,1.6984,1.6964,1.6978,1.6991,1.6991,1.6991,1.6991,1.6991,1.7093,1.7175,1.7175,1.727,1.7345,1.7372,1.7372,1.7378,1.7406,1.7305,1.7021,1.6508,1.538,1.4765,1.4838,1.4664,1.4556,1.4556,1.3927,1.3602,1.3602,1.3602,1.3602,1.3602,1.3602,1.3602,1.1665,1.2314,1.279,1.2227,1.2644,1.3146,1.2956,0.0,0.0,0.0,0.0,0.0,0.0,0.0,0.0,0.0,0.0,0.0,0.0,0.0,0.0,0.0,0.0,0.0,0.0,0.0,0.0,0.0,0.0,0.0,0.0,0.0,1.7901,1.7901,1.7901,1.7901,1.7901,1.7901,1.7901,1.7901,1.7901,1.7854,1.7758,1.7643,1.7528,1.7406,0.0,1.7263,1.7216,1.7216,1.7168,1.712,1.7188,1.7134,1.6991,1.6991,1.6991,1.6991,1.6991,1.6991,1.6984,1.6884,1.6863,1.6863,1.6863,1.6863,1.6877,1.6971,1.6991,1.6991,1.6991,1.6991,1.6991,1.6991,1.6991,1.6991,1.6991,1.6991,1.6991,1.6991,1.6991,1.6991,1.6991,1.7059,1.7107,1.7107,1.7222,1.7317,1.7317,1.7365,1.7426,1.7494,1.7514,1.7548,1.7663,1.7575,1.7263,1.6734,1.5939,1.5495,1.5497,1.5326,1.5238,1.5238,1.484,1.4595,1.4525,1.4595,1.4595,1.4525,1.4525,1.4525,1.1581,1.2119,1.2651,1.2664,0.0,1.3654,0.0,0.0,0.0,0.0,0.0,0.0,0.0,0.0,0.0,0.0,0.0,0.0,0.0,0.0,0.0,0.0,0.0,0.0,0.0,0.0,0.0,0.0,0.0,0.0,0.0,0.0,1.7901,1.7901,1.7901,1.7901,1.7901,1.7901,1.7901,1.7901,1.7901,1.7901,1.7888,1.7744,1.7643,1.7595,1.748,1.7426,1.7392,1.7392,1.7317,1.7202,1.7304,1.7209,1.6991,1.6991,1.6991,1.6991,1.6991,1.6991,1.6991,1.6991,1.6991,1.6991,1.6991,1.6991,1.6991,1.6991,1.7018,1.7046,1.7046,1.7046,1.7052,1.7086,1.7087,1.7087,1.7087,1.7087,1.7073,1.7052,1.7046,1.7046,1.7046,1.7134,1.7202,1.7243,1.7365,1.7446,1.7446,1.7487,1.7555,1.7656,1.7677,1.7724,1.7888,1.7758,1.7452,1.6944,1.6621,1.6362,1.617,1.6026,1.5946,1.5908,1.5675,1.5486,1.5345,1.5449,1.5449,1.5345,1.5345,1.5327,1.2124,1.2372,1.2617,1.3044,0.0,0.0,0.0,0.0,0.0,0.0,0.0,0.0,0.0,0.0,0.0,0.0,0.0,0.0,0.0,0.0,0.0,0.0,0.0,0.0,0.0,0.0,0.0,0.0,0.0,0.0,0.0,0.0,0.0,1.7901,1.7901,1.7901,1.7901,1.7901,1.7901,1.7901,1.7901,1.7901,1.7901,1.7888,1.7772,1.7595,1.7588,1.7514,1.7392,1.7392,1.7317,1.7195,1.7202,1.7127,1.6991,1.6991,1.6991,1.6991,1.6991,1.6991,1.6991,1.6991,1.6991,1.6991,1.6991,1.6991,1.6991,1.6991,1.7086,1.7188,1.7188,1.7188,1.7229,1.7345,1.7378,1.7378,1.7378,1.7378,1.7331,1.7202,1.7188,1.7188,1.7188,1.7182,1.7243,1.7372,1.7494,1.7588,1.7588,1.7758,1.7867,1.7888,1.7888,1.7888,1.7901,1.7888,1.786,1.7812,1.7608,1.7313,1.6941,1.6792,1.6664,1.6543,1.5983,1.5613,1.5492,1.5498,1.5498,1.5492,1.5492,1.5418,1.1821,1.2241,1.2722,1.3105,0.0,0.0,0.0,0.0,0.0,0.0,0.0,0.0,0.0,0.0,0.0,0.0,0.0,0.0,0.0,0.0,0.0,0.0,0.0,0.0,0.0,0.0,0.0,0.0,0.0,0.0,0.0,0.0,0.0,1.7901,1.7901,1.7901,1.7901,1.7901,1.7901,1.7901,1.7901,1.7901,1.7901,1.7901,1.7854,1.7786,1.7786,1.7758,1.7704,1.7704,1.7609,1.7433,1.7263,1.7277,1.7338,1.7093,1.7052,1.7113,1.7025,1.6991,1.6991,1.6991,1.6991,1.6991,1.6991,1.6991,1.7025,1.71,1.7168,1.7208,1.7208,1.7263,1.7338,1.7392,1.7392,1.7392,1.7392,1.7392,1.7392,1.7331,1.7317,1.7317,1.7317,1.7385,1.7467,1.7514,1.767,1.7786,1.7786,1.7854,1.7901,1.7901,1.7901,1.7901,1.7901,1.7901,1.7901,1.7901,1.7826,1.7723,1.7569,1.7388,1.7261,1.7222,1.7004,1.6824,1.6674,1.6772,1.6765,1.6674,1.6674,1.6648,1.1769,1.2193,1.2729,0.0,0.0,0.0,0.0,0.0,0.0,0.0,0.0,0.0,0.0,0.0,0.0,0.0,0.0,0.0,0.0,0.0,0.0,0.0,0.0,0.0,0.0,0.0,0.0,0.0,0.0,0.0,0.0,0.0,0.0,0.0,1.7901,1.7901,1.7901,1.7901,1.7901,1.7901,1.7901,1.7901,1.7901,1.7901,1.7901,1.7901,1.7901,1.7901,1.7901,1.7901,1.7772,1.7561,1.7297,1.7304,1.744,1.7161,1.7093,1.7134,1.708,1.7059,1.7059,1.7059,1.7059,1.7073,1.7107,1.71,1.7093,1.7222,1.7284,1.7338,1.7338,1.7385,1.7473,1.7534,1.7561,1.7561,1.7561,1.7561,1.7548,1.7473,1.7467,1.7467,1.7467,1.7541,1.7622,1.769,1.7806,1.7901,1.7901,1.7901,1.7901,1.7901,1.7901,1.7901,1.7901,1.7901,1.7901,1.7901,1.7901,1.7901,1.7901,1.7772,1.7663,1.7595,1.7656,1.7622,1.7467,1.7555,1.7555,1.7467,1.7467,1.744,1.2129,1.2287,0.0,0.0,0.0,0.0,0.0,0.0,0.0,0.0,0.0,0.0,0.0,0.0,0.0,0.0,0.0,0.0,0.0,0.0,0.0,0.0,0.0,0.0,0.0,0.0,0.0,0.0,0.0,0.0,0.0,0.0,0.0,0.0,1.7901,1.7901,1.7901,1.7901,1.7901,1.7901,1.7901,1.7901,1.7901,1.7901,1.7901,1.7901,1.7901,1.7901,1.7901,1.7901,1.7772,1.7582,1.7317,1.7195,1.7208,1.7195,1.712,1.7018,1.7148,1.7195,1.7195,1.7195,1.7195,1.7236,1.7358,1.7317,1.7222,1.7365,1.7507,1.7595,1.7595,1.7595,1.7643,1.7854,1.7901,1.7901,1.7901,1.7901,1.784,1.7643,1.7595,1.7595,1.7595,1.7595,1.7677,1.7874,1.7901,1.7901,1.7901,1.7901,1.7901,1.7901,1.7901,1.7901,1.7901,1.7901,1.7901,1.7901,1.7901,1.7901,1.7901,1.7901,1.7806,1.7609,1.7806,1.7806,1.7595,1.7595,1.7595,1.7595,1.7595,1.7528,1.1816,1.2187,0.0,0.0,0.0,0.0,0.0,0.0,0.0,0.0,0.0,0.0,0.0,0.0,0.0,0.0,0.0,0.0,0.0,0.0,0.0,0.0,0.0,0.0,0.0,0.0,0.0,0.0,0.0,0.0,0.0,0.0,0.0,0.0,1.7901,1.7901,1.7901,1.7901,1.7901,1.7901,1.7901,1.7901,1.7901,1.7901,1.7901,1.7901,1.7901,1.7901,1.7901,1.7901,1.786,1.7786,1.7575,1.7575,1.7657,1.7324,1.729,1.7399,1.7249,1.7263,1.7338,1.7338,1.7338,1.7345,1.7392,1.7378,1.7372,1.75,1.7575,1.7629,1.7772,1.7806,1.7826,1.7888,1.7901,1.7901,1.7901,1.7901,1.7888,1.7826,1.7806,1.7806,1.7806,1.7806,1.7826,1.7888,1.7901,1.7901,1.7901,1.7901,1.7901,1.7901,1.7901,1.7901,1.7901,1.7901,1.7901,1.7901,1.7901,1.7901,1.7901,1.7901,1.7874,1.7806,1.7874,1.7874,1.7806,1.7806,1.7806,1.7806,1.7806,1.7786,1.2237,0.0,0.0,0.0,0.0,0.0,0.0,0.0,0.0,0.0,0.0,0.0,0.0,0.0,0.0,0.0,0.0,0.0,0.0,0.0,0.0,0.0,0.0,0.0,0.0,0.0,0.0,0.0,0.0,0.0,0.0,0.0,0.0,0.0,1.7901,1.7901,1.7901,1.7901,1.7901,1.7901,1.7901,1.7901,1.7901,1.7901,1.7901,1.7901,1.7901,1.7901,1.7901,1.7901,1.7901,1.7888,1.7677,1.7677,1.7752,1.746,1.7426,1.7514,1.7406,1.7406,1.7487,1.7487,1.7487,1.7494,1.7568,1.7541,1.7514,1.767,1.7724,1.7758,1.7874,1.7901,1.7901,1.7901,1.7901,1.7901,1.7901,1.7901,1.7901,1.7901,1.7901,1.7901,1.7901,1.7901,1.7901,1.7901,1.7901,1.7901,1.7901,1.7901,1.7901,1.7901,1.7901,1.7901,1.7901,1.7901,1.7901,1.7901,1.7901,1.7901,1.7901,1.7901,1.7901,1.7901,1.7901,1.7901,1.7901,1.7901,1.7901,1.7901,1.7901,1.7901,0.0,0.0,0.0,0.0,0.0,0.0,0.0,0.0,0.0,0.0,0.0,0.0,0.0,0.0,0.0,0.0,0.0,0.0,0.0,0.0,0.0,0.0,0.0,0.0,0.0,0.0,0.0,0.0,0.0,0.0,0.0,0.0,0.0,0.0,1.7901,1.7901,1.7901,1.7901,1.7901,0.0,1.7901,1.7901,1.7901,1.7901,1.7901,1.7901,1.7901,1.7901,1.7901,1.7901,1.7901,1.7888,1.7704,1.7629,1.7629,1.7609,1.7528,1.7467,1.7561,1.7609,1.7629,1.7629,1.7629,1.7656,1.784,1.7772,1.7677,1.7854,1.7901,1.7901,1.7901,1.7901,1.7901,1.7901,1.7901,1.7901,1.7901,1.7901,1.7901,1.7901,1.7901,1.7901,1.7901,1.7901,1.7901,1.7901,1.7901,1.7901,1.7901,1.7901,1.7901,1.7901,1.7901,1.7901,1.7901,1.7901,1.7901,1.7901,1.7901,1.7901,1.7901,1.7901,1.7901,1.7901,1.7901,1.7901,1.7901,1.7901,1.7901,1.7901,1.7901,1.7901,0.0,1.3125,0.0,0.0,0.0,0.0,0.0,0.0,0.0,0.0,0.0,0.0,0.0,0.0,0.0,0.0,0.0,0.0,0.0,0.0,0.0,0.0,0.0,0.0,0.0,0.0,0.0,0.0,0.0,0.0,0.0,0.0,0.0,1.7901,1.7901,1.7901,1.7901,1.7901,1.7901,0.0,1.7901,1.7901,1.7901,1.7901,1.7901,1.7901,1.7901,1.7901,1.7901,1.7901,1.7901,1.7901,1.7854,1.784,1.7826,1.7656,1.7677,1.7772,1.7643,1.7704,1.784,1.784,1.784,1.784,1.7888,1.7874,1.784,1.7888,1.7901,1.7901,1.7901,1.7901,1.7901,1.7901,1.7901,1.7901,1.7901,1.7901,1.7901,1.7901,1.7901,1.7901,1.7901,1.7901,1.7901,1.7901,1.7901,1.7901,1.7901,1.7901,1.7901,1.7901,1.7901,1.7901,1.7901,1.7901,1.7901,1.7901,1.7901,1.7901,1.7901,1.7901,1.7901,1.7901,1.7901,1.7901,1.7901,1.7901,1.7901,1.7901,1.7901,1.7901,0.0,0.0,0.0,0.0,0.0,0.0,0.0,0.0,0.0,0.0,0.0,0.0,0.0,0.0,0.0,0.0,0.0,0.0,0.0,0.0,0.0,0.0,0.0,0.0,0.0,0.0,0.0,0.0,0.0,0.0,0.0,1.7717,1.7758,1.7758,1.7854,1.7901,1.7901,1.7901,1.7901,1.7901,1.7901,1.7901,1.7901,1.7806,1.7758,1.7758,1.7758,1.7758,1.7758,1.7854,1.7901,1.7901,1.7901,1.7901,1.7888,1.7772,1.7806,1.7888,1.7772,1.7806,1.7901,1.7901,1.7901,1.7901,1.7901,1.7901,1.7901,1.7901,1.7901,1.7901,1.7901,1.7901,1.7901,1.7901,1.7901,1.7901,1.7901,1.7901,1.7901,1.7901,1.7901,1.7901,1.7901,1.7901,1.7901,1.7901,1.7901,1.7901,1.7901,1.7901,1.7901,1.7901,1.7901,1.7901,1.7901,1.7901,1.7901,1.7901,1.7901,1.7901,1.7901,1.7901,1.7901,1.7901,1.7901,1.7901,1.7901,1.7901,1.7901,1.7901,1.7901,1.7901,1.3112,0.0,1.4733,0.0,0.0,0.0,0.0,0.0,0.0,0.0,0.0,0.0,0.0,0.0,0.0,0.0,0.0,0.0,0.0,0.0,0.0,0.0,0.0,0.0,0.0,0.0,0.0,0.0,0.0,0.0,1.7419,1.7514,1.7568,1.7568,1.7758,1.7854,1.7854,1.7888,1.7901,1.7901,1.7901,1.7888,1.784,1.7656,1.7602,1.7643,1.7588,1.7582,1.7609,1.7772,1.7854,1.7854,1.7888,1.7901,1.7901,1.7901,1.7901,1.7901,1.7901,1.7901,1.7901,1.7901,1.7901,1.7901,1.7901,1.7901,1.7901,1.7901,1.7901,1.7901,1.7901,1.7901,1.7901,1.7901,1.7901,1.7901,1.7901,1.7901,1.7901,1.7901,1.7901,1.7901,1.7901,1.7901,1.7901,1.7901,1.7901,1.7901,1.7901,1.7901,1.7901,1.7901,1.7901,1.7901,1.7901,1.7901,1.7901,1.7901,1.7901,1.7901,1.7901,1.7901,1.7901,1.7901,1.7901,1.7901,1.7901,1.7901,1.7901,1.7901,1.7901,1.7901,0.0,0.0,1.4749,0.0,1.6197,0.0,0.0,0.0,0.0,0.0,0.0,0.0,0.0,0.0,0.0,0.0,0.0,0.0,0.0,0.0,0.0,0.0,0.0,0.0,0.0,0.0,0.0,0.0,0.0,0.0,1.7419,1.7426,1.7426,1.7426,1.7568,1.7643,1.7643,1.7806,1.7901,1.7901,1.7901,1.7806,1.7643,1.7494,1.7595,1.784,1.7548,1.7487,1.7595,1.7629,1.7643,1.7656,1.7826,1.7901,1.7901,1.7901,1.7901,1.7901,1.7901,1.7901,1.7901,1.7901,1.7901,1.7901,1.7901,1.7901,1.7901,1.7901,1.7901,1.7901,1.7901,1.7901,1.7901,1.7901,1.7901,1.7901,1.7901,1.7901,1.7901,1.7901,1.7901,1.7901,1.7901,1.7901,1.7901,1.7901,1.7901,1.7901,1.7901,1.7901,1.7901,1.7901,1.7901,1.7901,1.7901,1.7901,1.7901,1.7901,1.7901,1.7901,1.7901,1.7901,1.7901,1.7901,1.7901,1.7901,1.7901,1.7901,1.7901,1.7901,1.7901,1.7901,1.2783,1.3759,1.4746,0.0,1.6094,1.6239,0.0,0.0,0.0,0.0,0.0,0.0,0.0,0.0,0.0,0.0,0.0,0.0,0.0,0.0,0.0,0.0,0.0,0.0,0.0,0.0,0.0,0.0,0.0,1.7317,1.7182,1.7249,1.729,1.729,1.7412,1.7521,1.7595,1.7616,1.7616,1.7616,1.7704,1.7656,1.7494,1.7426,1.7446,1.7494,1.7351,1.7317,1.7392,1.7541,1.7595,1.7622,1.7826,1.7901,1.7901,1.7901,1.7901,1.7901,1.7901,1.7901,1.7901,1.7901,1.7901,1.7901,1.7901,1.7901,1.7901,1.7901,1.7901,1.7901,1.7901,1.7901,1.7901,1.7901,1.7901,1.7901,1.7901,1.7901,1.7901,1.7901,1.7901,1.7901,1.7901,1.7901,1.7901,1.7901,1.7901,1.7901,1.7901,1.7901,1.7901,1.7901,1.7901,1.7901,1.7901,1.7901,1.7901,1.7901,1.7901,1.7901,1.7901,1.7901,1.7901,1.7901,1.7901,1.7901,1.7901,1.7901,1.7901,1.7901,1.7901,1.7901,0.0,0.0,1.4351,1.5311,1.5756,1.6022,0.0,0.0,0.0,0.0,0.0,0.0,0.0,0.0,0.0,0.0,0.0,0.0,0.0,0.0,0.0,0.0,0.0,0.0,0.0,0.0,0.0,0.0,0.0,1.7141,1.7011,1.7093,1.7154,1.7154,1.7283,1.7406,1.7507,1.7433,1.7392,1.7392,1.7494,1.748,1.7351,1.7351,1.7283,1.7154,1.7154,1.7175,1.7229,1.7453,1.7548,1.7568,1.7806,1.7901,1.7901,1.7901,1.7901,1.7901,1.7901,1.7901,1.7901,1.7901,1.7901,1.7901,1.7901,1.7901,1.7901,1.7901,1.7901,1.7901,1.7901,1.7901,1.7901,1.7901,1.7901,1.7901,1.7901,1.7901,1.7901,1.7901,1.7901,1.7901,1.7901,1.7901,1.7901,1.7901,1.7901,1.7901,1.7901,1.7901,1.7901,1.7901,1.7901,1.7901,1.7901,1.7901,1.7901,1.7901,1.7901,1.7901,1.7901,1.7901,1.7901,1.7901,1.7901,1.7901,1.7901,1.7901,1.7901,1.7901,1.7901,1.7901,0.0,1.2718,0.0,1.4326,1.5103,0.0,0.0,0.0,0.0,0.0,0.0,0.0,0.0,0.0,0.0,0.0,0.0,0.0,0.0,0.0,0.0,0.0,0.0,0.0,0.0,0.0,0.0,0.0,0.0,1.7141,1.7011,1.7011,1.7005,1.7005,1.7141,1.7209,1.7216,1.7338,1.7392,1.7392,1.7419,1.7338,1.7202,1.7202,1.7141,1.7005,1.7005,1.708,1.7202,1.7351,1.7406,1.7433,1.7772,1.7901,1.7901,1.7901,1.7901,1.7901,1.7901,1.7901,1.7901,1.7901,1.7901,1.7901,1.7901,1.7901,1.7901,1.7901,1.7901,1.7901,1.7901,1.7901,1.7901,1.7901,1.7901,1.7901,1.7901,1.7901,1.7901,1.7901,1.7901,1.7901,1.7901,1.7901,1.7901,1.7901,1.7901,1.7901,1.7901,1.7901,1.7901,1.7901,1.7901,1.7901,1.7901,1.7901,1.7901,1.7901,1.7901,1.7901,1.7901,1.7901,1.7901,1.7901,1.7901,1.7901,1.7901,1.7901,1.7901,1.7901,1.7901,1.7901,0.0,0.0,0.0,1.3803,1.448,1.4995,1.543,0.0,0.0,0.0,0.0,0.0,0.0,0.0,0.0,0.0,0.0,0.0,0.0,0.0,0.0,0.0,0.0,0.0,0.0,0.0,0.0,0.0,0.0,0.0,1.6998,1.6991,1.6991,1.6991,1.7046,1.7073,1.7073,1.7202,1.7229,1.7141,1.7229,1.7195,1.7073,1.7161,1.7127,1.6991,1.6991,1.7038,1.708,1.7229,1.7277,1.7304,1.7595,1.7704,1.7724,1.7854,1.7901,1.7901,1.7901,1.7901,1.7901,1.7901,1.7901,1.7901,1.7901,1.7901,1.7901,1.7901,1.7901,1.7901,1.7901,1.7901,1.7901,1.7901,1.7901,1.7901,1.7901,1.7901,1.7901,1.7901,1.7901,1.7901,1.7901,1.7901,1.7901,1.7901,1.7901,1.7901,1.7901,1.7901,1.7901,1.7901,1.7901,1.7901,1.7901,1.7901,1.7901,1.7901,1.7901,1.7901,1.7901,1.7901,1.7901,1.7901,1.7901,1.7901,1.7901,1.7901,1.7901,1.7901,1.7901,1.7901,1.1381,0.0,0.0,0.0,0.0,1.4333,1.5086,0.0,0.0,0.0,0.0,0.0,0.0,0.0,0.0,0.0,0.0,0.0,0.0,0.0,0.0,0.0,0.0,0.0,0.0,0.0,0.0,0.0,0.0,0.0,1.6991,1.6991,1.6991,1.6991,1.6991,1.6991,1.6991,1.7086,1.7086,1.6998,1.7086,1.7086,1.6998,1.7093,1.7107,1.7059,1.7018,1.6991,1.7005,1.7134,1.7208,1.7216,1.7446,1.7561,1.7622,1.7758,1.784,1.7901,1.7901,1.7901,1.7901,1.7901,1.7901,1.7901,1.7901,1.7901,1.7901,1.7901,1.7901,1.7901,1.7901,1.7901,1.7901,1.7901,1.7901,1.7901,1.7901,1.7901,1.7901,1.7901,1.7901,1.7901,1.7901,1.7901,1.7901,1.7901,1.7901,1.7901,1.7901,1.7901,1.7901,1.7901,1.7901,1.7901,1.7901,1.7901,1.7901,1.7901,1.7901,1.7901,1.7901,1.7901,1.7901,1.7901,1.7901,1.7901,1.7901,1.7901,1.7901,1.7901,1.7901,1.7901,0.0,0.0,0.0,0.0,0.0,0.0,1.5033,0.0,0.0,0.0,0.0,0.0,0.0,0.0,0.0,0.0,0.0,0.0,0.0,0.0,0.0,0.0,0.0,0.0,0.0,0.0,0.0,0.0,0.0,1.6991,1.6991,1.6991,1.6991,1.6991,1.6991,1.6991,1.6991,1.6991,1.6991,1.6991,1.6991,1.6991,1.6991,1.6991,1.7073,1.7188,1.7052,1.6991,1.7005,1.7141,1.7182,1.7215,1.7345,1.7487,1.7595,1.7609,1.7724,1.7901,1.7901,1.7901,1.7901,1.7901,1.7901,1.7901,1.7901,1.7901,1.7901,1.7901,1.7901,1.7901,1.7901,1.7901,1.7901,1.7901,1.7901,1.7901,1.7901,1.7901,1.7901,1.7901,1.7901,1.7901,1.7901,1.7901,1.7901,1.7901,1.7901,1.7901,1.7901,1.7901,1.7901,1.7901,1.7901,1.7901,1.7901,1.7901,1.7901,1.7901,1.7901,1.7901,1.7901,1.7901,1.7901,1.7901,1.7901,1.7901,1.7901,1.7901,1.7901,1.7901,1.7901,1.7901,1.0747,0.0,0.0,0.0,0.0,0.0,0.0,0.0,0.0,0.0,0.0,0.0,0.0,0.0,0.0,0.0,0.0,0.0,0.0,0.0,0.0,0.0,0.0,0.0,0.0,0.0,0.0,0.0,1.6991,1.6991,1.6991,1.6991,1.6991,1.6991,1.6991,1.6991,1.6991,1.6991,1.6991,1.6991,1.6991,1.6991,1.6991,1.6991,1.7018,1.7052,1.7025,1.6991,1.6998,1.7039,1.7066,1.708,1.7304,1.7419,1.748,1.7738,1.7854,1.7901,1.7901,1.7901,1.7901,1.7901,1.7901,1.7901,1.7901,1.7901,1.7901,1.7901,1.7901,1.7901,1.7901,1.7901,1.7901,1.7901,1.7901,1.7901,1.7901,1.7901,1.7901,1.7901,1.7901,1.7901,1.7901,1.7901,1.7901,1.7901,1.7901,1.7901,1.7901,1.7901,1.7901,1.7901,1.7901,1.7901,1.7901,1.7901,1.7901,1.7901,1.7901,1.7901,1.7901,1.7901,1.7901,1.7901,1.7901,1.7901,1.7901,1.7901,1.7901,1.7901,1.7901,1.7901,0.0,0.0,0.0,0.0,0.0,0.0,0.0,1.3549,0.0,0.0,0.0,0.0,0.0,0.0,0.0,0.0,0.0,0.0,0.0,0.0,0.0,0.0,0.0,0.0,0.0,0.0,0.0,1.6991,1.6991,1.6991,1.6991,1.6991,1.6991,1.6991,1.6991,1.6991,1.6991,1.6991,1.6991,1.6991,1.6991,1.6991,1.6991,1.6991,1.7025,1.708,1.7018,1.7025,1.708,1.7018,1.6991,1.7018,1.7236,1.7351,1.7433,1.7684,1.7826,1.7901,1.7901,1.7901,1.7901,1.7901,1.7901,1.7901,1.7901,1.7901,1.7901,1.7901,1.7901,1.7901,1.7901,1.7901,1.7901,1.7901,1.7901,1.7901,1.7901,1.7901,1.7901,1.7901,1.7901,1.7901,1.7901,1.7901,1.7901,1.7901,1.7901,1.7901,1.7901,1.7901,1.7901,1.7901,1.7901,1.7901,1.7901,1.7901,1.7901,1.7901,1.7901,1.7901,1.7901,1.7901,1.7901,1.7901,1.7901,1.7901,1.7901,1.7901,1.7901,1.7901,1.7901,1.7901,1.0961,0.0,0.0,0.0,0.0,0.0,1.3264,1.3444,1.3648,0.0,0.0,0.0,0.0,0.0,0.0,0.0,0.0,0.0,0.0,0.0,0.0,0.0,0.0,0.0,1.6991,1.6991,1.6991,1.6991,1.6991,1.6991,1.6991,1.6991,1.6991,1.6991,1.6991,1.6991,1.6991,1.6991,1.6991,1.6991,1.6991,1.6991,1.6991,1.6991,1.7079,1.7175,1.7046,1.7066,1.7175,1.7046,1.7018,1.7045,1.7175,1.7297,1.744,1.7575,1.7758,1.7901,1.7901,1.7901,1.7901,1.7901,1.7901,1.7901,1.7901,1.7901,1.7901,1.7901,1.7901,1.7901,1.7901,1.7901,1.7901,1.7901,1.7901,1.7901,1.7901,1.7901,1.7901,1.7901,1.7901,1.7901,1.7901,1.7901,1.7901,1.7901,1.7901,1.7901,1.7901,1.7901,1.7901,1.7901,1.7901,1.7901,1.7901,1.7901,1.7901,1.7901,1.7901,1.7901,1.7901,1.7901,1.7901,1.7901,1.7901,1.7901,1.7901,1.7901,1.7901,1.7901,1.7901,1.7901,1.1307,1.1378,0.0,0.0,0.0,0.0,0.0,1.2536,1.3044,0.0,0.0,0.0,0.0,0.0,0.0,0.0,0.0,0.0,0.0,0.0,0.0,0.0,0.0,0.0,1.6991,1.6991,1.6991,1.6991,1.6991,1.6991,1.6991,1.6991,1.6991,1.6991,1.6991,1.6991,1.6991,1.6991,1.6991,1.6991,1.6991,1.6991,1.6991,1.6991,1.7012,1.7032,1.7005,1.7012,1.7045,1.7005,1.7059,1.7168,1.7304,1.744,1.7582,1.7772,1.7874,1.7901,1.7901,1.7901,1.7901,1.7901,1.7901,1.7901,1.7901,1.7901,1.7901,1.7901,1.7901,1.7901,1.7901,1.7901,1.7901,1.7901,1.7901,1.7901,1.7901,1.7901,1.7901,1.7901,1.7901,1.7901,1.7901,1.7901,1.7901,1.7901,1.7901,1.7901,1.7901,1.7901,1.7901,1.7901,1.7901,1.7901,1.7901,1.7901,1.7901,1.7901,1.7901,1.7901,1.7901,1.7901,1.7901,1.7901,1.7901,1.7901,1.7901,1.7901,1.7901,1.7901,1.7901,1.7901,1.1459,1.1504,0.0,1.1717,0.0,0.0,0.0,0.0,0.0,0.0,0.0,0.0,0.0,0.0,0.0,0.0,0.0,0.0,0.0,0.0,0.0,0.0,0.0,0.0,1.6984,1.691,1.6884,1.6991,1.6991,1.6991,1.6991,1.6991,1.6991,1.6991,1.6991,1.6991,1.6991,1.6991,1.6991,1.6991,1.6991,1.6991,1.6991,1.6991,1.6991,1.6991,1.6991,1.7032,1.7093,1.7025,1.7154,1.7392,1.7392,1.744,1.7534,1.7799,1.7901,1.7901,1.7901,1.7901,1.7901,1.7901,1.7901,1.7901,1.7901,1.7901,1.7901,1.7901,1.7901,1.7901,1.7901,1.7901,1.7901,1.7901,1.7901,1.7901,1.7901,1.7901,1.7901,1.7901,1.7901,1.7901,1.7901,1.7901,1.7901,1.7901,1.7901,1.7901,1.7901,1.7901,1.7901,1.7901,1.7901,1.7901,1.7901,1.7901,1.7901,1.7901,1.7901,1.7901,1.7901,1.7901,1.7901,1.7901,1.7901,1.7901,1.7901,1.7901,1.7901,1.7901,1.7901,1.7901,0.0,0.0,0.0,0.0,0.0,1.2066,0.0,0.0,0.0,0.0,0.0,0.0,0.0,0.0,0.0,0.0,0.0,0.0,0.0,0.0,0.0,0.0,0.0,0.0,0.0,1.6688,1.6667,1.6889,1.6869,1.6849,1.6903,1.6937,1.6937,1.6937,1.6978,1.6991,1.6991,1.6991,1.6991,1.6991,1.6991,1.6991,1.6991,1.6991,1.6991,1.6991,1.6991,1.7073,1.7195,1.708,1.7249,1.7555,1.744,1.7439,1.7534,1.7799,1.7901,1.7901,1.7901,1.7901,1.7901,1.7901,1.7901,1.7901,1.7901,1.7901,1.7901,1.7901,1.7901,1.7901,1.7901,1.7901,1.7901,1.7901,1.7901,1.7901,1.7901,1.7901,1.7901,1.7901,1.7901,1.7901,1.7901,1.7901,1.7901,1.7901,1.7901,1.7901,1.7901,1.7901,1.7901,1.7901,1.7901,1.7901,1.7901,1.7901,1.7901,1.7901,1.7901,1.7901,1.7901,1.7901,1.7901,1.7901,1.7901,1.7901,1.7901,1.7901,1.7901,1.7901,1.7901,1.7901,0.0,0.0,0.0,0.0,1.2919,0.0,0.0,0.0,0.0,0.0,0.0,0.0,0.0,0.0,0.0,0.0,0.0,0.0,0.0,0.0,0.0,0.0,0.0,0.0,0.0,1.6246,1.6285,1.6538,1.6346,1.6312,1.6532,1.6661,1.6723,1.6723,1.691,1.6991,1.6991,1.6991,1.6991,1.6991,1.6991,1.6991,1.6991,1.6991,1.6991,1.6991,1.6991,1.7073,1.7202,1.7175,1.7263,1.7419,1.7412,1.7582,1.7854,1.7888,1.7901,1.7901,1.7901,1.7901,1.7901,1.7901,1.7901,1.7901,1.7901,1.7901,1.7901,1.7901,1.7901,1.7901,1.7901,1.7901,1.7901,1.7901,1.7901,1.7901,1.7901,1.7901,1.7901,1.7901,1.7901,1.7901,1.7901,1.7901,1.7901,1.7901,1.7901,1.7901,1.7901,1.7901,1.7901,1.7901,1.7901,1.7901,1.7901,1.7901,1.7901,1.7901,1.7901,1.7901,1.7901,1.7901,1.7901,1.7901,1.7901,1.7901,1.7901,1.7901,1.7901,1.7901,1.7901,1.7901,0.0,0.0,0.0,0.0,0.0,0.0,0.0,0.0,1.213,0.0,0.0,0.0,0.0,0.0,0.0,0.0,0.0,0.0,0.0,0.0,0.0,0.0,0.0,0.0,0.0,0.0,0.0,0.0,1.6094,1.6108,1.6369,1.658,1.6696,1.6696,1.6904,1.6991,1.6991,1.6991,1.6991,1.6991,1.6991,1.6991,1.6991,1.6991,1.6991,1.6991,1.6991,1.7127,1.7304,1.7229,1.7385,1.7684,1.7561,1.7602,1.7744,1.7854,1.7901,1.7901,1.7901,1.7901,1.7901,1.7901,1.7901,1.7901,1.7901,1.7901,1.7901,1.7901,1.7901,1.7901,1.7901,1.7901,1.7901,1.7901,1.7901,1.7901,1.7901,1.7901,1.7901,1.7901,1.7901,1.7901,1.7901,1.7901,1.7901,1.7901,1.7901,1.7901,1.7901,1.7901,1.7901,1.7901,1.7901,1.7901,1.7901,1.7901,1.7901,1.7901,1.7901,1.7901,1.7901,1.7901,1.7901,1.7901,1.7901,1.7901,1.7901,1.7901,1.7901,1.7901,1.7901,1.7901,1.6799,0.0,0.0,0.0,0.0,0.0,0.0,0.0,0.0,0.0,0.0,0.0,0.0,0.0,0.0,0.0,0.0,0.0,0.0,0.0,0.0,0.0,0.0,0.0,0.0,0.0,0.0,0.0,0.0,1.5749,1.6177,1.6444,1.6607,1.6635,1.6876,1.6991,1.6991,1.6991,1.6991,1.6991,1.6991,1.6991,1.6991,1.6991,1.7018,1.7052,1.7025,1.7148,1.7385,1.729,1.7487,1.7806,1.7724,1.7677,1.7704,1.7854,1.7901,1.7901,1.7901,1.7901,1.7901,1.7901,1.7901,1.7901,1.7901,1.7901,1.7901,1.7901,1.7901,1.7901,1.7901,1.7901,1.7901,1.7901,1.7901,1.7901,1.7901,1.7901,1.7901,1.7901,1.7901,1.7901,1.7901,1.7901,1.7901,1.7901,1.7901,1.7901,1.7901,1.7901,1.7901,1.7901,1.7901,1.7901,1.7901,1.7901,1.7901,1.7901,1.7901,1.7901,1.7901,1.7901,1.7901,1.7901,1.7901,1.7901,1.7901,1.7901,1.7901,1.7901,1.7901,1.7901,0.0,0.0,0.0,0.0,0.0,0.0,0.0,0.0,1.2522,0.0,0.0,0.0,0.0,0.0,0.0,0.0,0.0,0.0,0.0,0.0,0.0,0.0,0.0,0.0,0.0,0.0,0.0,0.0,0.0,0.0,1.5862,1.617,1.6375,1.6498,1.6822,1.6991,1.6991,1.6991,1.6991,1.6991,1.6991,1.6991,1.6991,1.6991,1.7066,1.7188,1.7052,1.7148,1.7392,1.7399,1.748,1.7629,1.7826,1.7888,1.7888,1.7901,1.7901,1.7901,1.7901,1.7901,1.7901,1.7901,1.7901,1.7901,1.7901,1.7901,1.7901,1.7901,1.7901,1.7901,1.7901,1.7901,1.7901,1.7901,1.7901,1.7901,1.7901,1.7901,1.7901,1.7901,1.7901,1.7901,1.7901,1.7901,1.7901,1.7901,1.7901,1.7901,1.7901,1.7901,1.7901,1.7901,1.7901,1.7901,1.7901,1.7901,1.7901,1.7901,1.7901,1.7901,1.7901,1.7901,1.7901,1.7901,1.7901,1.7901,1.7901,1.7901,1.7901,1.7901,1.7901,1.7901,0.0,0.0,2.1805,1.9523,0.0,0.0,0.0,0.0,0.0,0.0,0.0,0.0,0.0,0.0,0.0,0.0,0.0,0.0,0.0,0.0,0.0,0.0,0.0,0.0,0.0,0.0,0.0,0.0,1.4911,0.0,0.0,1.6023,1.6321,1.6369,1.6647,1.6863,1.7004,1.6991,1.6991,1.6991,1.6991,1.6991,1.6991,1.6991,1.7018,1.7079,1.7018,1.71,1.7277,1.7365,1.748,1.7622,1.7826,1.7901,1.7901,1.7901,1.7901,1.7901,1.7901,1.7901,1.7901,1.7901,1.7901,1.7901,1.7901,1.7901,1.7901,1.7901,1.7901,1.7901,1.7901,1.7901,1.7901,1.7901,1.7901,1.7901,1.7901,1.7901,1.7901,1.7901,1.7901,1.7901,1.7901,1.7901,1.7901,1.7901,1.7901,1.7901,1.7901,1.7901,1.7901,1.7901,1.7901,1.7901,1.7901,1.7901,1.7901,1.7901,1.7901,1.7901,1.7901,1.7901,1.7901,1.7901,1.7901,1.7901,1.7901,1.7901,1.7901,1.7901,1.7901,1.7901,2.5964,2.5548,0.0,0.0,2.1328,0.0,0.0,0.0,0.0,0.0,0.0,0.0,0.0,0.0,0.0,0.0,0.0,0.0,0.0,0.0,0.0,0.0,0.0,0.0,0.0,0.0,1.4179,1.4654,1.4685,0.0,0.0,0.0,1.6218,1.6369,1.6587,1.6796,1.7004,1.6991,1.7018,1.7066,1.7018,1.7018,1.7066,1.7018,1.7038,1.7073,1.7073,1.7154,1.7283,1.7426,1.7521,1.7622,1.7826,1.7901,1.7901,1.7901,1.7901,1.7901,1.7901,1.7901,1.7901,1.7901,1.7901,1.7901,1.7901,1.7901,1.7901,1.7901,1.7901,1.7901,1.7901,1.7901,1.7901,1.7901,1.7901,1.7901,1.7901,1.7901,1.7901,1.7901,1.7901,1.7901,1.7901,1.7901,1.7901,1.7901,1.7901,1.7901,1.7901,1.7901,1.7901,1.7901,1.7901,1.7901,1.7901,1.7901,1.7901,1.7901,1.7901,1.7901,1.7901,1.7901,1.7901,1.7901,1.7901,1.7901,1.7901,1.7901,1.7901,1.7901,1.7901,1.7901]}]]